<?xml version="1.0" encoding="UTF-8"?>
<gpx creator="Garmin Connect" version="1.1"
  xsi:schemaLocation="http://www.topografix.com/GPX/1/1 http://www.topografix.com/GPX/11.xsd"
  xmlns:ns3="http://www.garmin.com/xmlschemas/TrackPointExtension/v1"
  xmlns="http://www.topografix.com/GPX/1/1"
  xmlns:xsi="http://www.w3.org/2001/XMLSchema-instance" xmlns:ns2="http://www.garmin.com/xmlschemas/GpxExtensions/v3">
  <metadata>
    <link href="connect.garmin.com">
      <text>Garmin Connect</text>
    </link>
    <time>2026-07-25T09:38:29.000Z</time>
  </metadata>
  <trk>
    <name>Rozalimas Walking</name>
    <type>walking</type>
    <trkseg>
      <trkpt lat="55.91898648999631404876708984375" lon="23.87116963975131511688232421875">
        <ele>71.40000152587890625</ele>
        <time>2026-07-25T09:38:29.000Z</time>
        <extensions>
          <ns3:TrackPointExtension>
            <ns3:atemp>28.0</ns3:atemp>
            <ns3:hr>97</ns3:hr>
          </ns3:TrackPointExtension>
        </extensions>
      </trkpt>
      <trkpt lat="55.918976180255413055419921875" lon="23.8711541332304477691650390625">
        <ele>71.59999847412109375</ele>
        <time>2026-07-25T09:38:30.000Z</time>
        <extensions>
          <ns3:TrackPointExtension>
            <ns3:atemp>28.0</ns3:atemp>
            <ns3:hr>98</ns3:hr>
          </ns3:TrackPointExtension>
        </extensions>
      </trkpt>
      <trkpt lat="55.9189632721245288848876953125" lon="23.87110526673495769500732421875">
        <ele>71.8000030517578125</ele>
        <time>2026-07-25T09:38:36.000Z</time>
        <extensions>
          <ns3:TrackPointExtension>
            <ns3:atemp>28.0</ns3:atemp>
            <ns3:hr>99</ns3:hr>
          </ns3:TrackPointExtension>
        </extensions>
      </trkpt>
      <trkpt lat="55.91896788217127323150634765625" lon="23.8708865828812122344970703125">
        <ele>71.59999847412109375</ele>
        <time>2026-07-25T09:38:44.000Z</time>
        <extensions>
          <ns3:TrackPointExtension>
            <ns3:atemp>28.0</ns3:atemp>
            <ns3:hr>98</ns3:hr>
          </ns3:TrackPointExtension>
        </extensions>
      </trkpt>
      <trkpt lat="55.91900476254522800445556640625" lon="23.87073126621544361114501953125">
        <ele>71.8000030517578125</ele>
        <time>2026-07-25T09:38:51.000Z</time>
        <extensions>
          <ns3:TrackPointExtension>
            <ns3:atemp>28.0</ns3:atemp>
            <ns3:hr>101</ns3:hr>
          </ns3:TrackPointExtension>
        </extensions>
      </trkpt>
      <trkpt lat="55.91900979168713092803955078125" lon="23.87071349658071994781494140625">
        <ele>71.8000030517578125</ele>
        <time>2026-07-25T09:38:52.000Z</time>
        <extensions>
          <ns3:TrackPointExtension>
            <ns3:atemp>28.0</ns3:atemp>
            <ns3:hr>101</ns3:hr>
          </ns3:TrackPointExtension>
        </extensions>
      </trkpt>
      <trkpt lat="55.91897718608379364013671875" lon="23.870587013661861419677734375">
        <ele>71.59999847412109375</ele>
        <time>2026-07-25T09:38:58.000Z</time>
        <extensions>
          <ns3:TrackPointExtension>
            <ns3:atemp>28.0</ns3:atemp>
            <ns3:hr>103</ns3:hr>
          </ns3:TrackPointExtension>
        </extensions>
      </trkpt>
      <trkpt lat="55.91888858936727046966552734375" lon="23.8705305196344852447509765625">
        <ele>72.1999969482421875</ele>
        <time>2026-07-25T09:39:06.000Z</time>
        <extensions>
          <ns3:TrackPointExtension>
            <ns3:atemp>28.0</ns3:atemp>
            <ns3:hr>104</ns3:hr>
          </ns3:TrackPointExtension>
        </extensions>
      </trkpt>
      <trkpt lat="55.91878498904407024383544921875" lon="23.870477043092250823974609375">
        <ele>72.40000152587890625</ele>
        <time>2026-07-25T09:39:14.000Z</time>
        <extensions>
          <ns3:TrackPointExtension>
            <ns3:atemp>28.0</ns3:atemp>
            <ns3:hr>105</ns3:hr>
          </ns3:TrackPointExtension>
        </extensions>
      </trkpt>
      <trkpt lat="55.9187795408070087432861328125" lon="23.8704715110361576080322265625">
        <ele>72.59999847412109375</ele>
        <time>2026-07-25T09:39:15.000Z</time>
        <extensions>
          <ns3:TrackPointExtension>
            <ns3:atemp>28.0</ns3:atemp>
            <ns3:hr>106</ns3:hr>
          </ns3:TrackPointExtension>
        </extensions>
      </trkpt>
      <trkpt lat="55.9187565743923187255859375" lon="23.87047075666487216949462890625">
        <ele>72.59999847412109375</ele>
        <time>2026-07-25T09:39:21.000Z</time>
        <extensions>
          <ns3:TrackPointExtension>
            <ns3:atemp>28.0</ns3:atemp>
            <ns3:hr>106</ns3:hr>
          </ns3:TrackPointExtension>
        </extensions>
      </trkpt>
      <trkpt lat="55.9186699055135250091552734375" lon="23.870480395853519439697265625">
        <ele>72.8000030517578125</ele>
        <time>2026-07-25T09:39:28.000Z</time>
        <extensions>
          <ns3:TrackPointExtension>
            <ns3:atemp>27.0</ns3:atemp>
            <ns3:hr>103</ns3:hr>
          </ns3:TrackPointExtension>
        </extensions>
      </trkpt>
      <trkpt lat="55.91864802874624729156494140625" lon="23.8704701699316501617431640625">
        <ele>72.8000030517578125</ele>
        <time>2026-07-25T09:39:30.000Z</time>
        <extensions>
          <ns3:TrackPointExtension>
            <ns3:atemp>27.0</ns3:atemp>
            <ns3:hr>101</ns3:hr>
          </ns3:TrackPointExtension>
        </extensions>
      </trkpt>
      <trkpt lat="55.91861777007579803466796875" lon="23.8704829104244709014892578125">
        <ele>73</ele>
        <time>2026-07-25T09:39:36.000Z</time>
        <extensions>
          <ns3:TrackPointExtension>
            <ns3:atemp>27.0</ns3:atemp>
            <ns3:hr>102</ns3:hr>
          </ns3:TrackPointExtension>
        </extensions>
      </trkpt>
      <trkpt lat="55.91861911118030548095703125" lon="23.87047762982547283172607421875">
        <ele>73.1999969482421875</ele>
        <time>2026-07-25T09:39:38.000Z</time>
        <extensions>
          <ns3:TrackPointExtension>
            <ns3:atemp>27.0</ns3:atemp>
            <ns3:hr>104</ns3:hr>
          </ns3:TrackPointExtension>
        </extensions>
      </trkpt>
      <trkpt lat="55.91861316002905368804931640625" lon="23.8704808987677097320556640625">
        <ele>73</ele>
        <time>2026-07-25T09:39:42.000Z</time>
        <extensions>
          <ns3:TrackPointExtension>
            <ns3:atemp>27.0</ns3:atemp>
            <ns3:hr>105</ns3:hr>
          </ns3:TrackPointExtension>
        </extensions>
      </trkpt>
      <trkpt lat="55.91857225634157657623291015625" lon="23.87054585851728916168212890625">
        <ele>73</ele>
        <time>2026-07-25T09:39:48.000Z</time>
        <extensions>
          <ns3:TrackPointExtension>
            <ns3:atemp>27.0</ns3:atemp>
            <ns3:hr>106</ns3:hr>
          </ns3:TrackPointExtension>
        </extensions>
      </trkpt>
      <trkpt lat="55.9185518883168697357177734375" lon="23.8705503009259700775146484375">
        <ele>73</ele>
        <time>2026-07-25T09:39:50.000Z</time>
        <extensions>
          <ns3:TrackPointExtension>
            <ns3:atemp>27.0</ns3:atemp>
            <ns3:hr>109</ns3:hr>
          </ns3:TrackPointExtension>
        </extensions>
      </trkpt>
      <trkpt lat="55.9184848330914974212646484375" lon="23.870543427765369415283203125">
        <ele>73</ele>
        <time>2026-07-25T09:39:56.000Z</time>
        <extensions>
          <ns3:TrackPointExtension>
            <ns3:atemp>27.0</ns3:atemp>
            <ns3:hr>108</ns3:hr>
          </ns3:TrackPointExtension>
        </extensions>
      </trkpt>
      <trkpt lat="55.91837779618799686431884765625" lon="23.8705663941800594329833984375">
        <ele>72.59999847412109375</ele>
        <time>2026-07-25T09:40:03.000Z</time>
        <extensions>
          <ns3:TrackPointExtension>
            <ns3:atemp>27.0</ns3:atemp>
            <ns3:hr>108</ns3:hr>
          </ns3:TrackPointExtension>
        </extensions>
      </trkpt>
      <trkpt lat="55.91830520890653133392333984375" lon="23.870596401393413543701171875">
        <ele>73.1999969482421875</ele>
        <time>2026-07-25T09:40:09.000Z</time>
        <extensions>
          <ns3:TrackPointExtension>
            <ns3:atemp>27.0</ns3:atemp>
            <ns3:hr>106</ns3:hr>
          </ns3:TrackPointExtension>
        </extensions>
      </trkpt>
      <trkpt lat="55.91816447675228118896484375" lon="23.8706431724131107330322265625">
        <ele>73.40000152587890625</ele>
        <time>2026-07-25T09:40:18.000Z</time>
        <extensions>
          <ns3:TrackPointExtension>
            <ns3:atemp>27.0</ns3:atemp>
            <ns3:hr>107</ns3:hr>
          </ns3:TrackPointExtension>
        </extensions>
      </trkpt>
      <trkpt lat="55.91809834353625774383544921875" lon="23.87065046466886997222900390625">
        <ele>73.59999847412109375</ele>
        <time>2026-07-25T09:40:23.000Z</time>
        <extensions>
          <ns3:TrackPointExtension>
            <ns3:atemp>27.0</ns3:atemp>
            <ns3:hr>108</ns3:hr>
          </ns3:TrackPointExtension>
        </extensions>
      </trkpt>
      <trkpt lat="55.91806397773325443267822265625" lon="23.87066404335200786590576171875">
        <ele>73.59999847412109375</ele>
        <time>2026-07-25T09:40:26.000Z</time>
        <extensions>
          <ns3:TrackPointExtension>
            <ns3:atemp>27.0</ns3:atemp>
            <ns3:hr>108</ns3:hr>
          </ns3:TrackPointExtension>
        </extensions>
      </trkpt>
      <trkpt lat="55.91800681315362453460693359375" lon="23.87067678384482860565185546875">
        <ele>73.8000030517578125</ele>
        <time>2026-07-25T09:40:30.000Z</time>
        <extensions>
          <ns3:TrackPointExtension>
            <ns3:atemp>27.0</ns3:atemp>
            <ns3:hr>109</ns3:hr>
          </ns3:TrackPointExtension>
        </extensions>
      </trkpt>
      <trkpt lat="55.91795819811522960662841796875" lon="23.8706679828464984893798828125">
        <ele>74</ele>
        <time>2026-07-25T09:40:33.000Z</time>
        <extensions>
          <ns3:TrackPointExtension>
            <ns3:atemp>27.0</ns3:atemp>
            <ns3:hr>110</ns3:hr>
          </ns3:TrackPointExtension>
        </extensions>
      </trkpt>
      <trkpt lat="55.91794730164110660552978515625" lon="23.87068952433764934539794921875">
        <ele>74.1999969482421875</ele>
        <time>2026-07-25T09:40:38.000Z</time>
        <extensions>
          <ns3:TrackPointExtension>
            <ns3:atemp>27.0</ns3:atemp>
            <ns3:hr>111</ns3:hr>
          </ns3:TrackPointExtension>
        </extensions>
      </trkpt>
      <trkpt lat="55.91793959029018878936767578125" lon="23.8706619478762149810791015625">
        <ele>74</ele>
        <time>2026-07-25T09:40:46.000Z</time>
        <extensions>
          <ns3:TrackPointExtension>
            <ns3:atemp>27.0</ns3:atemp>
            <ns3:hr>108</ns3:hr>
          </ns3:TrackPointExtension>
        </extensions>
      </trkpt>
      <trkpt lat="55.91793070547282695770263671875" lon="23.8706535659730434417724609375">
        <ele>74</ele>
        <time>2026-07-25T09:40:47.000Z</time>
        <extensions>
          <ns3:TrackPointExtension>
            <ns3:atemp>27.0</ns3:atemp>
            <ns3:hr>105</ns3:hr>
          </ns3:TrackPointExtension>
        </extensions>
      </trkpt>
      <trkpt lat="55.91791762970387935638427734375" lon="23.87064510025084018707275390625">
        <ele>74</ele>
        <time>2026-07-25T09:40:49.000Z</time>
        <extensions>
          <ns3:TrackPointExtension>
            <ns3:atemp>27.0</ns3:atemp>
            <ns3:hr>102</ns3:hr>
          </ns3:TrackPointExtension>
        </extensions>
      </trkpt>
      <trkpt lat="55.917905978858470916748046875" lon="23.87063520960509777069091796875">
        <ele>74</ele>
        <time>2026-07-25T09:40:52.000Z</time>
        <extensions>
          <ns3:TrackPointExtension>
            <ns3:atemp>27.0</ns3:atemp>
            <ns3:hr>102</ns3:hr>
          </ns3:TrackPointExtension>
        </extensions>
      </trkpt>
      <trkpt lat="55.91788309626281261444091796875" lon="23.870581649243831634521484375">
        <ele>74.59999847412109375</ele>
        <time>2026-07-25T09:40:59.000Z</time>
        <extensions>
          <ns3:TrackPointExtension>
            <ns3:atemp>27.0</ns3:atemp>
            <ns3:hr>101</ns3:hr>
          </ns3:TrackPointExtension>
        </extensions>
      </trkpt>
      <trkpt lat="55.91781989671289920806884765625" lon="23.87052792124450206756591796875">
        <ele>74</ele>
        <time>2026-07-25T09:41:06.000Z</time>
        <extensions>
          <ns3:TrackPointExtension>
            <ns3:atemp>27.0</ns3:atemp>
            <ns3:hr>103</ns3:hr>
          </ns3:TrackPointExtension>
        </extensions>
      </trkpt>
      <trkpt lat="55.91773943044245243072509765625" lon="23.8704151846468448638916015625">
        <ele>74</ele>
        <time>2026-07-25T09:41:15.000Z</time>
        <extensions>
          <ns3:TrackPointExtension>
            <ns3:atemp>27.0</ns3:atemp>
            <ns3:hr>105</ns3:hr>
          </ns3:TrackPointExtension>
        </extensions>
      </trkpt>
      <trkpt lat="55.91766634024679660797119140625" lon="23.87026003561913967132568359375">
        <ele>73.59999847412109375</ele>
        <time>2026-07-25T09:41:25.000Z</time>
        <extensions>
          <ns3:TrackPointExtension>
            <ns3:atemp>27.0</ns3:atemp>
            <ns3:hr>102</ns3:hr>
          </ns3:TrackPointExtension>
        </extensions>
      </trkpt>
      <trkpt lat="55.91765829361975193023681640625" lon="23.87024980969727039337158203125">
        <ele>73.59999847412109375</ele>
        <time>2026-07-25T09:41:26.000Z</time>
        <extensions>
          <ns3:TrackPointExtension>
            <ns3:atemp>27.0</ns3:atemp>
            <ns3:hr>102</ns3:hr>
          </ns3:TrackPointExtension>
        </extensions>
      </trkpt>
      <trkpt lat="55.9175946749746799468994140625" lon="23.87019784189760684967041015625">
        <ele>73.8000030517578125</ele>
        <time>2026-07-25T09:41:33.000Z</time>
        <extensions>
          <ns3:TrackPointExtension>
            <ns3:atemp>26.0</ns3:atemp>
            <ns3:hr>101</ns3:hr>
          </ns3:TrackPointExtension>
        </extensions>
      </trkpt>
      <trkpt lat="55.91751873493194580078125" lon="23.8700683414936065673828125">
        <ele>73.40000152587890625</ele>
        <time>2026-07-25T09:41:41.000Z</time>
        <extensions>
          <ns3:TrackPointExtension>
            <ns3:atemp>26.0</ns3:atemp>
            <ns3:hr>103</ns3:hr>
          </ns3:TrackPointExtension>
        </extensions>
      </trkpt>
      <trkpt lat="55.9174317307770252227783203125" lon="23.86994160711765289306640625">
        <ele>73.59999847412109375</ele>
        <time>2026-07-25T09:41:48.000Z</time>
        <extensions>
          <ns3:TrackPointExtension>
            <ns3:atemp>26.0</ns3:atemp>
            <ns3:hr>102</ns3:hr>
          </ns3:TrackPointExtension>
        </extensions>
      </trkpt>
      <trkpt lat="55.91741773299872875213623046875" lon="23.86992626823484897613525390625">
        <ele>73.59999847412109375</ele>
        <time>2026-07-25T09:41:49.000Z</time>
        <extensions>
          <ns3:TrackPointExtension>
            <ns3:atemp>26.0</ns3:atemp>
            <ns3:hr>101</ns3:hr>
          </ns3:TrackPointExtension>
        </extensions>
      </trkpt>
      <trkpt lat="55.917350761592388153076171875" lon="23.86984379030764102935791015625">
        <ele>74</ele>
        <time>2026-07-25T09:41:55.000Z</time>
        <extensions>
          <ns3:TrackPointExtension>
            <ns3:atemp>26.0</ns3:atemp>
            <ns3:hr>101</ns3:hr>
          </ns3:TrackPointExtension>
        </extensions>
      </trkpt>
      <trkpt lat="55.91727205552160739898681640625" lon="23.8697043992578983306884765625">
        <ele>74</ele>
        <time>2026-07-25T09:42:03.000Z</time>
        <extensions>
          <ns3:TrackPointExtension>
            <ns3:atemp>26.0</ns3:atemp>
            <ns3:hr>102</ns3:hr>
          </ns3:TrackPointExtension>
        </extensions>
      </trkpt>
      <trkpt lat="55.91719745658338069915771484375" lon="23.869565762579441070556640625">
        <ele>73</ele>
        <time>2026-07-25T09:42:12.000Z</time>
        <extensions>
          <ns3:TrackPointExtension>
            <ns3:atemp>26.0</ns3:atemp>
            <ns3:hr>101</ns3:hr>
          </ns3:TrackPointExtension>
        </extensions>
      </trkpt>
      <trkpt lat="55.91715387068688869476318359375" lon="23.8694495894014835357666015625">
        <ele>73.8000030517578125</ele>
        <time>2026-07-25T09:42:19.000Z</time>
        <extensions>
          <ns3:TrackPointExtension>
            <ns3:atemp>26.0</ns3:atemp>
            <ns3:hr>102</ns3:hr>
          </ns3:TrackPointExtension>
        </extensions>
      </trkpt>
      <trkpt lat="55.917149595916271209716796875" lon="23.86943140067160129547119140625">
        <ele>74</ele>
        <time>2026-07-25T09:42:20.000Z</time>
        <extensions>
          <ns3:TrackPointExtension>
            <ns3:atemp>26.0</ns3:atemp>
            <ns3:hr>102</ns3:hr>
          </ns3:TrackPointExtension>
        </extensions>
      </trkpt>
      <trkpt lat="55.9171526134014129638671875" lon="23.86939938180148601531982421875">
        <ele>74.40000152587890625</ele>
        <time>2026-07-25T09:42:24.000Z</time>
        <extensions>
          <ns3:TrackPointExtension>
            <ns3:atemp>26.0</ns3:atemp>
            <ns3:hr>103</ns3:hr>
          </ns3:TrackPointExtension>
        </extensions>
      </trkpt>
      <trkpt lat="55.91714666225016117095947265625" lon="23.869411535561084747314453125">
        <ele>74.8000030517578125</ele>
        <time>2026-07-25T09:42:26.000Z</time>
        <extensions>
          <ns3:TrackPointExtension>
            <ns3:atemp>26.0</ns3:atemp>
            <ns3:hr>107</ns3:hr>
          </ns3:TrackPointExtension>
        </extensions>
      </trkpt>
      <trkpt lat="55.917135514318943023681640625" lon="23.86940273456275463104248046875">
        <ele>75</ele>
        <time>2026-07-25T09:42:28.000Z</time>
        <extensions>
          <ns3:TrackPointExtension>
            <ns3:atemp>26.0</ns3:atemp>
            <ns3:hr>109</ns3:hr>
          </ns3:TrackPointExtension>
        </extensions>
      </trkpt>
      <trkpt lat="55.9171279706060886383056640625" lon="23.86939334683120250701904296875">
        <ele>74.59999847412109375</ele>
        <time>2026-07-25T09:42:32.000Z</time>
        <extensions>
          <ns3:TrackPointExtension>
            <ns3:atemp>26.0</ns3:atemp>
            <ns3:hr>112</ns3:hr>
          </ns3:TrackPointExtension>
        </extensions>
      </trkpt>
      <trkpt lat="55.91713710688054561614990234375" lon="23.869432993233203887939453125">
        <ele>74.8000030517578125</ele>
        <time>2026-07-25T09:42:41.000Z</time>
        <extensions>
          <ns3:TrackPointExtension>
            <ns3:atemp>26.0</ns3:atemp>
            <ns3:hr>111</ns3:hr>
          </ns3:TrackPointExtension>
        </extensions>
      </trkpt>
      <trkpt lat="55.9171618334949016571044921875" lon="23.8694445602595806121826171875">
        <ele>74.59999847412109375</ele>
        <time>2026-07-25T09:42:49.000Z</time>
        <extensions>
          <ns3:TrackPointExtension>
            <ns3:atemp>26.0</ns3:atemp>
            <ns3:hr>108</ns3:hr>
          </ns3:TrackPointExtension>
        </extensions>
      </trkpt>
      <trkpt lat="55.9171618334949016571044921875" lon="23.86944481171667575836181640625">
        <ele>74.59999847412109375</ele>
        <time>2026-07-25T09:42:50.000Z</time>
        <extensions>
          <ns3:TrackPointExtension>
            <ns3:atemp>26.0</ns3:atemp>
            <ns3:hr>106</ns3:hr>
          </ns3:TrackPointExtension>
        </extensions>
      </trkpt>
      <trkpt lat="55.91715839691460132598876953125" lon="23.86944280005991458892822265625">
        <ele>74.59999847412109375</ele>
        <time>2026-07-25T09:42:52.000Z</time>
        <extensions>
          <ns3:TrackPointExtension>
            <ns3:atemp>26.0</ns3:atemp>
            <ns3:hr>103</ns3:hr>
          </ns3:TrackPointExtension>
        </extensions>
      </trkpt>
      <trkpt lat="55.917141549289226531982421875" lon="23.869474567472934722900390625">
        <ele>74.59999847412109375</ele>
        <time>2026-07-25T09:42:56.000Z</time>
        <extensions>
          <ns3:TrackPointExtension>
            <ns3:atemp>26.0</ns3:atemp>
            <ns3:hr>106</ns3:hr>
          </ns3:TrackPointExtension>
        </extensions>
      </trkpt>
      <trkpt lat="55.9171172417700290679931640625" lon="23.86947515420615673065185546875">
        <ele>74.40000152587890625</ele>
        <time>2026-07-25T09:42:58.000Z</time>
        <extensions>
          <ns3:TrackPointExtension>
            <ns3:atemp>26.0</ns3:atemp>
            <ns3:hr>105</ns3:hr>
          </ns3:TrackPointExtension>
        </extensions>
      </trkpt>
      <trkpt lat="55.9170505218207836151123046875" lon="23.869458138942718505859375">
        <ele>74</ele>
        <time>2026-07-25T09:43:05.000Z</time>
        <extensions>
          <ns3:TrackPointExtension>
            <ns3:atemp>26.0</ns3:atemp>
            <ns3:hr>106</ns3:hr>
          </ns3:TrackPointExtension>
        </extensions>
      </trkpt>
      <trkpt lat="55.917057730257511138916015625" lon="23.86943995021283626556396484375">
        <ele>74.40000152587890625</ele>
        <time>2026-07-25T09:43:09.000Z</time>
        <extensions>
          <ns3:TrackPointExtension>
            <ns3:atemp>26.0</ns3:atemp>
            <ns3:hr>106</ns3:hr>
          </ns3:TrackPointExtension>
        </extensions>
      </trkpt>
      <trkpt lat="55.91705538332462310791015625" lon="23.8694418780505657196044921875">
        <ele>74.40000152587890625</ele>
        <time>2026-07-25T09:43:12.000Z</time>
        <extensions>
          <ns3:TrackPointExtension>
            <ns3:atemp>26.0</ns3:atemp>
            <ns3:hr>105</ns3:hr>
          </ns3:TrackPointExtension>
        </extensions>
      </trkpt>
      <trkpt lat="55.9169727377593517303466796875" lon="23.8694608211517333984375">
        <ele>74.1999969482421875</ele>
        <time>2026-07-25T09:43:19.000Z</time>
        <extensions>
          <ns3:TrackPointExtension>
            <ns3:atemp>26.0</ns3:atemp>
            <ns3:hr>104</ns3:hr>
          </ns3:TrackPointExtension>
        </extensions>
      </trkpt>
      <trkpt lat="55.91688078828155994415283203125" lon="23.86951446533203125">
        <ele>74.59999847412109375</ele>
        <time>2026-07-25T09:43:26.000Z</time>
        <extensions>
          <ns3:TrackPointExtension>
            <ns3:atemp>26.0</ns3:atemp>
            <ns3:hr>105</ns3:hr>
          </ns3:TrackPointExtension>
        </extensions>
      </trkpt>
      <trkpt lat="55.91677903197705745697021484375" lon="23.86953952722251415252685546875">
        <ele>74.8000030517578125</ele>
        <time>2026-07-25T09:43:34.000Z</time>
        <extensions>
          <ns3:TrackPointExtension>
            <ns3:atemp>26.0</ns3:atemp>
            <ns3:hr>106</ns3:hr>
          </ns3:TrackPointExtension>
        </extensions>
      </trkpt>
      <trkpt lat="55.9166595898568630218505859375" lon="23.86952896602451801300048828125">
        <ele>74.40000152587890625</ele>
        <time>2026-07-25T09:43:43.000Z</time>
        <extensions>
          <ns3:TrackPointExtension>
            <ns3:atemp>26.0</ns3:atemp>
            <ns3:hr>107</ns3:hr>
          </ns3:TrackPointExtension>
        </extensions>
      </trkpt>
      <trkpt lat="55.91659546829760074615478515625" lon="23.86947766877710819244384765625">
        <ele>74.59999847412109375</ele>
        <time>2026-07-25T09:43:48.000Z</time>
        <extensions>
          <ns3:TrackPointExtension>
            <ns3:atemp>26.0</ns3:atemp>
            <ns3:hr>110</ns3:hr>
          </ns3:TrackPointExtension>
        </extensions>
      </trkpt>
      <trkpt lat="55.91656311415135860443115234375" lon="23.86945319361984729766845703125">
        <ele>74.8000030517578125</ele>
        <time>2026-07-25T09:43:50.000Z</time>
        <extensions>
          <ns3:TrackPointExtension>
            <ns3:atemp>26.0</ns3:atemp>
            <ns3:hr>110</ns3:hr>
          </ns3:TrackPointExtension>
        </extensions>
      </trkpt>
      <trkpt lat="55.916500501334667205810546875" lon="23.86933785863220691680908203125">
        <ele>75.1999969482421875</ele>
        <time>2026-07-25T09:43:56.000Z</time>
        <extensions>
          <ns3:TrackPointExtension>
            <ns3:atemp>26.0</ns3:atemp>
            <ns3:hr>112</ns3:hr>
          </ns3:TrackPointExtension>
        </extensions>
      </trkpt>
      <trkpt lat="55.91648465953767299652099609375" lon="23.86929360218346118927001953125">
        <ele>75</ele>
        <time>2026-07-25T09:43:59.000Z</time>
        <extensions>
          <ns3:TrackPointExtension>
            <ns3:atemp>26.0</ns3:atemp>
            <ns3:hr>111</ns3:hr>
          </ns3:TrackPointExtension>
        </extensions>
      </trkpt>
      <trkpt lat="55.91646395623683929443359375" lon="23.8692071847617626190185546875">
        <ele>74</ele>
        <time>2026-07-25T09:44:04.000Z</time>
        <extensions>
          <ns3:TrackPointExtension>
            <ns3:atemp>26.0</ns3:atemp>
            <ns3:hr>112</ns3:hr>
          </ns3:TrackPointExtension>
        </extensions>
      </trkpt>
      <trkpt lat="55.91645993292331695556640625" lon="23.869181536138057708740234375">
        <ele>73.8000030517578125</ele>
        <time>2026-07-25T09:44:05.000Z</time>
        <extensions>
          <ns3:TrackPointExtension>
            <ns3:atemp>26.0</ns3:atemp>
            <ns3:hr>112</ns3:hr>
          </ns3:TrackPointExtension>
        </extensions>
      </trkpt>
      <trkpt lat="55.91642766259610652923583984375" lon="23.8690839707851409912109375">
        <ele>72.59999847412109375</ele>
        <time>2026-07-25T09:44:09.000Z</time>
        <extensions>
          <ns3:TrackPointExtension>
            <ns3:atemp>26.0</ns3:atemp>
            <ns3:hr>111</ns3:hr>
          </ns3:TrackPointExtension>
        </extensions>
      </trkpt>
      <trkpt lat="55.91639732010662555694580078125" lon="23.8690251298248767852783203125">
        <ele>72</ele>
        <time>2026-07-25T09:44:12.000Z</time>
        <extensions>
          <ns3:TrackPointExtension>
            <ns3:atemp>26.0</ns3:atemp>
            <ns3:hr>110</ns3:hr>
          </ns3:TrackPointExtension>
        </extensions>
      </trkpt>
      <trkpt lat="55.91631500981748104095458984375" lon="23.86894575320184230804443359375">
        <ele>72.1999969482421875</ele>
        <time>2026-07-25T09:44:19.000Z</time>
        <extensions>
          <ns3:TrackPointExtension>
            <ns3:atemp>26.0</ns3:atemp>
            <ns3:hr>113</ns3:hr>
          </ns3:TrackPointExtension>
        </extensions>
      </trkpt>
      <trkpt lat="55.91630528680980205535888671875" lon="23.86893888004124164581298828125">
        <ele>72.1999969482421875</ele>
        <time>2026-07-25T09:44:20.000Z</time>
        <extensions>
          <ns3:TrackPointExtension>
            <ns3:atemp>26.0</ns3:atemp>
            <ns3:hr>113</ns3:hr>
          </ns3:TrackPointExtension>
        </extensions>
      </trkpt>
      <trkpt lat="55.9161937236785888671875" lon="23.86883058585226535797119140625">
        <ele>72.1999969482421875</ele>
        <time>2026-07-25T09:44:29.000Z</time>
        <extensions>
          <ns3:TrackPointExtension>
            <ns3:atemp>25.0</ns3:atemp>
            <ns3:hr>112</ns3:hr>
          </ns3:TrackPointExtension>
        </extensions>
      </trkpt>
      <trkpt lat="55.9161280095577239990234375" lon="23.8687153346836566925048828125">
        <ele>72</ele>
        <time>2026-07-25T09:44:35.000Z</time>
        <extensions>
          <ns3:TrackPointExtension>
            <ns3:atemp>25.0</ns3:atemp>
            <ns3:hr>110</ns3:hr>
          </ns3:TrackPointExtension>
        </extensions>
      </trkpt>
      <trkpt lat="55.916035138070583343505859375" lon="23.86866060085594654083251953125">
        <ele>71.8000030517578125</ele>
        <time>2026-07-25T09:44:43.000Z</time>
        <extensions>
          <ns3:TrackPointExtension>
            <ns3:atemp>25.0</ns3:atemp>
            <ns3:hr>109</ns3:hr>
          </ns3:TrackPointExtension>
        </extensions>
      </trkpt>
      <trkpt lat="55.9159568510949611663818359375" lon="23.86863042600452899932861328125">
        <ele>71.8000030517578125</ele>
        <time>2026-07-25T09:44:48.000Z</time>
        <extensions>
          <ns3:TrackPointExtension>
            <ns3:atemp>25.0</ns3:atemp>
            <ns3:hr>109</ns3:hr>
          </ns3:TrackPointExtension>
        </extensions>
      </trkpt>
      <trkpt lat="55.91591066680848598480224609375" lon="23.86860989034175872802734375">
        <ele>71.8000030517578125</ele>
        <time>2026-07-25T09:44:51.000Z</time>
        <extensions>
          <ns3:TrackPointExtension>
            <ns3:atemp>25.0</ns3:atemp>
            <ns3:hr>110</ns3:hr>
          </ns3:TrackPointExtension>
        </extensions>
      </trkpt>
      <trkpt lat="55.9157945774495601654052734375" lon="23.8685475289821624755859375">
        <ele>71.8000030517578125</ele>
        <time>2026-07-25T09:44:59.000Z</time>
        <extensions>
          <ns3:TrackPointExtension>
            <ns3:atemp>25.0</ns3:atemp>
            <ns3:hr>111</ns3:hr>
          </ns3:TrackPointExtension>
        </extensions>
      </trkpt>
      <trkpt lat="55.915701873600482940673828125" lon="23.8684849999845027923583984375">
        <ele>71.8000030517578125</ele>
        <time>2026-07-25T09:45:06.000Z</time>
        <extensions>
          <ns3:TrackPointExtension>
            <ns3:atemp>25.0</ns3:atemp>
            <ns3:hr>110</ns3:hr>
          </ns3:TrackPointExtension>
        </extensions>
      </trkpt>
      <trkpt lat="55.9156245924532413482666015625" lon="23.8683579303324222564697265625">
        <ele>71.8000030517578125</ele>
        <time>2026-07-25T09:45:14.000Z</time>
        <extensions>
          <ns3:TrackPointExtension>
            <ns3:atemp>25.0</ns3:atemp>
            <ns3:hr>110</ns3:hr>
          </ns3:TrackPointExtension>
        </extensions>
      </trkpt>
      <trkpt lat="55.915559716522693634033203125" lon="23.86818685568869113922119140625">
        <ele>72</ele>
        <time>2026-07-25T09:45:23.000Z</time>
        <extensions>
          <ns3:TrackPointExtension>
            <ns3:atemp>25.0</ns3:atemp>
            <ns3:hr>111</ns3:hr>
          </ns3:TrackPointExtension>
        </extensions>
      </trkpt>
      <trkpt lat="55.91545988805592060089111328125" lon="23.86811443604528903961181640625">
        <ele>72.1999969482421875</ele>
        <time>2026-07-25T09:45:31.000Z</time>
        <extensions>
          <ns3:TrackPointExtension>
            <ns3:atemp>25.0</ns3:atemp>
            <ns3:hr>109</ns3:hr>
          </ns3:TrackPointExtension>
        </extensions>
      </trkpt>
      <trkpt lat="55.91535293497145175933837890625" lon="23.86801519431173801422119140625">
        <ele>72.1999969482421875</ele>
        <time>2026-07-25T09:45:40.000Z</time>
        <extensions>
          <ns3:TrackPointExtension>
            <ns3:atemp>25.0</ns3:atemp>
            <ns3:hr>109</ns3:hr>
          </ns3:TrackPointExtension>
        </extensions>
      </trkpt>
      <trkpt lat="55.91533566825091838836669921875" lon="23.8679425232112407684326171875">
        <ele>71.59999847412109375</ele>
        <time>2026-07-25T09:45:44.000Z</time>
        <extensions>
          <ns3:TrackPointExtension>
            <ns3:atemp>25.0</ns3:atemp>
            <ns3:hr>110</ns3:hr>
          </ns3:TrackPointExtension>
        </extensions>
      </trkpt>
      <trkpt lat="55.91533063910901546478271484375" lon="23.86791913770139217376708984375">
        <ele>71.59999847412109375</ele>
        <time>2026-07-25T09:45:49.000Z</time>
        <extensions>
          <ns3:TrackPointExtension>
            <ns3:atemp>25.0</ns3:atemp>
            <ns3:hr>110</ns3:hr>
          </ns3:TrackPointExtension>
        </extensions>
      </trkpt>
      <trkpt lat="55.9153050743043422698974609375" lon="23.86782408691942691802978515625">
        <ele>71.59999847412109375</ele>
        <time>2026-07-25T09:45:55.000Z</time>
        <extensions>
          <ns3:TrackPointExtension>
            <ns3:atemp>25.0</ns3:atemp>
            <ns3:hr>111</ns3:hr>
          </ns3:TrackPointExtension>
        </extensions>
      </trkpt>
      <trkpt lat="55.915275402367115020751953125" lon="23.86767254211008548736572265625">
        <ele>71</ele>
        <time>2026-07-25T09:46:01.000Z</time>
        <extensions>
          <ns3:TrackPointExtension>
            <ns3:atemp>25.0</ns3:atemp>
            <ns3:hr>111</ns3:hr>
          </ns3:TrackPointExtension>
        </extensions>
      </trkpt>
      <trkpt lat="55.9152728877961635589599609375" lon="23.867628872394561767578125">
        <ele>71</ele>
        <time>2026-07-25T09:46:03.000Z</time>
        <extensions>
          <ns3:TrackPointExtension>
            <ns3:atemp>25.0</ns3:atemp>
            <ns3:hr>108</ns3:hr>
          </ns3:TrackPointExtension>
        </extensions>
      </trkpt>
      <trkpt lat="55.91526123695075511932373046875" lon="23.8675036467611789703369140625">
        <ele>71.59999847412109375</ele>
        <time>2026-07-25T09:46:09.000Z</time>
        <extensions>
          <ns3:TrackPointExtension>
            <ns3:atemp>25.0</ns3:atemp>
            <ns3:hr>107</ns3:hr>
          </ns3:TrackPointExtension>
        </extensions>
      </trkpt>
      <trkpt lat="55.9152145497500896453857421875" lon="23.86727683246135711669921875">
        <ele>71.8000030517578125</ele>
        <time>2026-07-25T09:46:18.000Z</time>
        <extensions>
          <ns3:TrackPointExtension>
            <ns3:atemp>25.0</ns3:atemp>
            <ns3:hr>110</ns3:hr>
          </ns3:TrackPointExtension>
        </extensions>
      </trkpt>
      <trkpt lat="55.91522066853940486907958984375" lon="23.8672464899718761444091796875">
        <ele>71.8000030517578125</ele>
        <time>2026-07-25T09:46:20.000Z</time>
        <extensions>
          <ns3:TrackPointExtension>
            <ns3:atemp>25.0</ns3:atemp>
            <ns3:hr>114</ns3:hr>
          </ns3:TrackPointExtension>
        </extensions>
      </trkpt>
      <trkpt lat="55.91522519476711750030517578125" lon="23.86723534204065799713134765625">
        <ele>71.8000030517578125</ele>
        <time>2026-07-25T09:46:21.000Z</time>
        <extensions>
          <ns3:TrackPointExtension>
            <ns3:atemp>25.0</ns3:atemp>
            <ns3:hr>116</ns3:hr>
          </ns3:TrackPointExtension>
        </extensions>
      </trkpt>
      <trkpt lat="55.91524464078247547149658203125" lon="23.86721706949174404144287109375">
        <ele>71.59999847412109375</ele>
        <time>2026-07-25T09:46:24.000Z</time>
        <extensions>
          <ns3:TrackPointExtension>
            <ns3:atemp>25.0</ns3:atemp>
            <ns3:hr>113</ns3:hr>
          </ns3:TrackPointExtension>
        </extensions>
      </trkpt>
      <trkpt lat="55.91523776762187480926513671875" lon="23.86721220798790454864501953125">
        <ele>71.8000030517578125</ele>
        <time>2026-07-25T09:46:27.000Z</time>
        <extensions>
          <ns3:TrackPointExtension>
            <ns3:atemp>25.0</ns3:atemp>
            <ns3:hr>113</ns3:hr>
          </ns3:TrackPointExtension>
        </extensions>
      </trkpt>
      <trkpt lat="55.91524329967796802520751953125" lon="23.8672156445682048797607421875">
        <ele>72</ele>
        <time>2026-07-25T09:46:30.000Z</time>
        <extensions>
          <ns3:TrackPointExtension>
            <ns3:atemp>25.0</ns3:atemp>
            <ns3:hr>113</ns3:hr>
          </ns3:TrackPointExtension>
        </extensions>
      </trkpt>
      <trkpt lat="55.9152225963771343231201171875" lon="23.8672599010169506072998046875">
        <ele>72</ele>
        <time>2026-07-25T09:46:38.000Z</time>
        <extensions>
          <ns3:TrackPointExtension>
            <ns3:atemp>25.0</ns3:atemp>
            <ns3:hr>112</ns3:hr>
          </ns3:TrackPointExtension>
        </extensions>
      </trkpt>
      <trkpt lat="55.91518613509833812713623046875" lon="23.86732385493814945220947265625">
        <ele>71.59999847412109375</ele>
        <time>2026-07-25T09:46:45.000Z</time>
        <extensions>
          <ns3:TrackPointExtension>
            <ns3:atemp>25.0</ns3:atemp>
            <ns3:hr>112</ns3:hr>
          </ns3:TrackPointExtension>
        </extensions>
      </trkpt>
      <trkpt lat="55.91510114260017871856689453125" lon="23.86743349023163318634033203125">
        <ele>71.1999969482421875</ele>
        <time>2026-07-25T09:46:53.000Z</time>
        <extensions>
          <ns3:TrackPointExtension>
            <ns3:atemp>25.0</ns3:atemp>
            <ns3:hr>113</ns3:hr>
          </ns3:TrackPointExtension>
        </extensions>
      </trkpt>
      <trkpt lat="55.91504498384892940521240234375" lon="23.86753474362194538116455078125">
        <ele>70.59999847412109375</ele>
        <time>2026-07-25T09:47:00.000Z</time>
        <extensions>
          <ns3:TrackPointExtension>
            <ns3:atemp>25.0</ns3:atemp>
            <ns3:hr>113</ns3:hr>
          </ns3:TrackPointExtension>
        </extensions>
      </trkpt>
      <trkpt lat="55.91494389809668064117431640625" lon="23.8676075823605060577392578125">
        <ele>70</ele>
        <time>2026-07-25T09:47:07.000Z</time>
        <extensions>
          <ns3:TrackPointExtension>
            <ns3:atemp>25.0</ns3:atemp>
            <ns3:hr>113</ns3:hr>
          </ns3:TrackPointExtension>
        </extensions>
      </trkpt>
      <trkpt lat="55.914834178984165191650390625" lon="23.86768612079322338104248046875">
        <ele>70</ele>
        <time>2026-07-25T09:47:15.000Z</time>
        <extensions>
          <ns3:TrackPointExtension>
            <ns3:atemp>25.0</ns3:atemp>
            <ns3:hr>112</ns3:hr>
          </ns3:TrackPointExtension>
        </extensions>
      </trkpt>
      <trkpt lat="55.914725549519062042236328125" lon="23.867673464119434356689453125">
        <ele>70.1999969482421875</ele>
        <time>2026-07-25T09:47:23.000Z</time>
        <extensions>
          <ns3:TrackPointExtension>
            <ns3:atemp>25.0</ns3:atemp>
            <ns3:hr>111</ns3:hr>
          </ns3:TrackPointExtension>
        </extensions>
      </trkpt>
      <trkpt lat="55.91462991200387477874755859375" lon="23.86765301227569580078125">
        <ele>70.1999969482421875</ele>
        <time>2026-07-25T09:47:30.000Z</time>
        <extensions>
          <ns3:TrackPointExtension>
            <ns3:atemp>25.0</ns3:atemp>
            <ns3:hr>111</ns3:hr>
          </ns3:TrackPointExtension>
        </extensions>
      </trkpt>
      <trkpt lat="55.9145198576152324676513671875" lon="23.86760967783629894256591796875">
        <ele>70.1999969482421875</ele>
        <time>2026-07-25T09:47:39.000Z</time>
        <extensions>
          <ns3:TrackPointExtension>
            <ns3:atemp>25.0</ns3:atemp>
            <ns3:hr>112</ns3:hr>
          </ns3:TrackPointExtension>
        </extensions>
      </trkpt>
      <trkpt lat="55.91440795920789241790771484375" lon="23.867643289268016815185546875">
        <ele>70.1999969482421875</ele>
        <time>2026-07-25T09:47:46.000Z</time>
        <extensions>
          <ns3:TrackPointExtension>
            <ns3:atemp>25.0</ns3:atemp>
            <ns3:hr>112</ns3:hr>
          </ns3:TrackPointExtension>
        </extensions>
      </trkpt>
      <trkpt lat="55.91428005136549472808837890625" lon="23.86759760789573192596435546875">
        <ele>70.40000152587890625</ele>
        <time>2026-07-25T09:47:55.000Z</time>
        <extensions>
          <ns3:TrackPointExtension>
            <ns3:atemp>25.0</ns3:atemp>
            <ns3:hr>112</ns3:hr>
          </ns3:TrackPointExtension>
        </extensions>
      </trkpt>
      <trkpt lat="55.91423395089805126190185546875" lon="23.8675924949347972869873046875">
        <ele>70.40000152587890625</ele>
        <time>2026-07-25T09:48:00.000Z</time>
        <extensions>
          <ns3:TrackPointExtension>
            <ns3:atemp>25.0</ns3:atemp>
            <ns3:hr>113</ns3:hr>
          </ns3:TrackPointExtension>
        </extensions>
      </trkpt>
      <trkpt lat="55.91418701224029064178466796875" lon="23.86755988933145999908447265625">
        <ele>70.1999969482421875</ele>
        <time>2026-07-25T09:48:06.000Z</time>
        <extensions>
          <ns3:TrackPointExtension>
            <ns3:atemp>25.0</ns3:atemp>
            <ns3:hr>112</ns3:hr>
          </ns3:TrackPointExtension>
        </extensions>
      </trkpt>
      <trkpt lat="55.9140836633741855621337890625" lon="23.86741605587303638458251953125">
        <ele>70.40000152587890625</ele>
        <time>2026-07-25T09:48:14.000Z</time>
        <extensions>
          <ns3:TrackPointExtension>
            <ns3:atemp>25.0</ns3:atemp>
            <ns3:hr>113</ns3:hr>
          </ns3:TrackPointExtension>
        </extensions>
      </trkpt>
      <trkpt lat="55.91405055485665798187255859375" lon="23.867255039513111114501953125">
        <ele>70.1999969482421875</ele>
        <time>2026-07-25T09:48:21.000Z</time>
        <extensions>
          <ns3:TrackPointExtension>
            <ns3:atemp>25.0</ns3:atemp>
            <ns3:hr>113</ns3:hr>
          </ns3:TrackPointExtension>
        </extensions>
      </trkpt>
      <trkpt lat="55.91403077356517314910888671875" lon="23.86715873144567012786865234375">
        <ele>69.59999847412109375</ele>
        <time>2026-07-25T09:48:25.000Z</time>
        <extensions>
          <ns3:TrackPointExtension>
            <ns3:atemp>25.0</ns3:atemp>
            <ns3:hr>113</ns3:hr>
          </ns3:TrackPointExtension>
        </extensions>
      </trkpt>
      <trkpt lat="55.91401099227368831634521484375" lon="23.8669916801154613494873046875">
        <ele>69.59999847412109375</ele>
        <time>2026-07-25T09:48:32.000Z</time>
        <extensions>
          <ns3:TrackPointExtension>
            <ns3:atemp>25.0</ns3:atemp>
            <ns3:hr>113</ns3:hr>
          </ns3:TrackPointExtension>
        </extensions>
      </trkpt>
      <trkpt lat="55.91395382769405841827392578125" lon="23.8667724095284938812255859375">
        <ele>70</ele>
        <time>2026-07-25T09:48:41.000Z</time>
        <extensions>
          <ns3:TrackPointExtension>
            <ns3:atemp>25.0</ns3:atemp>
            <ns3:hr>114</ns3:hr>
          </ns3:TrackPointExtension>
        </extensions>
      </trkpt>
      <trkpt lat="55.91386682353913784027099609375" lon="23.86666185222566127777099609375">
        <ele>70</ele>
        <time>2026-07-25T09:48:49.000Z</time>
        <extensions>
          <ns3:TrackPointExtension>
            <ns3:atemp>25.0</ns3:atemp>
            <ns3:hr>113</ns3:hr>
          </ns3:TrackPointExtension>
        </extensions>
      </trkpt>
      <trkpt lat="55.9137301146984100341796875" lon="23.86649630963802337646484375">
        <ele>70.1999969482421875</ele>
        <time>2026-07-25T09:48:59.000Z</time>
        <extensions>
          <ns3:TrackPointExtension>
            <ns3:atemp>25.0</ns3:atemp>
            <ns3:hr>113</ns3:hr>
          </ns3:TrackPointExtension>
        </extensions>
      </trkpt>
      <trkpt lat="55.91368108056485652923583984375" lon="23.86635859496891498565673828125">
        <ele>70.1999969482421875</ele>
        <time>2026-07-25T09:49:05.000Z</time>
        <extensions>
          <ns3:TrackPointExtension>
            <ns3:atemp>25.0</ns3:atemp>
            <ns3:hr>114</ns3:hr>
          </ns3:TrackPointExtension>
        </extensions>
      </trkpt>
      <trkpt lat="55.9136186353862285614013671875" lon="23.8661920465528964996337890625">
        <ele>70.1999969482421875</ele>
        <time>2026-07-25T09:49:14.000Z</time>
        <extensions>
          <ns3:TrackPointExtension>
            <ns3:atemp>25.0</ns3:atemp>
            <ns3:hr>114</ns3:hr>
          </ns3:TrackPointExtension>
        </extensions>
      </trkpt>
      <trkpt lat="55.91352802701294422149658203125" lon="23.8660679943859577178955078125">
        <ele>70.40000152587890625</ele>
        <time>2026-07-25T09:49:22.000Z</time>
        <extensions>
          <ns3:TrackPointExtension>
            <ns3:atemp>25.0</ns3:atemp>
            <ns3:hr>115</ns3:hr>
          </ns3:TrackPointExtension>
        </extensions>
      </trkpt>
      <trkpt lat="55.91341906227171421051025390625" lon="23.86596255004405975341796875">
        <ele>70.59999847412109375</ele>
        <time>2026-07-25T09:49:30.000Z</time>
        <extensions>
          <ns3:TrackPointExtension>
            <ns3:atemp>25.0</ns3:atemp>
            <ns3:hr>114</ns3:hr>
          </ns3:TrackPointExtension>
        </extensions>
      </trkpt>
      <trkpt lat="55.9133752249181270599365234375" lon="23.8659110851585865020751953125">
        <ele>70.59999847412109375</ele>
        <time>2026-07-25T09:49:33.000Z</time>
        <extensions>
          <ns3:TrackPointExtension>
            <ns3:atemp>25.0</ns3:atemp>
            <ns3:hr>114</ns3:hr>
          </ns3:TrackPointExtension>
        </extensions>
      </trkpt>
      <trkpt lat="55.913332812488079071044921875" lon="23.86586154811084270477294921875">
        <ele>70.8000030517578125</ele>
        <time>2026-07-25T09:49:37.000Z</time>
        <extensions>
          <ns3:TrackPointExtension>
            <ns3:atemp>25.0</ns3:atemp>
            <ns3:hr>114</ns3:hr>
          </ns3:TrackPointExtension>
        </extensions>
      </trkpt>
      <trkpt lat="55.9132692776620388031005859375" lon="23.86579013429582118988037109375">
        <ele>70.1999969482421875</ele>
        <time>2026-07-25T09:49:43.000Z</time>
        <extensions>
          <ns3:TrackPointExtension>
            <ns3:atemp>25.0</ns3:atemp>
            <ns3:hr>115</ns3:hr>
          </ns3:TrackPointExtension>
        </extensions>
      </trkpt>
      <trkpt lat="55.91320331208407878875732421875" lon="23.86564680375158786773681640625">
        <ele>70</ele>
        <time>2026-07-25T09:49:50.000Z</time>
        <extensions>
          <ns3:TrackPointExtension>
            <ns3:atemp>25.0</ns3:atemp>
            <ns3:hr>115</ns3:hr>
          </ns3:TrackPointExtension>
        </extensions>
      </trkpt>
      <trkpt lat="55.913116224110126495361328125" lon="23.86544161476194858551025390625">
        <ele>70.8000030517578125</ele>
        <time>2026-07-25T09:50:00.000Z</time>
        <extensions>
          <ns3:TrackPointExtension>
            <ns3:atemp>25.0</ns3:atemp>
            <ns3:hr>116</ns3:hr>
          </ns3:TrackPointExtension>
        </extensions>
      </trkpt>
      <trkpt lat="55.91305889189243316650390625" lon="23.86532141827046871185302734375">
        <ele>71</ele>
        <time>2026-07-25T09:50:06.000Z</time>
        <extensions>
          <ns3:TrackPointExtension>
            <ns3:atemp>25.0</ns3:atemp>
            <ns3:hr>116</ns3:hr>
          </ns3:TrackPointExtension>
        </extensions>
      </trkpt>
      <trkpt lat="55.91300792992115020751953125" lon="23.8651563785970211029052734375">
        <ele>70.59999847412109375</ele>
        <time>2026-07-25T09:50:13.000Z</time>
        <extensions>
          <ns3:TrackPointExtension>
            <ns3:atemp>25.0</ns3:atemp>
            <ns3:hr>116</ns3:hr>
          </ns3:TrackPointExtension>
        </extensions>
      </trkpt>
      <trkpt lat="55.91295168735086917877197265625" lon="23.8649937696754932403564453125">
        <ele>70.59999847412109375</ele>
        <time>2026-07-25T09:50:21.000Z</time>
        <extensions>
          <ns3:TrackPointExtension>
            <ns3:atemp>25.0</ns3:atemp>
            <ns3:hr>113</ns3:hr>
          </ns3:TrackPointExtension>
        </extensions>
      </trkpt>
      <trkpt lat="55.91293324716389179229736328125" lon="23.86487625539302825927734375">
        <ele>70.40000152587890625</ele>
        <time>2026-07-25T09:50:27.000Z</time>
        <extensions>
          <ns3:TrackPointExtension>
            <ns3:atemp>25.0</ns3:atemp>
            <ns3:hr>113</ns3:hr>
          </ns3:TrackPointExtension>
        </extensions>
      </trkpt>
      <trkpt lat="55.91294012032449245452880859375" lon="23.86481531895697116851806640625">
        <ele>70.8000030517578125</ele>
        <time>2026-07-25T09:50:34.000Z</time>
        <extensions>
          <ns3:TrackPointExtension>
            <ns3:atemp>25.0</ns3:atemp>
            <ns3:hr>113</ns3:hr>
          </ns3:TrackPointExtension>
        </extensions>
      </trkpt>
      <trkpt lat="55.9129323251545429229736328125" lon="23.8647932745516300201416015625">
        <ele>71</ele>
        <time>2026-07-25T09:50:41.000Z</time>
        <extensions>
          <ns3:TrackPointExtension>
            <ns3:atemp>25.0</ns3:atemp>
            <ns3:hr>113</ns3:hr>
          </ns3:TrackPointExtension>
        </extensions>
      </trkpt>
      <trkpt lat="55.9129353426396846771240234375" lon="23.86466410942375659942626953125">
        <ele>70.1999969482421875</ele>
        <time>2026-07-25T09:50:46.000Z</time>
        <extensions>
          <ns3:TrackPointExtension>
            <ns3:atemp>25.0</ns3:atemp>
            <ns3:hr>115</ns3:hr>
          </ns3:TrackPointExtension>
        </extensions>
      </trkpt>
      <trkpt lat="55.912929140031337738037109375" lon="23.86446797288954257965087890625">
        <ele>70.1999969482421875</ele>
        <time>2026-07-25T09:50:53.000Z</time>
        <extensions>
          <ns3:TrackPointExtension>
            <ns3:atemp>25.0</ns3:atemp>
            <ns3:hr>112</ns3:hr>
          </ns3:TrackPointExtension>
        </extensions>
      </trkpt>
      <trkpt lat="55.91291262768208980560302734375" lon="23.8644251413643360137939453125">
        <ele>70.1999969482421875</ele>
        <time>2026-07-25T09:50:55.000Z</time>
        <extensions>
          <ns3:TrackPointExtension>
            <ns3:atemp>25.0</ns3:atemp>
            <ns3:hr>111</ns3:hr>
          </ns3:TrackPointExtension>
        </extensions>
      </trkpt>
      <trkpt lat="55.91287725605070590972900390625" lon="23.86423361487686634063720703125">
        <ele>69.8000030517578125</ele>
        <time>2026-07-25T09:51:03.000Z</time>
        <extensions>
          <ns3:TrackPointExtension>
            <ns3:atemp>25.0</ns3:atemp>
            <ns3:hr>111</ns3:hr>
          </ns3:TrackPointExtension>
        </extensions>
      </trkpt>
      <trkpt lat="55.91286049224436283111572265625" lon="23.864059858024120330810546875">
        <ele>70.40000152587890625</ele>
        <time>2026-07-25T09:51:11.000Z</time>
        <extensions>
          <ns3:TrackPointExtension>
            <ns3:atemp>25.0</ns3:atemp>
            <ns3:hr>110</ns3:hr>
          </ns3:TrackPointExtension>
        </extensions>
      </trkpt>
      <trkpt lat="55.91288815252482891082763671875" lon="23.863967992365360260009765625">
        <ele>70.40000152587890625</ele>
        <time>2026-07-25T09:51:18.000Z</time>
        <extensions>
          <ns3:TrackPointExtension>
            <ns3:atemp>25.0</ns3:atemp>
            <ns3:hr>109</ns3:hr>
          </ns3:TrackPointExtension>
        </extensions>
      </trkpt>
      <trkpt lat="55.9129138849675655364990234375" lon="23.8639084808528423309326171875">
        <ele>70</ele>
        <time>2026-07-25T09:51:23.000Z</time>
        <extensions>
          <ns3:TrackPointExtension>
            <ns3:atemp>25.0</ns3:atemp>
            <ns3:hr>107</ns3:hr>
          </ns3:TrackPointExtension>
        </extensions>
      </trkpt>
      <trkpt lat="55.9129286371171474456787109375" lon="23.8638719357550144195556640625">
        <ele>69.8000030517578125</ele>
        <time>2026-07-25T09:51:29.000Z</time>
        <extensions>
          <ns3:TrackPointExtension>
            <ns3:atemp>25.0</ns3:atemp>
            <ns3:hr>108</ns3:hr>
          </ns3:TrackPointExtension>
        </extensions>
      </trkpt>
      <trkpt lat="55.91293006204068660736083984375" lon="23.863868080079555511474609375">
        <ele>69.8000030517578125</ele>
        <time>2026-07-25T09:51:32.000Z</time>
        <extensions>
          <ns3:TrackPointExtension>
            <ns3:atemp>26.0</ns3:atemp>
            <ns3:hr>111</ns3:hr>
          </ns3:TrackPointExtension>
        </extensions>
      </trkpt>
      <trkpt lat="55.912928469479084014892578125" lon="23.8638756237924098968505859375">
        <ele>69.59999847412109375</ele>
        <time>2026-07-25T09:51:33.000Z</time>
        <extensions>
          <ns3:TrackPointExtension>
            <ns3:atemp>26.0</ns3:atemp>
            <ns3:hr>113</ns3:hr>
          </ns3:TrackPointExtension>
        </extensions>
      </trkpt>
      <trkpt lat="55.91289234347641468048095703125" lon="23.8639483787119388580322265625">
        <ele>69.40000152587890625</ele>
        <time>2026-07-25T09:51:37.000Z</time>
        <extensions>
          <ns3:TrackPointExtension>
            <ns3:atemp>26.0</ns3:atemp>
            <ns3:hr>114</ns3:hr>
          </ns3:TrackPointExtension>
        </extensions>
      </trkpt>
      <trkpt lat="55.91284926049411296844482421875" lon="23.864064551889896392822265625">
        <ele>69.8000030517578125</ele>
        <time>2026-07-25T09:51:43.000Z</time>
        <extensions>
          <ns3:TrackPointExtension>
            <ns3:atemp>26.0</ns3:atemp>
            <ns3:hr>114</ns3:hr>
          </ns3:TrackPointExtension>
        </extensions>
      </trkpt>
      <trkpt lat="55.9127495996654033660888671875" lon="23.86409447528421878814697265625">
        <ele>70.59999847412109375</ele>
        <time>2026-07-25T09:51:50.000Z</time>
        <extensions>
          <ns3:TrackPointExtension>
            <ns3:atemp>26.0</ns3:atemp>
            <ns3:hr>114</ns3:hr>
          </ns3:TrackPointExtension>
        </extensions>
      </trkpt>
      <trkpt lat="55.9127375297248363494873046875" lon="23.86409196071326732635498046875">
        <ele>70.59999847412109375</ele>
        <time>2026-07-25T09:51:51.000Z</time>
        <extensions>
          <ns3:TrackPointExtension>
            <ns3:atemp>26.0</ns3:atemp>
            <ns3:hr>115</ns3:hr>
          </ns3:TrackPointExtension>
        </extensions>
      </trkpt>
      <trkpt lat="55.91265765018761157989501953125" lon="23.86405885219573974609375">
        <ele>70.59999847412109375</ele>
        <time>2026-07-25T09:51:57.000Z</time>
        <extensions>
          <ns3:TrackPointExtension>
            <ns3:atemp>26.0</ns3:atemp>
            <ns3:hr>115</ns3:hr>
          </ns3:TrackPointExtension>
        </extensions>
      </trkpt>
      <trkpt lat="55.9125987254083156585693359375" lon="23.8640566729009151458740234375">
        <ele>70.8000030517578125</ele>
        <time>2026-07-25T09:52:02.000Z</time>
        <extensions>
          <ns3:TrackPointExtension>
            <ns3:atemp>26.0</ns3:atemp>
            <ns3:hr>118</ns3:hr>
          </ns3:TrackPointExtension>
        </extensions>
      </trkpt>
      <trkpt lat="55.9125521220266819000244140625" lon="23.864075951278209686279296875">
        <ele>70.8000030517578125</ele>
        <time>2026-07-25T09:52:06.000Z</time>
        <extensions>
          <ns3:TrackPointExtension>
            <ns3:atemp>26.0</ns3:atemp>
            <ns3:hr>119</ns3:hr>
          </ns3:TrackPointExtension>
        </extensions>
      </trkpt>
      <trkpt lat="55.9124426543712615966796875" lon="23.864107467234134674072265625">
        <ele>71</ele>
        <time>2026-07-25T09:52:13.000Z</time>
        <extensions>
          <ns3:TrackPointExtension>
            <ns3:atemp>26.0</ns3:atemp>
            <ns3:hr>120</ns3:hr>
          </ns3:TrackPointExtension>
        </extensions>
      </trkpt>
      <trkpt lat="55.912403427064418792724609375" lon="23.864116854965686798095703125">
        <ele>71</ele>
        <time>2026-07-25T09:52:16.000Z</time>
        <extensions>
          <ns3:TrackPointExtension>
            <ns3:atemp>26.0</ns3:atemp>
            <ns3:hr>121</ns3:hr>
          </ns3:TrackPointExtension>
        </extensions>
      </trkpt>
      <trkpt lat="55.91228901408612728118896484375" lon="23.8642077147960662841796875">
        <ele>71.40000152587890625</ele>
        <time>2026-07-25T09:52:25.000Z</time>
        <extensions>
          <ns3:TrackPointExtension>
            <ns3:atemp>26.0</ns3:atemp>
            <ns3:hr>122</ns3:hr>
          </ns3:TrackPointExtension>
        </extensions>
      </trkpt>
      <trkpt lat="55.91218407265841960906982421875" lon="23.86426462791860103607177734375">
        <ele>71.59999847412109375</ele>
        <time>2026-07-25T09:52:33.000Z</time>
        <extensions>
          <ns3:TrackPointExtension>
            <ns3:atemp>26.0</ns3:atemp>
            <ns3:hr>122</ns3:hr>
          </ns3:TrackPointExtension>
        </extensions>
      </trkpt>
      <trkpt lat="55.91211098246276378631591796875" lon="23.864235542714595794677734375">
        <ele>71.40000152587890625</ele>
        <time>2026-07-25T09:52:39.000Z</time>
        <extensions>
          <ns3:TrackPointExtension>
            <ns3:atemp>26.0</ns3:atemp>
            <ns3:hr>122</ns3:hr>
          </ns3:TrackPointExtension>
        </extensions>
      </trkpt>
      <trkpt lat="55.91202766634523868560791015625" lon="23.8642373867332935333251953125">
        <ele>71.40000152587890625</ele>
        <time>2026-07-25T09:52:47.000Z</time>
        <extensions>
          <ns3:TrackPointExtension>
            <ns3:atemp>26.0</ns3:atemp>
            <ns3:hr>121</ns3:hr>
          </ns3:TrackPointExtension>
        </extensions>
      </trkpt>
      <trkpt lat="55.9119674004614353179931640625" lon="23.86424300260841846466064453125">
        <ele>71</ele>
        <time>2026-07-25T09:52:54.000Z</time>
        <extensions>
          <ns3:TrackPointExtension>
            <ns3:atemp>26.0</ns3:atemp>
            <ns3:hr>120</ns3:hr>
          </ns3:TrackPointExtension>
        </extensions>
      </trkpt>
      <trkpt lat="55.911907218396663665771484375" lon="23.86425524018704891204833984375">
        <ele>70.8000030517578125</ele>
        <time>2026-07-25T09:53:01.000Z</time>
        <extensions>
          <ns3:TrackPointExtension>
            <ns3:atemp>26.0</ns3:atemp>
            <ns3:hr>117</ns3:hr>
          </ns3:TrackPointExtension>
        </extensions>
      </trkpt>
      <trkpt lat="55.911796577274799346923828125" lon="23.8642464391887187957763671875">
        <ele>70.8000030517578125</ele>
        <time>2026-07-25T09:53:09.000Z</time>
        <extensions>
          <ns3:TrackPointExtension>
            <ns3:atemp>26.0</ns3:atemp>
            <ns3:hr>115</ns3:hr>
          </ns3:TrackPointExtension>
        </extensions>
      </trkpt>
      <trkpt lat="55.91170781292021274566650390625" lon="23.86426580138504505157470703125">
        <ele>70.40000152587890625</ele>
        <time>2026-07-25T09:53:16.000Z</time>
        <extensions>
          <ns3:TrackPointExtension>
            <ns3:atemp>26.0</ns3:atemp>
            <ns3:hr>113</ns3:hr>
          </ns3:TrackPointExtension>
        </extensions>
      </trkpt>
      <trkpt lat="55.9115959145128726959228515625" lon="23.8642813079059123992919921875">
        <ele>70</ele>
        <time>2026-07-25T09:53:25.000Z</time>
        <extensions>
          <ns3:TrackPointExtension>
            <ns3:atemp>26.0</ns3:atemp>
            <ns3:hr>112</ns3:hr>
          </ns3:TrackPointExtension>
        </extensions>
      </trkpt>
      <trkpt lat="55.91148166917264461517333984375" lon="23.8642856664955615997314453125">
        <ele>70.40000152587890625</ele>
        <time>2026-07-25T09:53:32.000Z</time>
        <extensions>
          <ns3:TrackPointExtension>
            <ns3:atemp>26.0</ns3:atemp>
            <ns3:hr>113</ns3:hr>
          </ns3:TrackPointExtension>
        </extensions>
      </trkpt>
      <trkpt lat="55.9113769792020320892333984375" lon="23.86425842531025409698486328125">
        <ele>70.59999847412109375</ele>
        <time>2026-07-25T09:53:40.000Z</time>
        <extensions>
          <ns3:TrackPointExtension>
            <ns3:atemp>26.0</ns3:atemp>
            <ns3:hr>113</ns3:hr>
          </ns3:TrackPointExtension>
        </extensions>
      </trkpt>
      <trkpt lat="55.91127396561205387115478515625" lon="23.8642461039125919342041015625">
        <ele>70.59999847412109375</ele>
        <time>2026-07-25T09:53:48.000Z</time>
        <extensions>
          <ns3:TrackPointExtension>
            <ns3:atemp>26.0</ns3:atemp>
            <ns3:hr>115</ns3:hr>
          </ns3:TrackPointExtension>
        </extensions>
      </trkpt>
      <trkpt lat="55.9111677668988704681396484375" lon="23.86426429264247417449951171875">
        <ele>70.1999969482421875</ele>
        <time>2026-07-25T09:53:55.000Z</time>
        <extensions>
          <ns3:TrackPointExtension>
            <ns3:atemp>26.0</ns3:atemp>
            <ns3:hr>116</ns3:hr>
          </ns3:TrackPointExtension>
        </extensions>
      </trkpt>
      <trkpt lat="55.91105033643543720245361328125" lon="23.86428843252360820770263671875">
        <ele>69.8000030517578125</ele>
        <time>2026-07-25T09:54:02.000Z</time>
        <extensions>
          <ns3:TrackPointExtension>
            <ns3:atemp>26.0</ns3:atemp>
            <ns3:hr>116</ns3:hr>
          </ns3:TrackPointExtension>
        </extensions>
      </trkpt>
      <trkpt lat="55.91098445467650890350341796875" lon="23.86430092155933380126953125">
        <ele>69.59999847412109375</ele>
        <time>2026-07-25T09:54:07.000Z</time>
        <extensions>
          <ns3:TrackPointExtension>
            <ns3:atemp>26.0</ns3:atemp>
            <ns3:hr>117</ns3:hr>
          </ns3:TrackPointExtension>
        </extensions>
      </trkpt>
      <trkpt lat="55.91096014715731143951416015625" lon="23.86430854909121990203857421875">
        <ele>69.40000152587890625</ele>
        <time>2026-07-25T09:54:09.000Z</time>
        <extensions>
          <ns3:TrackPointExtension>
            <ns3:atemp>26.0</ns3:atemp>
            <ns3:hr>116</ns3:hr>
          </ns3:TrackPointExtension>
        </extensions>
      </trkpt>
      <trkpt lat="55.9108896553516387939453125" lon="23.86435054242610931396484375">
        <ele>69.59999847412109375</ele>
        <time>2026-07-25T09:54:15.000Z</time>
        <extensions>
          <ns3:TrackPointExtension>
            <ns3:atemp>26.0</ns3:atemp>
            <ns3:hr>116</ns3:hr>
          </ns3:TrackPointExtension>
        </extensions>
      </trkpt>
      <trkpt lat="55.91075361706316471099853515625" lon="23.8643775321543216705322265625">
        <ele>69.40000152587890625</ele>
        <time>2026-07-25T09:54:23.000Z</time>
        <extensions>
          <ns3:TrackPointExtension>
            <ns3:atemp>27.0</ns3:atemp>
            <ns3:hr>115</ns3:hr>
          </ns3:TrackPointExtension>
        </extensions>
      </trkpt>
      <trkpt lat="55.91062503866851329803466796875" lon="23.86434945277869701385498046875">
        <ele>69.40000152587890625</ele>
        <time>2026-07-25T09:54:32.000Z</time>
        <extensions>
          <ns3:TrackPointExtension>
            <ns3:atemp>27.0</ns3:atemp>
            <ns3:hr>115</ns3:hr>
          </ns3:TrackPointExtension>
        </extensions>
      </trkpt>
      <trkpt lat="55.91055731289088726043701171875" lon="23.86435783468186855316162109375">
        <ele>69.8000030517578125</ele>
        <time>2026-07-25T09:54:38.000Z</time>
        <extensions>
          <ns3:TrackPointExtension>
            <ns3:atemp>27.0</ns3:atemp>
            <ns3:hr>113</ns3:hr>
          </ns3:TrackPointExtension>
        </extensions>
      </trkpt>
      <trkpt lat="55.910468213260173797607421875" lon="23.8644204474985599517822265625">
        <ele>70.1999969482421875</ele>
        <time>2026-07-25T09:54:45.000Z</time>
        <extensions>
          <ns3:TrackPointExtension>
            <ns3:atemp>27.0</ns3:atemp>
            <ns3:hr>114</ns3:hr>
          </ns3:TrackPointExtension>
        </extensions>
      </trkpt>
      <trkpt lat="55.91038648970425128936767578125" lon="23.8645605929195880889892578125">
        <ele>70</ele>
        <time>2026-07-25T09:54:52.000Z</time>
        <extensions>
          <ns3:TrackPointExtension>
            <ns3:atemp>27.0</ns3:atemp>
            <ns3:hr>115</ns3:hr>
          </ns3:TrackPointExtension>
        </extensions>
      </trkpt>
      <trkpt lat="55.91031591407954692840576171875" lon="23.864604346454143524169921875">
        <ele>69.59999847412109375</ele>
        <time>2026-07-25T09:54:59.000Z</time>
        <extensions>
          <ns3:TrackPointExtension>
            <ns3:atemp>27.0</ns3:atemp>
            <ns3:hr>117</ns3:hr>
          </ns3:TrackPointExtension>
        </extensions>
      </trkpt>
      <trkpt lat="55.91021549887955188751220703125" lon="23.86468020267784595489501953125">
        <ele>69.59999847412109375</ele>
        <time>2026-07-25T09:55:07.000Z</time>
        <extensions>
          <ns3:TrackPointExtension>
            <ns3:atemp>27.0</ns3:atemp>
            <ns3:hr>117</ns3:hr>
          </ns3:TrackPointExtension>
        </extensions>
      </trkpt>
      <trkpt lat="55.91011793352663516998291015625" lon="23.8647567294538021087646484375">
        <ele>69</ele>
        <time>2026-07-25T09:55:14.000Z</time>
        <extensions>
          <ns3:TrackPointExtension>
            <ns3:atemp>27.0</ns3:atemp>
            <ns3:hr>117</ns3:hr>
          </ns3:TrackPointExtension>
        </extensions>
      </trkpt>
      <trkpt lat="55.90999790467321872711181640625" lon="23.8647295720875263214111328125">
        <ele>69.40000152587890625</ele>
        <time>2026-07-25T09:55:21.000Z</time>
        <extensions>
          <ns3:TrackPointExtension>
            <ns3:atemp>27.0</ns3:atemp>
            <ns3:hr>116</ns3:hr>
          </ns3:TrackPointExtension>
        </extensions>
      </trkpt>
      <trkpt lat="55.909885503351688385009765625" lon="23.86471255682408809661865234375">
        <ele>69.59999847412109375</ele>
        <time>2026-07-25T09:55:29.000Z</time>
        <extensions>
          <ns3:TrackPointExtension>
            <ns3:atemp>27.0</ns3:atemp>
            <ns3:hr>116</ns3:hr>
          </ns3:TrackPointExtension>
        </extensions>
      </trkpt>
      <trkpt lat="55.90979506261646747589111328125" lon="23.8647614233195781707763671875">
        <ele>69.1999969482421875</ele>
        <time>2026-07-25T09:55:38.000Z</time>
        <extensions>
          <ns3:TrackPointExtension>
            <ns3:atemp>27.0</ns3:atemp>
            <ns3:hr>114</ns3:hr>
          </ns3:TrackPointExtension>
        </extensions>
      </trkpt>
      <trkpt lat="55.9096687473356723785400390625" lon="23.864882290363311767578125">
        <ele>69.40000152587890625</ele>
        <time>2026-07-25T09:55:46.000Z</time>
        <extensions>
          <ns3:TrackPointExtension>
            <ns3:atemp>27.0</ns3:atemp>
            <ns3:hr>115</ns3:hr>
          </ns3:TrackPointExtension>
        </extensions>
      </trkpt>
      <trkpt lat="55.9095847606658935546875" lon="23.864995278418064117431640625">
        <ele>69.40000152587890625</ele>
        <time>2026-07-25T09:55:54.000Z</time>
        <extensions>
          <ns3:TrackPointExtension>
            <ns3:atemp>27.0</ns3:atemp>
            <ns3:hr>116</ns3:hr>
          </ns3:TrackPointExtension>
        </extensions>
      </trkpt>
      <trkpt lat="55.90955299325287342071533203125" lon="23.86502671055495738983154296875">
        <ele>69.40000152587890625</ele>
        <time>2026-07-25T09:55:57.000Z</time>
        <extensions>
          <ns3:TrackPointExtension>
            <ns3:atemp>27.0</ns3:atemp>
            <ns3:hr>116</ns3:hr>
          </ns3:TrackPointExtension>
        </extensions>
      </trkpt>
      <trkpt lat="55.90945760719478130340576171875" lon="23.8650752417743206024169921875">
        <ele>69.1999969482421875</ele>
        <time>2026-07-25T09:56:03.000Z</time>
        <extensions>
          <ns3:TrackPointExtension>
            <ns3:atemp>27.0</ns3:atemp>
            <ns3:hr>117</ns3:hr>
          </ns3:TrackPointExtension>
        </extensions>
      </trkpt>
      <trkpt lat="55.90936574153602123260498046875" lon="23.86508722789585590362548828125">
        <ele>69.1999969482421875</ele>
        <time>2026-07-25T09:56:10.000Z</time>
        <extensions>
          <ns3:TrackPointExtension>
            <ns3:atemp>27.0</ns3:atemp>
            <ns3:hr>116</ns3:hr>
          </ns3:TrackPointExtension>
        </extensions>
      </trkpt>
      <trkpt lat="55.90923900716006755828857421875" lon="23.865141458809375762939453125">
        <ele>69.1999969482421875</ele>
        <time>2026-07-25T09:56:19.000Z</time>
        <extensions>
          <ns3:TrackPointExtension>
            <ns3:atemp>27.0</ns3:atemp>
            <ns3:hr>116</ns3:hr>
          </ns3:TrackPointExtension>
        </extensions>
      </trkpt>
      <trkpt lat="55.909170024096965789794921875" lon="23.86508571915328502655029296875">
        <ele>68.40000152587890625</ele>
        <time>2026-07-25T09:56:25.000Z</time>
        <extensions>
          <ns3:TrackPointExtension>
            <ns3:atemp>27.0</ns3:atemp>
            <ns3:hr>116</ns3:hr>
          </ns3:TrackPointExtension>
        </extensions>
      </trkpt>
      <trkpt lat="55.90905007906258106231689453125" lon="23.86506937444210052490234375">
        <ele>67.59999847412109375</ele>
        <time>2026-07-25T09:56:34.000Z</time>
        <extensions>
          <ns3:TrackPointExtension>
            <ns3:atemp>27.0</ns3:atemp>
            <ns3:hr>116</ns3:hr>
          </ns3:TrackPointExtension>
        </extensions>
      </trkpt>
      <trkpt lat="55.90902308933436870574951171875" lon="23.86504515074193477630615234375">
        <ele>67.40000152587890625</ele>
        <time>2026-07-25T09:56:36.000Z</time>
        <extensions>
          <ns3:TrackPointExtension>
            <ns3:atemp>27.0</ns3:atemp>
            <ns3:hr>116</ns3:hr>
          </ns3:TrackPointExtension>
        </extensions>
      </trkpt>
      <trkpt lat="55.9089718759059906005859375" lon="23.8649672828614711761474609375">
        <ele>67.40000152587890625</ele>
        <time>2026-07-25T09:56:41.000Z</time>
        <extensions>
          <ns3:TrackPointExtension>
            <ns3:atemp>27.0</ns3:atemp>
            <ns3:hr>115</ns3:hr>
          </ns3:TrackPointExtension>
        </extensions>
      </trkpt>
      <trkpt lat="55.9089371748268604278564453125" lon="23.86493903584778308868408203125">
        <ele>67.40000152587890625</ele>
        <time>2026-07-25T09:56:44.000Z</time>
        <extensions>
          <ns3:TrackPointExtension>
            <ns3:atemp>27.0</ns3:atemp>
            <ns3:hr>111</ns3:hr>
          </ns3:TrackPointExtension>
        </extensions>
      </trkpt>
      <trkpt lat="55.90888210572302341461181640625" lon="23.86485747992992401123046875">
        <ele>67.40000152587890625</ele>
        <time>2026-07-25T09:56:49.000Z</time>
        <extensions>
          <ns3:TrackPointExtension>
            <ns3:atemp>27.0</ns3:atemp>
            <ns3:hr>110</ns3:hr>
          </ns3:TrackPointExtension>
        </extensions>
      </trkpt>
      <trkpt lat="55.90882234275341033935546875" lon="23.864719681441783905029296875">
        <ele>67.40000152587890625</ele>
        <time>2026-07-25T09:56:56.000Z</time>
        <extensions>
          <ns3:TrackPointExtension>
            <ns3:atemp>27.0</ns3:atemp>
            <ns3:hr>111</ns3:hr>
          </ns3:TrackPointExtension>
        </extensions>
      </trkpt>
      <trkpt lat="55.9087792597711086273193359375" lon="23.86460535228252410888671875">
        <ele>67</ele>
        <time>2026-07-25T09:57:03.000Z</time>
        <extensions>
          <ns3:TrackPointExtension>
            <ns3:atemp>27.0</ns3:atemp>
            <ns3:hr>113</ns3:hr>
          </ns3:TrackPointExtension>
        </extensions>
      </trkpt>
      <trkpt lat="55.9086944349110126495361328125" lon="23.8644251413643360137939453125">
        <ele>67</ele>
        <time>2026-07-25T09:57:12.000Z</time>
        <extensions>
          <ns3:TrackPointExtension>
            <ns3:atemp>27.0</ns3:atemp>
            <ns3:hr>113</ns3:hr>
          </ns3:TrackPointExtension>
        </extensions>
      </trkpt>
      <trkpt lat="55.90861455537378787994384765625" lon="23.86438834480941295623779296875">
        <ele>67.1999969482421875</ele>
        <time>2026-07-25T09:57:19.000Z</time>
        <extensions>
          <ns3:TrackPointExtension>
            <ns3:atemp>27.0</ns3:atemp>
            <ns3:hr>113</ns3:hr>
          </ns3:TrackPointExtension>
        </extensions>
      </trkpt>
      <trkpt lat="55.9085472486913204193115234375" lon="23.8644227944314479827880859375">
        <ele>67.59999847412109375</ele>
        <time>2026-07-25T09:57:25.000Z</time>
        <extensions>
          <ns3:TrackPointExtension>
            <ns3:atemp>27.0</ns3:atemp>
            <ns3:hr>114</ns3:hr>
          </ns3:TrackPointExtension>
        </extensions>
      </trkpt>
      <trkpt lat="55.9085123799741268157958984375" lon="23.86443779803812503814697265625">
        <ele>67.8000030517578125</ele>
        <time>2026-07-25T09:57:27.000Z</time>
        <extensions>
          <ns3:TrackPointExtension>
            <ns3:atemp>27.0</ns3:atemp>
            <ns3:hr>113</ns3:hr>
          </ns3:TrackPointExtension>
        </extensions>
      </trkpt>
      <trkpt lat="55.90844172053039073944091796875" lon="23.86445908807218074798583984375">
        <ele>67.8000030517578125</ele>
        <time>2026-07-25T09:57:32.000Z</time>
        <extensions>
          <ns3:TrackPointExtension>
            <ns3:atemp>27.0</ns3:atemp>
            <ns3:hr>111</ns3:hr>
          </ns3:TrackPointExtension>
        </extensions>
      </trkpt>
      <trkpt lat="55.908385477960109710693359375" lon="23.8644839823246002197265625">
        <ele>68</ele>
        <time>2026-07-25T09:57:37.000Z</time>
        <extensions>
          <ns3:TrackPointExtension>
            <ns3:atemp>27.0</ns3:atemp>
            <ns3:hr>114</ns3:hr>
          </ns3:TrackPointExtension>
        </extensions>
      </trkpt>
      <trkpt lat="55.90837282128632068634033203125" lon="23.86448691599071025848388671875">
        <ele>68</ele>
        <time>2026-07-25T09:57:38.000Z</time>
        <extensions>
          <ns3:TrackPointExtension>
            <ns3:atemp>28.0</ns3:atemp>
            <ns3:hr>115</ns3:hr>
          </ns3:TrackPointExtension>
        </extensions>
      </trkpt>
      <trkpt lat="55.90827542357146739959716796875" lon="23.86452446691691875457763671875">
        <ele>68.1999969482421875</ele>
        <time>2026-07-25T09:57:45.000Z</time>
        <extensions>
          <ns3:TrackPointExtension>
            <ns3:atemp>27.0</ns3:atemp>
            <ns3:hr>116</ns3:hr>
          </ns3:TrackPointExtension>
        </extensions>
      </trkpt>
      <trkpt lat="55.9081985615193843841552734375" lon="23.86456310749053955078125">
        <ele>68.40000152587890625</ele>
        <time>2026-07-25T09:57:52.000Z</time>
        <extensions>
          <ns3:TrackPointExtension>
            <ns3:atemp>28.0</ns3:atemp>
            <ns3:hr>118</ns3:hr>
          </ns3:TrackPointExtension>
        </extensions>
      </trkpt>
      <trkpt lat="55.9081455878913402557373046875" lon="23.8645706512033939361572265625">
        <ele>68.59999847412109375</ele>
        <time>2026-07-25T09:57:56.000Z</time>
        <extensions>
          <ns3:TrackPointExtension>
            <ns3:atemp>28.0</ns3:atemp>
            <ns3:hr>118</ns3:hr>
          </ns3:TrackPointExtension>
        </extensions>
      </trkpt>
      <trkpt lat="55.90808331035077571868896484375" lon="23.8645927794277667999267578125">
        <ele>68.59999847412109375</ele>
        <time>2026-07-25T09:58:00.000Z</time>
        <extensions>
          <ns3:TrackPointExtension>
            <ns3:atemp>28.0</ns3:atemp>
            <ns3:hr>117</ns3:hr>
          </ns3:TrackPointExtension>
        </extensions>
      </trkpt>
      <trkpt lat="55.907954983413219451904296875" lon="23.86468087323009967803955078125">
        <ele>69</ele>
        <time>2026-07-25T09:58:09.000Z</time>
        <extensions>
          <ns3:TrackPointExtension>
            <ns3:atemp>28.0</ns3:atemp>
            <ns3:hr>118</ns3:hr>
          </ns3:TrackPointExtension>
        </extensions>
      </trkpt>
      <trkpt lat="55.90786303393542766571044921875" lon="23.8647439889609813690185546875">
        <ele>69.40000152587890625</ele>
        <time>2026-07-25T09:58:17.000Z</time>
        <extensions>
          <ns3:TrackPointExtension>
            <ns3:atemp>28.0</ns3:atemp>
            <ns3:hr>119</ns3:hr>
          </ns3:TrackPointExtension>
        </extensions>
      </trkpt>
      <trkpt lat="55.90779799036681652069091796875" lon="23.86477357707917690277099609375">
        <ele>69.59999847412109375</ele>
        <time>2026-07-25T09:58:22.000Z</time>
        <extensions>
          <ns3:TrackPointExtension>
            <ns3:atemp>28.0</ns3:atemp>
            <ns3:hr>119</ns3:hr>
          </ns3:TrackPointExtension>
        </extensions>
      </trkpt>
      <trkpt lat="55.907796733081340789794921875" lon="23.86478145606815814971923828125">
        <ele>69.59999847412109375</ele>
        <time>2026-07-25T09:58:23.000Z</time>
        <extensions>
          <ns3:TrackPointExtension>
            <ns3:atemp>28.0</ns3:atemp>
            <ns3:hr>120</ns3:hr>
          </ns3:TrackPointExtension>
        </extensions>
      </trkpt>
      <trkpt lat="55.90773881413042545318603515625" lon="23.86480492539703845977783203125">
        <ele>69.40000152587890625</ele>
        <time>2026-07-25T09:58:29.000Z</time>
        <extensions>
          <ns3:TrackPointExtension>
            <ns3:atemp>28.0</ns3:atemp>
            <ns3:hr>121</ns3:hr>
          </ns3:TrackPointExtension>
        </extensions>
      </trkpt>
      <trkpt lat="55.9076161868870258331298828125" lon="23.86484566144645214080810546875">
        <ele>69.59999847412109375</ele>
        <time>2026-07-25T09:58:37.000Z</time>
        <extensions>
          <ns3:TrackPointExtension>
            <ns3:atemp>28.0</ns3:atemp>
            <ns3:hr>122</ns3:hr>
          </ns3:TrackPointExtension>
        </extensions>
      </trkpt>
      <trkpt lat="55.9074938111007213592529296875" lon="23.8648616708815097808837890625">
        <ele>69.40000152587890625</ele>
        <time>2026-07-25T09:58:46.000Z</time>
        <extensions>
          <ns3:TrackPointExtension>
            <ns3:atemp>28.0</ns3:atemp>
            <ns3:hr>121</ns3:hr>
          </ns3:TrackPointExtension>
        </extensions>
      </trkpt>
      <trkpt lat="55.9073808230459690093994140625" lon="23.86490735225379467010498046875">
        <ele>69.59999847412109375</ele>
        <time>2026-07-25T09:58:54.000Z</time>
        <extensions>
          <ns3:TrackPointExtension>
            <ns3:atemp>28.0</ns3:atemp>
            <ns3:hr>120</ns3:hr>
          </ns3:TrackPointExtension>
        </extensions>
      </trkpt>
      <trkpt lat="55.90730429627001285552978515625" lon="23.86495077051222324371337890625">
        <ele>69.59999847412109375</ele>
        <time>2026-07-25T09:59:01.000Z</time>
        <extensions>
          <ns3:TrackPointExtension>
            <ns3:atemp>28.0</ns3:atemp>
            <ns3:hr>118</ns3:hr>
          </ns3:TrackPointExtension>
        </extensions>
      </trkpt>
      <trkpt lat="55.90719482861459255218505859375" lon="23.86501531116664409637451171875">
        <ele>69.59999847412109375</ele>
        <time>2026-07-25T09:59:09.000Z</time>
        <extensions>
          <ns3:TrackPointExtension>
            <ns3:atemp>28.0</ns3:atemp>
            <ns3:hr>116</ns3:hr>
          </ns3:TrackPointExtension>
        </extensions>
      </trkpt>
      <trkpt lat="55.90712249279022216796875" lon="23.8650606572628021240234375">
        <ele>69.1999969482421875</ele>
        <time>2026-07-25T09:59:13.000Z</time>
        <extensions>
          <ns3:TrackPointExtension>
            <ns3:atemp>28.0</ns3:atemp>
            <ns3:hr>113</ns3:hr>
          </ns3:TrackPointExtension>
        </extensions>
      </trkpt>
      <trkpt lat="55.9070891328155994415283203125" lon="23.86508119292557239532470703125">
        <ele>69.1999969482421875</ele>
        <time>2026-07-25T09:59:16.000Z</time>
        <extensions>
          <ns3:TrackPointExtension>
            <ns3:atemp>28.0</ns3:atemp>
            <ns3:hr>112</ns3:hr>
          </ns3:TrackPointExtension>
        </extensions>
      </trkpt>
      <trkpt lat="55.9070076607167720794677734375" lon="23.86509158648550510406494140625">
        <ele>69</ele>
        <time>2026-07-25T09:59:22.000Z</time>
        <extensions>
          <ns3:TrackPointExtension>
            <ns3:atemp>28.0</ns3:atemp>
            <ns3:hr>111</ns3:hr>
          </ns3:TrackPointExtension>
        </extensions>
      </trkpt>
      <trkpt lat="55.9068809263408184051513671875" lon="23.86511773802340030670166015625">
        <ele>68.8000030517578125</ele>
        <time>2026-07-25T09:59:31.000Z</time>
        <extensions>
          <ns3:TrackPointExtension>
            <ns3:atemp>28.0</ns3:atemp>
            <ns3:hr>111</ns3:hr>
          </ns3:TrackPointExtension>
        </extensions>
      </trkpt>
      <trkpt lat="55.90678864158689975738525390625" lon="23.86512494646012783050537109375">
        <ele>68.59999847412109375</ele>
        <time>2026-07-25T09:59:38.000Z</time>
        <extensions>
          <ns3:TrackPointExtension>
            <ns3:atemp>28.0</ns3:atemp>
            <ns3:hr>110</ns3:hr>
          </ns3:TrackPointExtension>
        </extensions>
      </trkpt>
      <trkpt lat="55.90670331381261348724365234375" lon="23.86517641134560108184814453125">
        <ele>68.8000030517578125</ele>
        <time>2026-07-25T09:59:45.000Z</time>
        <extensions>
          <ns3:TrackPointExtension>
            <ns3:atemp>28.0</ns3:atemp>
            <ns3:hr>110</ns3:hr>
          </ns3:TrackPointExtension>
        </extensions>
      </trkpt>
      <trkpt lat="55.90663089416921138763427734375" lon="23.8652237690985202789306640625">
        <ele>68.8000030517578125</ele>
        <time>2026-07-25T09:59:52.000Z</time>
        <extensions>
          <ns3:TrackPointExtension>
            <ns3:atemp>28.0</ns3:atemp>
            <ns3:hr>110</ns3:hr>
          </ns3:TrackPointExtension>
        </extensions>
      </trkpt>
      <trkpt lat="55.9066251106560230255126953125" lon="23.865268528461456298828125">
        <ele>69</ele>
        <time>2026-07-25T09:59:57.000Z</time>
        <extensions>
          <ns3:TrackPointExtension>
            <ns3:atemp>28.0</ns3:atemp>
            <ns3:hr>111</ns3:hr>
          </ns3:TrackPointExtension>
        </extensions>
      </trkpt>
      <trkpt lat="55.90662435628473758697509765625" lon="23.865288309752941131591796875">
        <ele>68.8000030517578125</ele>
        <time>2026-07-25T09:59:58.000Z</time>
        <extensions>
          <ns3:TrackPointExtension>
            <ns3:atemp>28.0</ns3:atemp>
            <ns3:hr>112</ns3:hr>
          </ns3:TrackPointExtension>
        </extensions>
      </trkpt>
      <trkpt lat="55.90662603266537189483642578125" lon="23.86533147655427455902099609375">
        <ele>68.59999847412109375</ele>
        <time>2026-07-25T10:00:01.000Z</time>
        <extensions>
          <ns3:TrackPointExtension>
            <ns3:atemp>28.0</ns3:atemp>
            <ns3:hr>112</ns3:hr>
          </ns3:TrackPointExtension>
        </extensions>
      </trkpt>
      <trkpt lat="55.906627960503101348876953125" lon="23.86537975631654262542724609375">
        <ele>68.40000152587890625</ele>
        <time>2026-07-25T10:00:04.000Z</time>
        <extensions>
          <ns3:TrackPointExtension>
            <ns3:atemp>28.0</ns3:atemp>
            <ns3:hr>112</ns3:hr>
          </ns3:TrackPointExtension>
        </extensions>
      </trkpt>
      <trkpt lat="55.9066234342753887176513671875" lon="23.8654728792607784271240234375">
        <ele>68.1999969482421875</ele>
        <time>2026-07-25T10:00:10.000Z</time>
        <extensions>
          <ns3:TrackPointExtension>
            <ns3:atemp>28.0</ns3:atemp>
            <ns3:hr>111</ns3:hr>
          </ns3:TrackPointExtension>
        </extensions>
      </trkpt>
      <trkpt lat="55.90662368573248386383056640625" lon="23.86562333442270755767822265625">
        <ele>68.1999969482421875</ele>
        <time>2026-07-25T10:00:17.000Z</time>
        <extensions>
          <ns3:TrackPointExtension>
            <ns3:atemp>28.0</ns3:atemp>
            <ns3:hr>112</ns3:hr>
          </ns3:TrackPointExtension>
        </extensions>
      </trkpt>
      <trkpt lat="55.9066445566713809967041015625" lon="23.8657923974096775054931640625">
        <ele>67.8000030517578125</ele>
        <time>2026-07-25T10:00:24.000Z</time>
        <extensions>
          <ns3:TrackPointExtension>
            <ns3:atemp>28.0</ns3:atemp>
            <ns3:hr>112</ns3:hr>
          </ns3:TrackPointExtension>
        </extensions>
      </trkpt>
      <trkpt lat="55.9066465683281421661376953125" lon="23.8659073971211910247802734375">
        <ele>67.8000030517578125</ele>
        <time>2026-07-25T10:00:29.000Z</time>
        <extensions>
          <ns3:TrackPointExtension>
            <ns3:atemp>28.0</ns3:atemp>
            <ns3:hr>109</ns3:hr>
          </ns3:TrackPointExtension>
        </extensions>
      </trkpt>
      <trkpt lat="55.90664438903331756591796875" lon="23.86595509015023708343505859375">
        <ele>68</ele>
        <time>2026-07-25T10:00:31.000Z</time>
        <extensions>
          <ns3:TrackPointExtension>
            <ns3:atemp>28.0</ns3:atemp>
            <ns3:hr>109</ns3:hr>
          </ns3:TrackPointExtension>
        </extensions>
      </trkpt>
      <trkpt lat="55.90667112730443477630615234375" lon="23.866131864488124847412109375">
        <ele>68</ele>
        <time>2026-07-25T10:00:39.000Z</time>
        <extensions>
          <ns3:TrackPointExtension>
            <ns3:atemp>28.0</ns3:atemp>
            <ns3:hr>109</ns3:hr>
          </ns3:TrackPointExtension>
        </extensions>
      </trkpt>
      <trkpt lat="55.9067149646580219268798828125" lon="23.8662363030016422271728515625">
        <ele>67.59999847412109375</ele>
        <time>2026-07-25T10:00:45.000Z</time>
        <extensions>
          <ns3:TrackPointExtension>
            <ns3:atemp>28.0</ns3:atemp>
            <ns3:hr>109</ns3:hr>
          </ns3:TrackPointExtension>
        </extensions>
      </trkpt>
      <trkpt lat="55.90673399157822132110595703125" lon="23.86629908345639705657958984375">
        <ele>67.40000152587890625</ele>
        <time>2026-07-25T10:00:47.000Z</time>
        <extensions>
          <ns3:TrackPointExtension>
            <ns3:atemp>28.0</ns3:atemp>
            <ns3:hr>109</ns3:hr>
          </ns3:TrackPointExtension>
        </extensions>
      </trkpt>
      <trkpt lat="55.9067551977932453155517578125" lon="23.866393379867076873779296875">
        <ele>67.1999969482421875</ele>
        <time>2026-07-25T10:00:51.000Z</time>
        <extensions>
          <ns3:TrackPointExtension>
            <ns3:atemp>28.0</ns3:atemp>
            <ns3:hr>112</ns3:hr>
          </ns3:TrackPointExtension>
        </extensions>
      </trkpt>
      <trkpt lat="55.9067716263234615325927734375" lon="23.86646144092082977294921875">
        <ele>67.1999969482421875</ele>
        <time>2026-07-25T10:00:55.000Z</time>
        <extensions>
          <ns3:TrackPointExtension>
            <ns3:atemp>28.0</ns3:atemp>
            <ns3:hr>112</ns3:hr>
          </ns3:TrackPointExtension>
        </extensions>
      </trkpt>
      <trkpt lat="55.90678478591144084930419921875" lon="23.8666647858917713165283203125">
        <ele>67.59999847412109375</ele>
        <time>2026-07-25T10:01:03.000Z</time>
        <extensions>
          <ns3:TrackPointExtension>
            <ns3:atemp>28.0</ns3:atemp>
            <ns3:hr>111</ns3:hr>
          </ns3:TrackPointExtension>
        </extensions>
      </trkpt>
      <trkpt lat="55.90682786889374256134033203125" lon="23.866809792816638946533203125">
        <ele>68.59999847412109375</ele>
        <time>2026-07-25T10:01:10.000Z</time>
        <extensions>
          <ns3:TrackPointExtension>
            <ns3:atemp>28.0</ns3:atemp>
            <ns3:hr>112</ns3:hr>
          </ns3:TrackPointExtension>
        </extensions>
      </trkpt>
      <trkpt lat="55.9068239293992519378662109375" lon="23.8668612577021121978759765625">
        <ele>69</ele>
        <time>2026-07-25T10:01:13.000Z</time>
        <extensions>
          <ns3:TrackPointExtension>
            <ns3:atemp>28.0</ns3:atemp>
            <ns3:hr>112</ns3:hr>
          </ns3:TrackPointExtension>
        </extensions>
      </trkpt>
      <trkpt lat="55.906798280775547027587890625" lon="23.86690945364534854888916015625">
        <ele>69</ele>
        <time>2026-07-25T10:01:17.000Z</time>
        <extensions>
          <ns3:TrackPointExtension>
            <ns3:atemp>28.0</ns3:atemp>
            <ns3:hr>114</ns3:hr>
          </ns3:TrackPointExtension>
        </extensions>
      </trkpt>
      <trkpt lat="55.9067488275468349456787109375" lon="23.8669568113982677459716796875">
        <ele>69</ele>
        <time>2026-07-25T10:01:21.000Z</time>
        <extensions>
          <ns3:TrackPointExtension>
            <ns3:atemp>28.0</ns3:atemp>
            <ns3:hr>117</ns3:hr>
          </ns3:TrackPointExtension>
        </extensions>
      </trkpt>
      <trkpt lat="55.90669409371912479400634765625" lon="23.86699880473315715789794921875">
        <ele>68.8000030517578125</ele>
        <time>2026-07-25T10:01:26.000Z</time>
        <extensions>
          <ns3:TrackPointExtension>
            <ns3:atemp>28.0</ns3:atemp>
            <ns3:hr>119</ns3:hr>
          </ns3:TrackPointExtension>
        </extensions>
      </trkpt>
      <trkpt lat="55.9065848775207996368408203125" lon="23.86701942421495914459228515625">
        <ele>68.59999847412109375</ele>
        <time>2026-07-25T10:01:34.000Z</time>
        <extensions>
          <ns3:TrackPointExtension>
            <ns3:atemp>27.0</ns3:atemp>
            <ns3:hr>118</ns3:hr>
          </ns3:TrackPointExtension>
        </extensions>
      </trkpt>
      <trkpt lat="55.90648655779659748077392578125" lon="23.8670240342617034912109375">
        <ele>69</ele>
        <time>2026-07-25T10:01:41.000Z</time>
        <extensions>
          <ns3:TrackPointExtension>
            <ns3:atemp>28.0</ns3:atemp>
            <ns3:hr>117</ns3:hr>
          </ns3:TrackPointExtension>
        </extensions>
      </trkpt>
      <trkpt lat="55.90647717006504535675048828125" lon="23.8670423068106174468994140625">
        <ele>69</ele>
        <time>2026-07-25T10:01:42.000Z</time>
        <extensions>
          <ns3:TrackPointExtension>
            <ns3:atemp>27.0</ns3:atemp>
            <ns3:hr>118</ns3:hr>
          </ns3:TrackPointExtension>
        </extensions>
      </trkpt>
      <trkpt lat="55.90643056668341159820556640625" lon="23.8671703822910785675048828125">
        <ele>68.8000030517578125</ele>
        <time>2026-07-25T10:01:48.000Z</time>
        <extensions>
          <ns3:TrackPointExtension>
            <ns3:atemp>28.0</ns3:atemp>
            <ns3:hr>119</ns3:hr>
          </ns3:TrackPointExtension>
        </extensions>
      </trkpt>
      <trkpt lat="55.9063733182847499847412109375" lon="23.867320753633975982666015625">
        <ele>68.1999969482421875</ele>
        <time>2026-07-25T10:01:55.000Z</time>
        <extensions>
          <ns3:TrackPointExtension>
            <ns3:atemp>27.0</ns3:atemp>
            <ns3:hr>117</ns3:hr>
          </ns3:TrackPointExtension>
        </extensions>
      </trkpt>
      <trkpt lat="55.90629746206104755401611328125" lon="23.86742879636585712432861328125">
        <ele>68</ele>
        <time>2026-07-25T10:02:02.000Z</time>
        <extensions>
          <ns3:TrackPointExtension>
            <ns3:atemp>27.0</ns3:atemp>
            <ns3:hr>117</ns3:hr>
          </ns3:TrackPointExtension>
        </extensions>
      </trkpt>
      <trkpt lat="55.9062086977064609527587890625" lon="23.86754966340959072113037109375">
        <ele>68.1999969482421875</ele>
        <time>2026-07-25T10:02:09.000Z</time>
        <extensions>
          <ns3:TrackPointExtension>
            <ns3:atemp>27.0</ns3:atemp>
            <ns3:hr>117</ns3:hr>
          </ns3:TrackPointExtension>
        </extensions>
      </trkpt>
      <trkpt lat="55.9061966277658939361572265625" lon="23.86756860651075839996337890625">
        <ele>68.1999969482421875</ele>
        <time>2026-07-25T10:02:10.000Z</time>
        <extensions>
          <ns3:TrackPointExtension>
            <ns3:atemp>27.0</ns3:atemp>
            <ns3:hr>117</ns3:hr>
          </ns3:TrackPointExtension>
        </extensions>
      </trkpt>
      <trkpt lat="55.9061295725405216217041015625" lon="23.86763549409806728363037109375">
        <ele>68.59999847412109375</ele>
        <time>2026-07-25T10:02:15.000Z</time>
        <extensions>
          <ns3:TrackPointExtension>
            <ns3:atemp>27.0</ns3:atemp>
            <ns3:hr>117</ns3:hr>
          </ns3:TrackPointExtension>
        </extensions>
      </trkpt>
      <trkpt lat="55.90606461279094219207763671875" lon="23.86764287017285823822021484375">
        <ele>68.8000030517578125</ele>
        <time>2026-07-25T10:02:22.000Z</time>
        <extensions>
          <ns3:TrackPointExtension>
            <ns3:atemp>27.0</ns3:atemp>
            <ns3:hr>116</ns3:hr>
          </ns3:TrackPointExtension>
        </extensions>
      </trkpt>
      <trkpt lat="55.9060026705265045166015625" lon="23.86763817630708217620849609375">
        <ele>68.1999969482421875</ele>
        <time>2026-07-25T10:02:28.000Z</time>
        <extensions>
          <ns3:TrackPointExtension>
            <ns3:atemp>27.0</ns3:atemp>
            <ns3:hr>116</ns3:hr>
          </ns3:TrackPointExtension>
        </extensions>
      </trkpt>
      <trkpt lat="55.9059679694473743438720703125" lon="23.867626525461673736572265625">
        <ele>67.8000030517578125</ele>
        <time>2026-07-25T10:02:32.000Z</time>
        <extensions>
          <ns3:TrackPointExtension>
            <ns3:atemp>28.0</ns3:atemp>
            <ns3:hr>113</ns3:hr>
          </ns3:TrackPointExtension>
        </extensions>
      </trkpt>
      <trkpt lat="55.905964113771915435791015625" lon="23.86762962676584720611572265625">
        <ele>67.8000030517578125</ele>
        <time>2026-07-25T10:02:36.000Z</time>
        <extensions>
          <ns3:TrackPointExtension>
            <ns3:atemp>28.0</ns3:atemp>
            <ns3:hr>113</ns3:hr>
          </ns3:TrackPointExtension>
        </extensions>
      </trkpt>
      <trkpt lat="55.9059501998126506805419921875" lon="23.86762962676584720611572265625">
        <ele>67.59999847412109375</ele>
        <time>2026-07-25T10:02:38.000Z</time>
        <extensions>
          <ns3:TrackPointExtension>
            <ns3:atemp>27.0</ns3:atemp>
            <ns3:hr>113</ns3:hr>
          </ns3:TrackPointExtension>
        </extensions>
      </trkpt>
      <trkpt lat="55.90589311905205249786376953125" lon="23.86760297231376171112060546875">
        <ele>67.1999969482421875</ele>
        <time>2026-07-25T10:02:42.000Z</time>
        <extensions>
          <ns3:TrackPointExtension>
            <ns3:atemp>28.0</ns3:atemp>
            <ns3:hr>112</ns3:hr>
          </ns3:TrackPointExtension>
        </extensions>
      </trkpt>
      <trkpt lat="55.90580980293452739715576171875" lon="23.867583610117435455322265625">
        <ele>67</ele>
        <time>2026-07-25T10:02:48.000Z</time>
        <extensions>
          <ns3:TrackPointExtension>
            <ns3:atemp>27.0</ns3:atemp>
            <ns3:hr>115</ns3:hr>
          </ns3:TrackPointExtension>
        </extensions>
      </trkpt>
      <trkpt lat="55.9057520516216754913330078125" lon="23.867585621774196624755859375">
        <ele>67.1999969482421875</ele>
        <time>2026-07-25T10:02:52.000Z</time>
        <extensions>
          <ns3:TrackPointExtension>
            <ns3:atemp>27.0</ns3:atemp>
            <ns3:hr>114</ns3:hr>
          </ns3:TrackPointExtension>
        </extensions>
      </trkpt>
      <trkpt lat="55.90573201887309551239013671875" lon="23.8675619848072528839111328125">
        <ele>67.1999969482421875</ele>
        <time>2026-07-25T10:02:54.000Z</time>
        <extensions>
          <ns3:TrackPointExtension>
            <ns3:atemp>28.0</ns3:atemp>
            <ns3:hr>113</ns3:hr>
          </ns3:TrackPointExtension>
        </extensions>
      </trkpt>
      <trkpt lat="55.905685834586620330810546875" lon="23.86750590987503528594970703125">
        <ele>67</ele>
        <time>2026-07-25T10:02:58.000Z</time>
        <extensions>
          <ns3:TrackPointExtension>
            <ns3:atemp>27.0</ns3:atemp>
            <ns3:hr>110</ns3:hr>
          </ns3:TrackPointExtension>
        </extensions>
      </trkpt>
      <trkpt lat="55.90564216487109661102294921875" lon="23.86745712719857692718505859375">
        <ele>67</ele>
        <time>2026-07-25T10:03:02.000Z</time>
        <extensions>
          <ns3:TrackPointExtension>
            <ns3:atemp>28.0</ns3:atemp>
            <ns3:hr>109</ns3:hr>
          </ns3:TrackPointExtension>
        </extensions>
      </trkpt>
      <trkpt lat="55.90560629032552242279052734375" lon="23.86740264482796192169189453125">
        <ele>67</ele>
        <time>2026-07-25T10:03:06.000Z</time>
        <extensions>
          <ns3:TrackPointExtension>
            <ns3:atemp>27.0</ns3:atemp>
            <ns3:hr>113</ns3:hr>
          </ns3:TrackPointExtension>
        </extensions>
      </trkpt>
      <trkpt lat="55.90555348433554172515869140625" lon="23.86735729873180389404296875">
        <ele>67.1999969482421875</ele>
        <time>2026-07-25T10:03:10.000Z</time>
        <extensions>
          <ns3:TrackPointExtension>
            <ns3:atemp>27.0</ns3:atemp>
            <ns3:hr>114</ns3:hr>
          </ns3:TrackPointExtension>
        </extensions>
      </trkpt>
      <trkpt lat="55.90542398393154144287109375" lon="23.86730960570275783538818359375">
        <ele>67</ele>
        <time>2026-07-25T10:03:19.000Z</time>
        <extensions>
          <ns3:TrackPointExtension>
            <ns3:atemp>27.0</ns3:atemp>
            <ns3:hr>114</ns3:hr>
          </ns3:TrackPointExtension>
        </extensions>
      </trkpt>
      <trkpt lat="55.905323736369609832763671875" lon="23.867360316216945648193359375">
        <ele>67</ele>
        <time>2026-07-25T10:03:27.000Z</time>
        <extensions>
          <ns3:TrackPointExtension>
            <ns3:atemp>27.0</ns3:atemp>
            <ns3:hr>114</ns3:hr>
          </ns3:TrackPointExtension>
        </extensions>
      </trkpt>
      <trkpt lat="55.9052226506173610687255859375" lon="23.86744447052478790283203125">
        <ele>67.1999969482421875</ele>
        <time>2026-07-25T10:03:34.000Z</time>
        <extensions>
          <ns3:TrackPointExtension>
            <ns3:atemp>27.0</ns3:atemp>
            <ns3:hr>114</ns3:hr>
          </ns3:TrackPointExtension>
        </extensions>
      </trkpt>
      <trkpt lat="55.9051767177879810333251953125" lon="23.86749149300158023834228515625">
        <ele>67.1999969482421875</ele>
        <time>2026-07-25T10:03:39.000Z</time>
        <extensions>
          <ns3:TrackPointExtension>
            <ns3:atemp>27.0</ns3:atemp>
            <ns3:hr>114</ns3:hr>
          </ns3:TrackPointExtension>
        </extensions>
      </trkpt>
      <trkpt lat="55.9051146917045116424560546875" lon="23.8675153814256191253662109375">
        <ele>67</ele>
        <time>2026-07-25T10:03:47.000Z</time>
        <extensions>
          <ns3:TrackPointExtension>
            <ns3:atemp>27.0</ns3:atemp>
            <ns3:hr>113</ns3:hr>
          </ns3:TrackPointExtension>
        </extensions>
      </trkpt>
      <trkpt lat="55.90501838363707065582275390625" lon="23.86751211248338222503662109375">
        <ele>67.1999969482421875</ele>
        <time>2026-07-25T10:03:54.000Z</time>
        <extensions>
          <ns3:TrackPointExtension>
            <ns3:atemp>27.0</ns3:atemp>
            <ns3:hr>114</ns3:hr>
          </ns3:TrackPointExtension>
        </extensions>
      </trkpt>
      <trkpt lat="55.904970355331897735595703125" lon="23.86741362512111663818359375">
        <ele>67</ele>
        <time>2026-07-25T10:04:00.000Z</time>
        <extensions>
          <ns3:TrackPointExtension>
            <ns3:atemp>27.0</ns3:atemp>
            <ns3:hr>115</ns3:hr>
          </ns3:TrackPointExtension>
        </extensions>
      </trkpt>
      <trkpt lat="55.90495191514492034912109375" lon="23.867220170795917510986328125">
        <ele>67</ele>
        <time>2026-07-25T10:04:07.000Z</time>
        <extensions>
          <ns3:TrackPointExtension>
            <ns3:atemp>27.0</ns3:atemp>
            <ns3:hr>115</ns3:hr>
          </ns3:TrackPointExtension>
        </extensions>
      </trkpt>
      <trkpt lat="55.904931463301181793212890625" lon="23.86707994155585765838623046875">
        <ele>67.1999969482421875</ele>
        <time>2026-07-25T10:04:14.000Z</time>
        <extensions>
          <ns3:TrackPointExtension>
            <ns3:atemp>27.0</ns3:atemp>
            <ns3:hr>114</ns3:hr>
          </ns3:TrackPointExtension>
        </extensions>
      </trkpt>
      <trkpt lat="55.904909670352935791015625" lon="23.8668335974216461181640625">
        <ele>67.40000152587890625</ele>
        <time>2026-07-25T10:04:24.000Z</time>
        <extensions>
          <ns3:TrackPointExtension>
            <ns3:atemp>27.0</ns3:atemp>
            <ns3:hr>112</ns3:hr>
          </ns3:TrackPointExtension>
        </extensions>
      </trkpt>
      <trkpt lat="55.90483792126178741455078125" lon="23.86679328046739101409912109375">
        <ele>67.8000030517578125</ele>
        <time>2026-07-25T10:04:31.000Z</time>
        <extensions>
          <ns3:TrackPointExtension>
            <ns3:atemp>27.0</ns3:atemp>
            <ns3:hr>111</ns3:hr>
          </ns3:TrackPointExtension>
        </extensions>
      </trkpt>
      <trkpt lat="55.904779247939586639404296875" lon="23.8669360242784023284912109375">
        <ele>68.1999969482421875</ele>
        <time>2026-07-25T10:04:36.000Z</time>
        <extensions>
          <ns3:TrackPointExtension>
            <ns3:atemp>27.0</ns3:atemp>
            <ns3:hr>114</ns3:hr>
          </ns3:TrackPointExtension>
        </extensions>
      </trkpt>
      <trkpt lat="55.9047321416437625885009765625" lon="23.86706016026437282562255859375">
        <ele>68.1999969482421875</ele>
        <time>2026-07-25T10:04:43.000Z</time>
        <extensions>
          <ns3:TrackPointExtension>
            <ns3:atemp>27.0</ns3:atemp>
            <ns3:hr>117</ns3:hr>
          </ns3:TrackPointExtension>
        </extensions>
      </trkpt>
      <trkpt lat="55.90472082607448101043701171875" lon="23.86710039339959621429443359375">
        <ele>68.1999969482421875</ele>
        <time>2026-07-25T10:04:46.000Z</time>
        <extensions>
          <ns3:TrackPointExtension>
            <ns3:atemp>27.0</ns3:atemp>
            <ns3:hr>120</ns3:hr>
          </ns3:TrackPointExtension>
        </extensions>
      </trkpt>
      <trkpt lat="55.90468344278633594512939453125" lon="23.86718555353581905364990234375">
        <ele>68.1999969482421875</ele>
        <time>2026-07-25T10:04:50.000Z</time>
        <extensions>
          <ns3:TrackPointExtension>
            <ns3:atemp>27.0</ns3:atemp>
            <ns3:hr>121</ns3:hr>
          </ns3:TrackPointExtension>
        </extensions>
      </trkpt>
      <trkpt lat="55.90465762652456760406494140625" lon="23.86722763068974018096923828125">
        <ele>68.1999969482421875</ele>
        <time>2026-07-25T10:04:53.000Z</time>
        <extensions>
          <ns3:TrackPointExtension>
            <ns3:atemp>27.0</ns3:atemp>
            <ns3:hr>124</ns3:hr>
          </ns3:TrackPointExtension>
        </extensions>
      </trkpt>
      <trkpt lat="55.9046305529773235321044921875" lon="23.86728546582162380218505859375">
        <ele>68.40000152587890625</ele>
        <time>2026-07-25T10:04:57.000Z</time>
        <extensions>
          <ns3:TrackPointExtension>
            <ns3:atemp>27.0</ns3:atemp>
            <ns3:hr>124</ns3:hr>
          </ns3:TrackPointExtension>
        </extensions>
      </trkpt>
      <trkpt lat="55.9045997075736522674560546875" lon="23.86738537810742855072021484375">
        <ele>68.40000152587890625</ele>
        <time>2026-07-25T10:05:02.000Z</time>
        <extensions>
          <ns3:TrackPointExtension>
            <ns3:atemp>27.0</ns3:atemp>
            <ns3:hr>125</ns3:hr>
          </ns3:TrackPointExtension>
        </extensions>
      </trkpt>
      <trkpt lat="55.90454262681305408477783203125" lon="23.867540694773197174072265625">
        <ele>68.40000152587890625</ele>
        <time>2026-07-25T10:05:09.000Z</time>
        <extensions>
          <ns3:TrackPointExtension>
            <ns3:atemp>27.0</ns3:atemp>
            <ns3:hr>125</ns3:hr>
          </ns3:TrackPointExtension>
        </extensions>
      </trkpt>
      <trkpt lat="55.9044642560184001922607421875" lon="23.86767103336751461029052734375">
        <ele>68.40000152587890625</ele>
        <time>2026-07-25T10:05:17.000Z</time>
        <extensions>
          <ns3:TrackPointExtension>
            <ns3:atemp>27.0</ns3:atemp>
            <ns3:hr>124</ns3:hr>
          </ns3:TrackPointExtension>
        </extensions>
      </trkpt>
      <trkpt lat="55.904373228549957275390625" lon="23.8677983544766902923583984375">
        <ele>68.59999847412109375</ele>
        <time>2026-07-25T10:05:25.000Z</time>
        <extensions>
          <ns3:TrackPointExtension>
            <ns3:atemp>27.0</ns3:atemp>
            <ns3:hr>123</ns3:hr>
          </ns3:TrackPointExtension>
        </extensions>
      </trkpt>
      <trkpt lat="55.90429267846047878265380859375" lon="23.86790606193244457244873046875">
        <ele>69</ele>
        <time>2026-07-25T10:05:32.000Z</time>
        <extensions>
          <ns3:TrackPointExtension>
            <ns3:atemp>27.0</ns3:atemp>
            <ns3:hr>123</ns3:hr>
          </ns3:TrackPointExtension>
        </extensions>
      </trkpt>
      <trkpt lat="55.9042362682521343231201171875" lon="23.8680146075785160064697265625">
        <ele>69</ele>
        <time>2026-07-25T10:05:37.000Z</time>
        <extensions>
          <ns3:TrackPointExtension>
            <ns3:atemp>27.0</ns3:atemp>
            <ns3:hr>122</ns3:hr>
          </ns3:TrackPointExtension>
        </extensions>
      </trkpt>
      <trkpt lat="55.9041626751422882080078125" lon="23.8681574352085590362548828125">
        <ele>69.1999969482421875</ele>
        <time>2026-07-25T10:05:45.000Z</time>
        <extensions>
          <ns3:TrackPointExtension>
            <ns3:atemp>27.0</ns3:atemp>
            <ns3:hr>122</ns3:hr>
          </ns3:TrackPointExtension>
        </extensions>
      </trkpt>
      <trkpt lat="55.90411045588552951812744140625" lon="23.8682151027023792266845703125">
        <ele>69.1999969482421875</ele>
        <time>2026-07-25T10:05:49.000Z</time>
        <extensions>
          <ns3:TrackPointExtension>
            <ns3:atemp>27.0</ns3:atemp>
            <ns3:hr>119</ns3:hr>
          </ns3:TrackPointExtension>
        </extensions>
      </trkpt>
      <trkpt lat="55.9040701389312744140625" lon="23.86827528476715087890625">
        <ele>69.1999969482421875</ele>
        <time>2026-07-25T10:05:53.000Z</time>
        <extensions>
          <ns3:TrackPointExtension>
            <ns3:atemp>27.0</ns3:atemp>
            <ns3:hr>117</ns3:hr>
          </ns3:TrackPointExtension>
        </extensions>
      </trkpt>
      <trkpt lat="55.903991349041461944580078125" lon="23.86838114820420742034912109375">
        <ele>69.40000152587890625</ele>
        <time>2026-07-25T10:06:00.000Z</time>
        <extensions>
          <ns3:TrackPointExtension>
            <ns3:atemp>27.0</ns3:atemp>
            <ns3:hr>117</ns3:hr>
          </ns3:TrackPointExtension>
        </extensions>
      </trkpt>
      <trkpt lat="55.90392789803445339202880859375" lon="23.86844250373542308807373046875">
        <ele>69.40000152587890625</ele>
        <time>2026-07-25T10:06:04.000Z</time>
        <extensions>
          <ns3:TrackPointExtension>
            <ns3:atemp>27.0</ns3:atemp>
            <ns3:hr>117</ns3:hr>
          </ns3:TrackPointExtension>
        </extensions>
      </trkpt>
      <trkpt lat="55.90389822609722614288330078125" lon="23.86846412904560565948486328125">
        <ele>69.59999847412109375</ele>
        <time>2026-07-25T10:06:06.000Z</time>
        <extensions>
          <ns3:TrackPointExtension>
            <ns3:atemp>27.0</ns3:atemp>
            <ns3:hr>116</ns3:hr>
          </ns3:TrackPointExtension>
        </extensions>
      </trkpt>
      <trkpt lat="55.9038540534675121307373046875" lon="23.86849681846797466278076171875">
        <ele>69.59999847412109375</ele>
        <time>2026-07-25T10:06:09.000Z</time>
        <extensions>
          <ns3:TrackPointExtension>
            <ns3:atemp>27.0</ns3:atemp>
            <ns3:hr>116</ns3:hr>
          </ns3:TrackPointExtension>
        </extensions>
      </trkpt>
      <trkpt lat="55.9038067795336246490478515625" lon="23.8685332797467708587646484375">
        <ele>69.8000030517578125</ele>
        <time>2026-07-25T10:06:12.000Z</time>
        <extensions>
          <ns3:TrackPointExtension>
            <ns3:atemp>27.0</ns3:atemp>
            <ns3:hr>115</ns3:hr>
          </ns3:TrackPointExtension>
        </extensions>
      </trkpt>
      <trkpt lat="55.9037209488451480865478515625" lon="23.86860326863825321197509765625">
        <ele>70.1999969482421875</ele>
        <time>2026-07-25T10:06:18.000Z</time>
        <extensions>
          <ns3:TrackPointExtension>
            <ns3:atemp>27.0</ns3:atemp>
            <ns3:hr>117</ns3:hr>
          </ns3:TrackPointExtension>
        </extensions>
      </trkpt>
      <trkpt lat="55.90366847813129425048828125" lon="23.8686422444880008697509765625">
        <ele>70.59999847412109375</ele>
        <time>2026-07-25T10:06:23.000Z</time>
        <extensions>
          <ns3:TrackPointExtension>
            <ns3:atemp>27.0</ns3:atemp>
            <ns3:hr>120</ns3:hr>
          </ns3:TrackPointExtension>
        </extensions>
      </trkpt>
      <trkpt lat="55.90364928357303142547607421875" lon="23.86865682899951934814453125">
        <ele>70.59999847412109375</ele>
        <time>2026-07-25T10:06:24.000Z</time>
        <extensions>
          <ns3:TrackPointExtension>
            <ns3:atemp>27.0</ns3:atemp>
            <ns3:hr>120</ns3:hr>
          </ns3:TrackPointExtension>
        </extensions>
      </trkpt>
      <trkpt lat="55.9036307595670223236083984375" lon="23.8686704076826572418212890625">
        <ele>70.8000030517578125</ele>
        <time>2026-07-25T10:06:25.000Z</time>
        <extensions>
          <ns3:TrackPointExtension>
            <ns3:atemp>27.0</ns3:atemp>
            <ns3:hr>120</ns3:hr>
          </ns3:TrackPointExtension>
        </extensions>
      </trkpt>
      <trkpt lat="55.9035725891590118408203125" lon="23.868667222559452056884765625">
        <ele>71</ele>
        <time>2026-07-25T10:06:30.000Z</time>
        <extensions>
          <ns3:TrackPointExtension>
            <ns3:atemp>27.0</ns3:atemp>
            <ns3:hr>120</ns3:hr>
          </ns3:TrackPointExtension>
        </extensions>
      </trkpt>
      <trkpt lat="55.9034503810107707977294921875" lon="23.8686586730182170867919921875">
        <ele>71.40000152587890625</ele>
        <time>2026-07-25T10:06:38.000Z</time>
        <extensions>
          <ns3:TrackPointExtension>
            <ns3:atemp>27.0</ns3:atemp>
            <ns3:hr>120</ns3:hr>
          </ns3:TrackPointExtension>
        </extensions>
      </trkpt>
      <trkpt lat="55.90338860638439655303955078125" lon="23.868687339127063751220703125">
        <ele>71.8000030517578125</ele>
        <time>2026-07-25T10:06:42.000Z</time>
        <extensions>
          <ns3:TrackPointExtension>
            <ns3:atemp>27.0</ns3:atemp>
            <ns3:hr>121</ns3:hr>
          </ns3:TrackPointExtension>
        </extensions>
      </trkpt>
      <trkpt lat="55.90334803797304630279541015625" lon="23.86873419396579265594482421875">
        <ele>72</ele>
        <time>2026-07-25T10:06:46.000Z</time>
        <extensions>
          <ns3:TrackPointExtension>
            <ns3:atemp>27.0</ns3:atemp>
            <ns3:hr>122</ns3:hr>
          </ns3:TrackPointExtension>
        </extensions>
      </trkpt>
      <trkpt lat="55.90327042154967784881591796875" lon="23.868821449577808380126953125">
        <ele>72.1999969482421875</ele>
        <time>2026-07-25T10:06:52.000Z</time>
        <extensions>
          <ns3:TrackPointExtension>
            <ns3:atemp>27.0</ns3:atemp>
            <ns3:hr>121</ns3:hr>
          </ns3:TrackPointExtension>
        </extensions>
      </trkpt>
      <trkpt lat="55.90317268855869770050048828125" lon="23.8689312525093555450439453125">
        <ele>72.40000152587890625</ele>
        <time>2026-07-25T10:07:00.000Z</time>
        <extensions>
          <ns3:TrackPointExtension>
            <ns3:atemp>27.0</ns3:atemp>
            <ns3:hr>120</ns3:hr>
          </ns3:TrackPointExtension>
        </extensions>
      </trkpt>
      <trkpt lat="55.9031348861753940582275390625" lon="23.8689657859504222869873046875">
        <ele>72.8000030517578125</ele>
        <time>2026-07-25T10:07:03.000Z</time>
        <extensions>
          <ns3:TrackPointExtension>
            <ns3:atemp>27.0</ns3:atemp>
            <ns3:hr>121</ns3:hr>
          </ns3:TrackPointExtension>
        </extensions>
      </trkpt>
      <trkpt lat="55.90306120924651622772216796875" lon="23.86904080398380756378173828125">
        <ele>73.1999969482421875</ele>
        <time>2026-07-25T10:07:08.000Z</time>
        <extensions>
          <ns3:TrackPointExtension>
            <ns3:atemp>27.0</ns3:atemp>
            <ns3:hr>123</ns3:hr>
          </ns3:TrackPointExtension>
        </extensions>
      </trkpt>
      <trkpt lat="55.90297956950962543487548828125" lon="23.8691491819918155670166015625">
        <ele>73.8000030517578125</ele>
        <time>2026-07-25T10:07:15.000Z</time>
        <extensions>
          <ns3:TrackPointExtension>
            <ns3:atemp>27.0</ns3:atemp>
            <ns3:hr>125</ns3:hr>
          </ns3:TrackPointExtension>
        </extensions>
      </trkpt>
      <trkpt lat="55.902957357466220855712890625" lon="23.8691778481006622314453125">
        <ele>73.8000030517578125</ele>
        <time>2026-07-25T10:07:17.000Z</time>
        <extensions>
          <ns3:TrackPointExtension>
            <ns3:atemp>27.0</ns3:atemp>
            <ns3:hr>125</ns3:hr>
          </ns3:TrackPointExtension>
        </extensions>
      </trkpt>
      <trkpt lat="55.90288317762315273284912109375" lon="23.86925253085792064666748046875">
        <ele>74.40000152587890625</ele>
        <time>2026-07-25T10:07:23.000Z</time>
        <extensions>
          <ns3:TrackPointExtension>
            <ns3:atemp>27.0</ns3:atemp>
            <ns3:hr>124</ns3:hr>
          </ns3:TrackPointExtension>
        </extensions>
      </trkpt>
      <trkpt lat="55.90277706272900104522705078125" lon="23.86933484114706516265869140625">
        <ele>74.8000030517578125</ele>
        <time>2026-07-25T10:07:30.000Z</time>
        <extensions>
          <ns3:TrackPointExtension>
            <ns3:atemp>27.0</ns3:atemp>
            <ns3:hr>125</ns3:hr>
          </ns3:TrackPointExtension>
        </extensions>
      </trkpt>
      <trkpt lat="55.9027536772191524505615234375" lon="23.86935562826693058013916015625">
        <ele>74.8000030517578125</ele>
        <time>2026-07-25T10:07:32.000Z</time>
        <extensions>
          <ns3:TrackPointExtension>
            <ns3:atemp>27.0</ns3:atemp>
            <ns3:hr>125</ns3:hr>
          </ns3:TrackPointExtension>
        </extensions>
      </trkpt>
      <trkpt lat="55.902729034423828125" lon="23.86936970986425876617431640625">
        <ele>75</ele>
        <time>2026-07-25T10:07:34.000Z</time>
        <extensions>
          <ns3:TrackPointExtension>
            <ns3:atemp>27.0</ns3:atemp>
            <ns3:hr>122</ns3:hr>
          </ns3:TrackPointExtension>
        </extensions>
      </trkpt>
      <trkpt lat="55.90268050320446491241455078125" lon="23.869410865008831024169921875">
        <ele>75.1999969482421875</ele>
        <time>2026-07-25T10:07:38.000Z</time>
        <extensions>
          <ns3:TrackPointExtension>
            <ns3:atemp>27.0</ns3:atemp>
            <ns3:hr>123</ns3:hr>
          </ns3:TrackPointExtension>
        </extensions>
      </trkpt>
      <trkpt lat="55.9025857038795948028564453125" lon="23.869502060115337371826171875">
        <ele>75.59999847412109375</ele>
        <time>2026-07-25T10:07:46.000Z</time>
        <extensions>
          <ns3:TrackPointExtension>
            <ns3:atemp>27.0</ns3:atemp>
            <ns3:hr>123</ns3:hr>
          </ns3:TrackPointExtension>
        </extensions>
      </trkpt>
      <trkpt lat="55.902494005858898162841796875" lon="23.86961529962718486785888671875">
        <ele>75.8000030517578125</ele>
        <time>2026-07-25T10:07:54.000Z</time>
        <extensions>
          <ns3:TrackPointExtension>
            <ns3:atemp>27.0</ns3:atemp>
            <ns3:hr>123</ns3:hr>
          </ns3:TrackPointExtension>
        </extensions>
      </trkpt>
      <trkpt lat="55.90243290178477764129638671875" lon="23.8697094283998012542724609375">
        <ele>75.8000030517578125</ele>
        <time>2026-07-25T10:08:01.000Z</time>
        <extensions>
          <ns3:TrackPointExtension>
            <ns3:atemp>27.0</ns3:atemp>
            <ns3:hr>125</ns3:hr>
          </ns3:TrackPointExtension>
        </extensions>
      </trkpt>
      <trkpt lat="55.902431309223175048828125" lon="23.8697231747210025787353515625">
        <ele>75.8000030517578125</ele>
        <time>2026-07-25T10:08:02.000Z</time>
        <extensions>
          <ns3:TrackPointExtension>
            <ns3:atemp>27.0</ns3:atemp>
            <ns3:hr>125</ns3:hr>
          </ns3:TrackPointExtension>
        </extensions>
      </trkpt>
      <trkpt lat="55.90241177938878536224365234375" lon="23.8698698580265045166015625">
        <ele>75.59999847412109375</ele>
        <time>2026-07-25T10:08:08.000Z</time>
        <extensions>
          <ns3:TrackPointExtension>
            <ns3:atemp>27.0</ns3:atemp>
            <ns3:hr>124</ns3:hr>
          </ns3:TrackPointExtension>
        </extensions>
      </trkpt>
      <trkpt lat="55.902421586215496063232421875" lon="23.87002550996840000152587890625">
        <ele>76.1999969482421875</ele>
        <time>2026-07-25T10:08:15.000Z</time>
        <extensions>
          <ns3:TrackPointExtension>
            <ns3:atemp>27.0</ns3:atemp>
            <ns3:hr>123</ns3:hr>
          </ns3:TrackPointExtension>
        </extensions>
      </trkpt>
      <trkpt lat="55.90241295285522937774658203125" lon="23.8700604625046253204345703125">
        <ele>76</ele>
        <time>2026-07-25T10:08:21.000Z</time>
        <extensions>
          <ns3:TrackPointExtension>
            <ns3:atemp>27.0</ns3:atemp>
            <ns3:hr>123</ns3:hr>
          </ns3:TrackPointExtension>
        </extensions>
      </trkpt>
      <trkpt lat="55.902420915663242340087890625" lon="23.8700656592845916748046875">
        <ele>76.1999969482421875</ele>
        <time>2026-07-25T10:08:23.000Z</time>
        <extensions>
          <ns3:TrackPointExtension>
            <ns3:atemp>27.0</ns3:atemp>
            <ns3:hr>122</ns3:hr>
          </ns3:TrackPointExtension>
        </extensions>
      </trkpt>
      <trkpt lat="55.90242099948227405548095703125" lon="23.87007026933133602142333984375">
        <ele>76.1999969482421875</ele>
        <time>2026-07-25T10:08:24.000Z</time>
        <extensions>
          <ns3:TrackPointExtension>
            <ns3:atemp>27.0</ns3:atemp>
            <ns3:hr>122</ns3:hr>
          </ns3:TrackPointExtension>
        </extensions>
      </trkpt>
      <trkpt lat="55.90242988429963588714599609375" lon="23.87014738284051418304443359375">
        <ele>75.59999847412109375</ele>
        <time>2026-07-25T10:08:30.000Z</time>
        <extensions>
          <ns3:TrackPointExtension>
            <ns3:atemp>27.0</ns3:atemp>
            <ns3:hr>123</ns3:hr>
          </ns3:TrackPointExtension>
        </extensions>
      </trkpt>
      <trkpt lat="55.90243390761315822601318359375" lon="23.8701939024031162261962890625">
        <ele>75.59999847412109375</ele>
        <time>2026-07-25T10:08:34.000Z</time>
        <extensions>
          <ns3:TrackPointExtension>
            <ns3:atemp>27.0</ns3:atemp>
            <ns3:hr>120</ns3:hr>
          </ns3:TrackPointExtension>
        </extensions>
      </trkpt>
      <trkpt lat="55.90242150239646434783935546875" lon="23.8701982609927654266357421875">
        <ele>75.59999847412109375</ele>
        <time>2026-07-25T10:08:37.000Z</time>
        <extensions>
          <ns3:TrackPointExtension>
            <ns3:atemp>27.0</ns3:atemp>
            <ns3:hr>118</ns3:hr>
          </ns3:TrackPointExtension>
        </extensions>
      </trkpt>
      <trkpt lat="55.90241563506424427032470703125" lon="23.87020169757306575775146484375">
        <ele>75.59999847412109375</ele>
        <time>2026-07-25T10:08:43.000Z</time>
        <extensions>
          <ns3:TrackPointExtension>
            <ns3:atemp>27.0</ns3:atemp>
            <ns3:hr>117</ns3:hr>
          </ns3:TrackPointExtension>
        </extensions>
      </trkpt>
      <trkpt lat="55.902412198483943939208984375" lon="23.87019817717373371124267578125">
        <ele>75.59999847412109375</ele>
        <time>2026-07-25T10:08:51.000Z</time>
        <extensions>
          <ns3:TrackPointExtension>
            <ns3:atemp>27.0</ns3:atemp>
            <ns3:hr>118</ns3:hr>
          </ns3:TrackPointExtension>
        </extensions>
      </trkpt>
      <trkpt lat="55.90241328813135623931884765625" lon="23.87021175585687160491943359375">
        <ele>75.59999847412109375</ele>
        <time>2026-07-25T10:08:55.000Z</time>
        <extensions>
          <ns3:TrackPointExtension>
            <ns3:atemp>27.0</ns3:atemp>
            <ns3:hr>121</ns3:hr>
          </ns3:TrackPointExtension>
        </extensions>
      </trkpt>
      <trkpt lat="55.902412869036197662353515625" lon="23.870220892131328582763671875">
        <ele>75.59999847412109375</ele>
        <time>2026-07-25T10:08:56.000Z</time>
        <extensions>
          <ns3:TrackPointExtension>
            <ns3:atemp>27.0</ns3:atemp>
            <ns3:hr>124</ns3:hr>
          </ns3:TrackPointExtension>
        </extensions>
      </trkpt>
      <trkpt lat="55.902418904006481170654296875" lon="23.87022466398775577545166015625">
        <ele>75.40000152587890625</ele>
        <time>2026-07-25T10:09:00.000Z</time>
        <extensions>
          <ns3:TrackPointExtension>
            <ns3:atemp>27.0</ns3:atemp>
            <ns3:hr>123</ns3:hr>
          </ns3:TrackPointExtension>
        </extensions>
      </trkpt>
      <trkpt lat="55.90240507386624813079833984375" lon="23.870125003159046173095703125">
        <ele>75.40000152587890625</ele>
        <time>2026-07-25T10:09:08.000Z</time>
        <extensions>
          <ns3:TrackPointExtension>
            <ns3:atemp>27.0</ns3:atemp>
            <ns3:hr>123</ns3:hr>
          </ns3:TrackPointExtension>
        </extensions>
      </trkpt>
      <trkpt lat="55.902402140200138092041015625" lon="23.87004663236439228057861328125">
        <ele>75</ele>
        <time>2026-07-25T10:09:15.000Z</time>
        <extensions>
          <ns3:TrackPointExtension>
            <ns3:atemp>27.0</ns3:atemp>
            <ns3:hr>121</ns3:hr>
          </ns3:TrackPointExtension>
        </extensions>
      </trkpt>
      <trkpt lat="55.90240725316107273101806640625" lon="23.87004897929728031158447265625">
        <ele>75</ele>
        <time>2026-07-25T10:09:17.000Z</time>
        <extensions>
          <ns3:TrackPointExtension>
            <ns3:atemp>27.0</ns3:atemp>
            <ns3:hr>118</ns3:hr>
          </ns3:TrackPointExtension>
        </extensions>
      </trkpt>
      <trkpt lat="55.90242519043385982513427734375" lon="23.8700624741613864898681640625">
        <ele>74.8000030517578125</ele>
        <time>2026-07-25T10:09:20.000Z</time>
        <extensions>
          <ns3:TrackPointExtension>
            <ns3:atemp>27.0</ns3:atemp>
            <ns3:hr>115</ns3:hr>
          </ns3:TrackPointExtension>
        </extensions>
      </trkpt>
      <trkpt lat="55.90246022678911685943603515625" lon="23.8700616359710693359375">
        <ele>74.8000030517578125</ele>
        <time>2026-07-25T10:09:26.000Z</time>
        <extensions>
          <ns3:TrackPointExtension>
            <ns3:atemp>27.0</ns3:atemp>
            <ns3:hr>116</ns3:hr>
          </ns3:TrackPointExtension>
        </extensions>
      </trkpt>
      <trkpt lat="55.9024646691977977752685546875" lon="23.8700403459370136260986328125">
        <ele>74.8000030517578125</ele>
        <time>2026-07-25T10:09:29.000Z</time>
        <extensions>
          <ns3:TrackPointExtension>
            <ns3:atemp>27.0</ns3:atemp>
            <ns3:hr>111</ns3:hr>
          </ns3:TrackPointExtension>
        </extensions>
      </trkpt>
      <trkpt lat="55.90244404971599578857421875" lon="23.8699766434729099273681640625">
        <ele>74.8000030517578125</ele>
        <time>2026-07-25T10:09:33.000Z</time>
        <extensions>
          <ns3:TrackPointExtension>
            <ns3:atemp>27.0</ns3:atemp>
            <ns3:hr>109</ns3:hr>
          </ns3:TrackPointExtension>
        </extensions>
      </trkpt>
      <trkpt lat="55.902407504618167877197265625" lon="23.86984580196440219879150390625">
        <ele>74.40000152587890625</ele>
        <time>2026-07-25T10:09:40.000Z</time>
        <extensions>
          <ns3:TrackPointExtension>
            <ns3:atemp>27.0</ns3:atemp>
            <ns3:hr>111</ns3:hr>
          </ns3:TrackPointExtension>
        </extensions>
      </trkpt>
      <trkpt lat="55.902468524873256683349609375" lon="23.869670368731021881103515625">
        <ele>74.40000152587890625</ele>
        <time>2026-07-25T10:09:48.000Z</time>
        <extensions>
          <ns3:TrackPointExtension>
            <ns3:atemp>27.0</ns3:atemp>
            <ns3:hr>111</ns3:hr>
          </ns3:TrackPointExtension>
        </extensions>
      </trkpt>
      <trkpt lat="55.902563072741031646728515625" lon="23.86955193243920803070068359375">
        <ele>74.40000152587890625</ele>
        <time>2026-07-25T10:09:57.000Z</time>
        <extensions>
          <ns3:TrackPointExtension>
            <ns3:atemp>27.0</ns3:atemp>
            <ns3:hr>109</ns3:hr>
          </ns3:TrackPointExtension>
        </extensions>
      </trkpt>
      <trkpt lat="55.90266399085521697998046875" lon="23.8694407045841217041015625">
        <ele>74.1999969482421875</ele>
        <time>2026-07-25T10:10:06.000Z</time>
        <extensions>
          <ns3:TrackPointExtension>
            <ns3:atemp>27.0</ns3:atemp>
            <ns3:hr>109</ns3:hr>
          </ns3:TrackPointExtension>
        </extensions>
      </trkpt>
      <trkpt lat="55.90267606079578399658203125" lon="23.86943140067160129547119140625">
        <ele>74</ele>
        <time>2026-07-25T10:10:07.000Z</time>
        <extensions>
          <ns3:TrackPointExtension>
            <ns3:atemp>27.0</ns3:atemp>
            <ns3:hr>107</ns3:hr>
          </ns3:TrackPointExtension>
        </extensions>
      </trkpt>
      <trkpt lat="55.90272710658609867095947265625" lon="23.86938446201384067535400390625">
        <ele>73.8000030517578125</ele>
        <time>2026-07-25T10:10:11.000Z</time>
        <extensions>
          <ns3:TrackPointExtension>
            <ns3:atemp>27.0</ns3:atemp>
            <ns3:hr>107</ns3:hr>
          </ns3:TrackPointExtension>
        </extensions>
      </trkpt>
      <trkpt lat="55.90274085290729999542236328125" lon="23.86936761438846588134765625">
        <ele>73.8000030517578125</ele>
        <time>2026-07-25T10:10:12.000Z</time>
        <extensions>
          <ns3:TrackPointExtension>
            <ns3:atemp>27.0</ns3:atemp>
            <ns3:hr>107</ns3:hr>
          </ns3:TrackPointExtension>
        </extensions>
      </trkpt>
      <trkpt lat="55.90283573605120182037353515625" lon="23.86930667795240879058837890625">
        <ele>73.40000152587890625</ele>
        <time>2026-07-25T10:10:20.000Z</time>
        <extensions>
          <ns3:TrackPointExtension>
            <ns3:atemp>27.0</ns3:atemp>
            <ns3:hr>107</ns3:hr>
          </ns3:TrackPointExtension>
        </extensions>
      </trkpt>
      <trkpt lat="55.9029234945774078369140625" lon="23.86920123361051082611083984375">
        <ele>73</ele>
        <time>2026-07-25T10:10:28.000Z</time>
        <extensions>
          <ns3:TrackPointExtension>
            <ns3:atemp>27.0</ns3:atemp>
            <ns3:hr>107</ns3:hr>
          </ns3:TrackPointExtension>
        </extensions>
      </trkpt>
      <trkpt lat="55.9029347263276576995849609375" lon="23.86918648146092891693115234375">
        <ele>72.8000030517578125</ele>
        <time>2026-07-25T10:10:29.000Z</time>
        <extensions>
          <ns3:TrackPointExtension>
            <ns3:atemp>27.0</ns3:atemp>
            <ns3:hr>107</ns3:hr>
          </ns3:TrackPointExtension>
        </extensions>
      </trkpt>
      <trkpt lat="55.90303279459476470947265625" lon="23.86906393803656101226806640625">
        <ele>72.1999969482421875</ele>
        <time>2026-07-25T10:10:37.000Z</time>
        <extensions>
          <ns3:TrackPointExtension>
            <ns3:atemp>27.0</ns3:atemp>
            <ns3:hr>108</ns3:hr>
          </ns3:TrackPointExtension>
        </extensions>
      </trkpt>
      <trkpt lat="55.9031053818762302398681640625" lon="23.8689724914729595184326171875">
        <ele>71.8000030517578125</ele>
        <time>2026-07-25T10:10:44.000Z</time>
        <extensions>
          <ns3:TrackPointExtension>
            <ns3:atemp>27.0</ns3:atemp>
            <ns3:hr>108</ns3:hr>
          </ns3:TrackPointExtension>
        </extensions>
      </trkpt>
      <trkpt lat="55.90314276516437530517578125" lon="23.86894424445927143096923828125">
        <ele>71.59999847412109375</ele>
        <time>2026-07-25T10:10:47.000Z</time>
        <extensions>
          <ns3:TrackPointExtension>
            <ns3:atemp>27.0</ns3:atemp>
            <ns3:hr>107</ns3:hr>
          </ns3:TrackPointExtension>
        </extensions>
      </trkpt>
      <trkpt lat="55.9032022766768932342529296875" lon="23.86890384368598461151123046875">
        <ele>71.1999969482421875</ele>
        <time>2026-07-25T10:10:52.000Z</time>
        <extensions>
          <ns3:TrackPointExtension>
            <ns3:atemp>27.0</ns3:atemp>
            <ns3:hr>106</ns3:hr>
          </ns3:TrackPointExtension>
        </extensions>
      </trkpt>
      <trkpt lat="55.90329372324049472808837890625" lon="23.868815414607524871826171875">
        <ele>70.59999847412109375</ele>
        <time>2026-07-25T10:10:59.000Z</time>
        <extensions>
          <ns3:TrackPointExtension>
            <ns3:atemp>27.0</ns3:atemp>
            <ns3:hr>105</ns3:hr>
          </ns3:TrackPointExtension>
        </extensions>
      </trkpt>
      <trkpt lat="55.90330906212329864501953125" lon="23.86879890225827693939208984375">
        <ele>70.59999847412109375</ele>
        <time>2026-07-25T10:11:00.000Z</time>
        <extensions>
          <ns3:TrackPointExtension>
            <ns3:atemp>27.0</ns3:atemp>
            <ns3:hr>106</ns3:hr>
          </ns3:TrackPointExtension>
        </extensions>
      </trkpt>
      <trkpt lat="55.90339262969791889190673828125" lon="23.86869127862155437469482421875">
        <ele>70.59999847412109375</ele>
        <time>2026-07-25T10:11:07.000Z</time>
        <extensions>
          <ns3:TrackPointExtension>
            <ns3:atemp>27.0</ns3:atemp>
            <ns3:hr>107</ns3:hr>
          </ns3:TrackPointExtension>
        </extensions>
      </trkpt>
      <trkpt lat="55.90348382480442523956298828125" lon="23.8686553202569484710693359375">
        <ele>70.40000152587890625</ele>
        <time>2026-07-25T10:11:14.000Z</time>
        <extensions>
          <ns3:TrackPointExtension>
            <ns3:atemp>27.0</ns3:atemp>
            <ns3:hr>110</ns3:hr>
          </ns3:TrackPointExtension>
        </extensions>
      </trkpt>
      <trkpt lat="55.90356663800776004791259765625" lon="23.86867049150168895721435546875">
        <ele>70.1999969482421875</ele>
        <time>2026-07-25T10:11:20.000Z</time>
        <extensions>
          <ns3:TrackPointExtension>
            <ns3:atemp>27.0</ns3:atemp>
            <ns3:hr>106</ns3:hr>
          </ns3:TrackPointExtension>
        </extensions>
      </trkpt>
      <trkpt lat="55.90361324138939380645751953125" lon="23.86866043321788311004638671875">
        <ele>70</ele>
        <time>2026-07-25T10:11:23.000Z</time>
        <extensions>
          <ns3:TrackPointExtension>
            <ns3:atemp>27.0</ns3:atemp>
            <ns3:hr>105</ns3:hr>
          </ns3:TrackPointExtension>
        </extensions>
      </trkpt>
      <trkpt lat="55.9036746807396411895751953125" lon="23.86860745958983898162841796875">
        <ele>69.59999847412109375</ele>
        <time>2026-07-25T10:11:29.000Z</time>
        <extensions>
          <ns3:TrackPointExtension>
            <ns3:atemp>27.0</ns3:atemp>
            <ns3:hr>106</ns3:hr>
          </ns3:TrackPointExtension>
        </extensions>
      </trkpt>
      <trkpt lat="55.90370125137269496917724609375" lon="23.8685909472405910491943359375">
        <ele>69.40000152587890625</ele>
        <time>2026-07-25T10:11:31.000Z</time>
        <extensions>
          <ns3:TrackPointExtension>
            <ns3:atemp>27.0</ns3:atemp>
            <ns3:hr>106</ns3:hr>
          </ns3:TrackPointExtension>
        </extensions>
      </trkpt>
      <trkpt lat="55.90383234433829784393310546875" lon="23.86850126087665557861328125">
        <ele>69</ele>
        <time>2026-07-25T10:11:41.000Z</time>
        <extensions>
          <ns3:TrackPointExtension>
            <ns3:atemp>27.0</ns3:atemp>
            <ns3:hr>108</ns3:hr>
          </ns3:TrackPointExtension>
        </extensions>
      </trkpt>
      <trkpt lat="55.9039244614541530609130859375" lon="23.868416436016559600830078125">
        <ele>68.59999847412109375</ele>
        <time>2026-07-25T10:11:47.000Z</time>
        <extensions>
          <ns3:TrackPointExtension>
            <ns3:atemp>27.0</ns3:atemp>
            <ns3:hr>108</ns3:hr>
          </ns3:TrackPointExtension>
        </extensions>
      </trkpt>
      <trkpt lat="55.90397181920707225799560546875" lon="23.8683763705193996429443359375">
        <ele>68.59999847412109375</ele>
        <time>2026-07-25T10:11:50.000Z</time>
        <extensions>
          <ns3:TrackPointExtension>
            <ns3:atemp>27.0</ns3:atemp>
            <ns3:hr>106</ns3:hr>
          </ns3:TrackPointExtension>
        </extensions>
      </trkpt>
      <trkpt lat="55.90404407121241092681884765625" lon="23.86828375048935413360595703125">
        <ele>68.8000030517578125</ele>
        <time>2026-07-25T10:11:57.000Z</time>
        <extensions>
          <ns3:TrackPointExtension>
            <ns3:atemp>27.0</ns3:atemp>
            <ns3:hr>105</ns3:hr>
          </ns3:TrackPointExtension>
        </extensions>
      </trkpt>
      <trkpt lat="55.9041212685406208038330078125" lon="23.8681587763130664825439453125">
        <ele>68.8000030517578125</ele>
        <time>2026-07-25T10:12:06.000Z</time>
        <extensions>
          <ns3:TrackPointExtension>
            <ns3:atemp>27.0</ns3:atemp>
            <ns3:hr>107</ns3:hr>
          </ns3:TrackPointExtension>
        </extensions>
      </trkpt>
      <trkpt lat="55.904209949076175689697265625" lon="23.86800706386566162109375">
        <ele>69</ele>
        <time>2026-07-25T10:12:14.000Z</time>
        <extensions>
          <ns3:TrackPointExtension>
            <ns3:atemp>27.0</ns3:atemp>
            <ns3:hr>108</ns3:hr>
          </ns3:TrackPointExtension>
        </extensions>
      </trkpt>
      <trkpt lat="55.90431480668485164642333984375" lon="23.8678690977394580841064453125">
        <ele>69</ele>
        <time>2026-07-25T10:12:22.000Z</time>
        <extensions>
          <ns3:TrackPointExtension>
            <ns3:atemp>27.0</ns3:atemp>
            <ns3:hr>109</ns3:hr>
          </ns3:TrackPointExtension>
        </extensions>
      </trkpt>
      <trkpt lat="55.9044092707335948944091796875" lon="23.867744542658329010009765625">
        <ele>68.8000030517578125</ele>
        <time>2026-07-25T10:12:30.000Z</time>
        <extensions>
          <ns3:TrackPointExtension>
            <ns3:atemp>27.0</ns3:atemp>
            <ns3:hr>109</ns3:hr>
          </ns3:TrackPointExtension>
        </extensions>
      </trkpt>
      <trkpt lat="55.90450675226747989654541015625" lon="23.86761487461626529693603515625">
        <ele>68.8000030517578125</ele>
        <time>2026-07-25T10:12:38.000Z</time>
        <extensions>
          <ns3:TrackPointExtension>
            <ns3:atemp>27.0</ns3:atemp>
            <ns3:hr>112</ns3:hr>
          </ns3:TrackPointExtension>
        </extensions>
      </trkpt>
      <trkpt lat="55.90451798401772975921630859375" lon="23.86759869754314422607421875">
        <ele>69</ele>
        <time>2026-07-25T10:12:39.000Z</time>
        <extensions>
          <ns3:TrackPointExtension>
            <ns3:atemp>27.0</ns3:atemp>
            <ns3:hr>112</ns3:hr>
          </ns3:TrackPointExtension>
        </extensions>
      </trkpt>
      <trkpt lat="55.90458939783275127410888671875" lon="23.8674265332520008087158203125">
        <ele>69.1999969482421875</ele>
        <time>2026-07-25T10:12:47.000Z</time>
        <extensions>
          <ns3:TrackPointExtension>
            <ns3:atemp>27.0</ns3:atemp>
            <ns3:hr>111</ns3:hr>
          </ns3:TrackPointExtension>
        </extensions>
      </trkpt>
      <trkpt lat="55.90460322797298431396484375" lon="23.8673795945942401885986328125">
        <ele>69.1999969482421875</ele>
        <time>2026-07-25T10:12:49.000Z</time>
        <extensions>
          <ns3:TrackPointExtension>
            <ns3:atemp>27.0</ns3:atemp>
            <ns3:hr>110</ns3:hr>
          </ns3:TrackPointExtension>
        </extensions>
      </trkpt>
      <trkpt lat="55.90466617606580257415771484375" lon="23.86723701842129230499267578125">
        <ele>69.59999847412109375</ele>
        <time>2026-07-25T10:12:56.000Z</time>
        <extensions>
          <ns3:TrackPointExtension>
            <ns3:atemp>27.0</ns3:atemp>
            <ns3:hr>111</ns3:hr>
          </ns3:TrackPointExtension>
        </extensions>
      </trkpt>
      <trkpt lat="55.90468511916697025299072265625" lon="23.867161832749843597412109375">
        <ele>69.59999847412109375</ele>
        <time>2026-07-25T10:13:00.000Z</time>
        <extensions>
          <ns3:TrackPointExtension>
            <ns3:atemp>27.0</ns3:atemp>
            <ns3:hr>111</ns3:hr>
          </ns3:TrackPointExtension>
        </extensions>
      </trkpt>
      <trkpt lat="55.90471428819000720977783203125" lon="23.867078684270381927490234375">
        <ele>69.59999847412109375</ele>
        <time>2026-07-25T10:13:04.000Z</time>
        <extensions>
          <ns3:TrackPointExtension>
            <ns3:atemp>27.0</ns3:atemp>
            <ns3:hr>111</ns3:hr>
          </ns3:TrackPointExtension>
        </extensions>
      </trkpt>
      <trkpt lat="55.904784612357616424560546875" lon="23.8669041730463504791259765625">
        <ele>69.40000152587890625</ele>
        <time>2026-07-25T10:13:12.000Z</time>
        <extensions>
          <ns3:TrackPointExtension>
            <ns3:atemp>27.0</ns3:atemp>
            <ns3:hr>112</ns3:hr>
          </ns3:TrackPointExtension>
        </extensions>
      </trkpt>
      <trkpt lat="55.90486197732388973236083984375" lon="23.8667745888233184814453125">
        <ele>69</ele>
        <time>2026-07-25T10:13:19.000Z</time>
        <extensions>
          <ns3:TrackPointExtension>
            <ns3:atemp>27.0</ns3:atemp>
            <ns3:hr>114</ns3:hr>
          </ns3:TrackPointExtension>
        </extensions>
      </trkpt>
      <trkpt lat="55.9048850275576114654541015625" lon="23.86678053997457027435302734375">
        <ele>68.8000030517578125</ele>
        <time>2026-07-25T10:13:21.000Z</time>
        <extensions>
          <ns3:TrackPointExtension>
            <ns3:atemp>27.0</ns3:atemp>
            <ns3:hr>115</ns3:hr>
          </ns3:TrackPointExtension>
        </extensions>
      </trkpt>
      <trkpt lat="55.90490363538265228271484375" lon="23.8668468408286571502685546875">
        <ele>68.59999847412109375</ele>
        <time>2026-07-25T10:13:24.000Z</time>
        <extensions>
          <ns3:TrackPointExtension>
            <ns3:atemp>27.0</ns3:atemp>
            <ns3:hr>116</ns3:hr>
          </ns3:TrackPointExtension>
        </extensions>
      </trkpt>
      <trkpt lat="55.90490522794425487518310546875" lon="23.86686670593917369842529296875">
        <ele>68.59999847412109375</ele>
        <time>2026-07-25T10:13:25.000Z</time>
        <extensions>
          <ns3:TrackPointExtension>
            <ns3:atemp>27.0</ns3:atemp>
            <ns3:hr>117</ns3:hr>
          </ns3:TrackPointExtension>
        </extensions>
      </trkpt>
      <trkpt lat="55.9049433656036853790283203125" lon="23.86709284968674182891845703125">
        <ele>68.40000152587890625</ele>
        <time>2026-07-25T10:13:34.000Z</time>
        <extensions>
          <ns3:TrackPointExtension>
            <ns3:atemp>27.0</ns3:atemp>
            <ns3:hr>117</ns3:hr>
          </ns3:TrackPointExtension>
        </extensions>
      </trkpt>
      <trkpt lat="55.9049574472010135650634765625" lon="23.86726501397788524627685546875">
        <ele>68.59999847412109375</ele>
        <time>2026-07-25T10:13:41.000Z</time>
        <extensions>
          <ns3:TrackPointExtension>
            <ns3:atemp>27.0</ns3:atemp>
            <ns3:hr>116</ns3:hr>
          </ns3:TrackPointExtension>
        </extensions>
      </trkpt>
      <trkpt lat="55.90497530065476894378662109375" lon="23.8674888946115970611572265625">
        <ele>68.40000152587890625</ele>
        <time>2026-07-25T10:13:49.000Z</time>
        <extensions>
          <ns3:TrackPointExtension>
            <ns3:atemp>27.0</ns3:atemp>
            <ns3:hr>118</ns3:hr>
          </ns3:TrackPointExtension>
        </extensions>
      </trkpt>
      <trkpt lat="55.9050075709819793701171875" lon="23.86751412414014339447021484375">
        <ele>68.40000152587890625</ele>
        <time>2026-07-25T10:13:52.000Z</time>
        <extensions>
          <ns3:TrackPointExtension>
            <ns3:atemp>27.0</ns3:atemp>
            <ns3:hr>117</ns3:hr>
          </ns3:TrackPointExtension>
        </extensions>
      </trkpt>
      <trkpt lat="55.90504034422338008880615234375" lon="23.867493756115436553955078125">
        <ele>68.40000152587890625</ele>
        <time>2026-07-25T10:13:54.000Z</time>
        <extensions>
          <ns3:TrackPointExtension>
            <ns3:atemp>27.0</ns3:atemp>
            <ns3:hr>115</ns3:hr>
          </ns3:TrackPointExtension>
        </extensions>
      </trkpt>
      <trkpt lat="55.90514830313622951507568359375" lon="23.867489062249660491943359375">
        <ele>68.40000152587890625</ele>
        <time>2026-07-25T10:14:02.000Z</time>
        <extensions>
          <ns3:TrackPointExtension>
            <ns3:atemp>27.0</ns3:atemp>
            <ns3:hr>115</ns3:hr>
          </ns3:TrackPointExtension>
        </extensions>
      </trkpt>
      <trkpt lat="55.9052635543048381805419921875" lon="23.8674201630055904388427734375">
        <ele>68.40000152587890625</ele>
        <time>2026-07-25T10:14:10.000Z</time>
        <extensions>
          <ns3:TrackPointExtension>
            <ns3:atemp>27.0</ns3:atemp>
            <ns3:hr>113</ns3:hr>
          </ns3:TrackPointExtension>
        </extensions>
      </trkpt>
      <trkpt lat="55.90535718016326427459716796875" lon="23.86734279803931713104248046875">
        <ele>68.40000152587890625</ele>
        <time>2026-07-25T10:14:17.000Z</time>
        <extensions>
          <ns3:TrackPointExtension>
            <ns3:atemp>27.0</ns3:atemp>
            <ns3:hr>111</ns3:hr>
          </ns3:TrackPointExtension>
        </extensions>
      </trkpt>
      <trkpt lat="55.90542959980666637420654296875" lon="23.86733290739357471466064453125">
        <ele>68.1999969482421875</ele>
        <time>2026-07-25T10:14:23.000Z</time>
        <extensions>
          <ns3:TrackPointExtension>
            <ns3:atemp>27.0</ns3:atemp>
            <ns3:hr>111</ns3:hr>
          </ns3:TrackPointExtension>
        </extensions>
      </trkpt>
      <trkpt lat="55.9055059589445590972900390625" lon="23.8673551194369792938232421875">
        <ele>68.1999969482421875</ele>
        <time>2026-07-25T10:14:29.000Z</time>
        <extensions>
          <ns3:TrackPointExtension>
            <ns3:atemp>27.0</ns3:atemp>
            <ns3:hr>112</ns3:hr>
          </ns3:TrackPointExtension>
        </extensions>
      </trkpt>
      <trkpt lat="55.9055404923856258392333984375" lon="23.867377750575542449951171875">
        <ele>68.40000152587890625</ele>
        <time>2026-07-25T10:14:31.000Z</time>
        <extensions>
          <ns3:TrackPointExtension>
            <ns3:atemp>27.0</ns3:atemp>
            <ns3:hr>112</ns3:hr>
          </ns3:TrackPointExtension>
        </extensions>
      </trkpt>
      <trkpt lat="55.90564618818461894989013671875" lon="23.867500126361846923828125">
        <ele>68.40000152587890625</ele>
        <time>2026-07-25T10:14:39.000Z</time>
        <extensions>
          <ns3:TrackPointExtension>
            <ns3:atemp>27.0</ns3:atemp>
            <ns3:hr>113</ns3:hr>
          </ns3:TrackPointExtension>
        </extensions>
      </trkpt>
      <trkpt lat="55.905763618648052215576171875" lon="23.86760246939957141876220703125">
        <ele>68</ele>
        <time>2026-07-25T10:14:48.000Z</time>
        <extensions>
          <ns3:TrackPointExtension>
            <ns3:atemp>27.0</ns3:atemp>
            <ns3:hr>116</ns3:hr>
          </ns3:TrackPointExtension>
        </extensions>
      </trkpt>
      <trkpt lat="55.9058556519448757171630859375" lon="23.86756089515984058380126953125">
        <ele>67.59999847412109375</ele>
        <time>2026-07-25T10:14:55.000Z</time>
        <extensions>
          <ns3:TrackPointExtension>
            <ns3:atemp>27.0</ns3:atemp>
            <ns3:hr>116</ns3:hr>
          </ns3:TrackPointExtension>
        </extensions>
      </trkpt>
      <trkpt lat="55.9059465117752552032470703125" lon="23.8676008768379688262939453125">
        <ele>68</ele>
        <time>2026-07-25T10:15:02.000Z</time>
        <extensions>
          <ns3:TrackPointExtension>
            <ns3:atemp>27.0</ns3:atemp>
            <ns3:hr>117</ns3:hr>
          </ns3:TrackPointExtension>
        </extensions>
      </trkpt>
      <trkpt lat="55.906039886176586151123046875" lon="23.86765100061893463134765625">
        <ele>69.1999969482421875</ele>
        <time>2026-07-25T10:15:10.000Z</time>
        <extensions>
          <ns3:TrackPointExtension>
            <ns3:atemp>27.0</ns3:atemp>
            <ns3:hr>118</ns3:hr>
          </ns3:TrackPointExtension>
        </extensions>
      </trkpt>
      <trkpt lat="55.90606193058192729949951171875" lon="23.86765259318053722381591796875">
        <ele>69.59999847412109375</ele>
        <time>2026-07-25T10:15:12.000Z</time>
        <extensions>
          <ns3:TrackPointExtension>
            <ns3:atemp>27.0</ns3:atemp>
            <ns3:hr>118</ns3:hr>
          </ns3:TrackPointExtension>
        </extensions>
      </trkpt>
      <trkpt lat="55.906138122081756591796875" lon="23.8676112703979015350341796875">
        <ele>69.40000152587890625</ele>
        <time>2026-07-25T10:15:17.000Z</time>
        <extensions>
          <ns3:TrackPointExtension>
            <ns3:atemp>27.0</ns3:atemp>
            <ns3:hr>120</ns3:hr>
          </ns3:TrackPointExtension>
        </extensions>
      </trkpt>
      <trkpt lat="55.9062358550727367401123046875" lon="23.86747523210942745208740234375">
        <ele>69.1999969482421875</ele>
        <time>2026-07-25T10:15:25.000Z</time>
        <extensions>
          <ns3:TrackPointExtension>
            <ns3:atemp>27.0</ns3:atemp>
            <ns3:hr>119</ns3:hr>
          </ns3:TrackPointExtension>
        </extensions>
      </trkpt>
      <trkpt lat="55.9063394553959369659423828125" lon="23.8673380203545093536376953125">
        <ele>69.40000152587890625</ele>
        <time>2026-07-25T10:15:35.000Z</time>
        <extensions>
          <ns3:TrackPointExtension>
            <ns3:atemp>27.0</ns3:atemp>
            <ns3:hr>117</ns3:hr>
          </ns3:TrackPointExtension>
        </extensions>
      </trkpt>
      <trkpt lat="55.90640340931713581085205078125" lon="23.86719368398189544677734375">
        <ele>69.1999969482421875</ele>
        <time>2026-07-25T10:15:43.000Z</time>
        <extensions>
          <ns3:TrackPointExtension>
            <ns3:atemp>27.0</ns3:atemp>
            <ns3:hr>117</ns3:hr>
          </ns3:TrackPointExtension>
        </extensions>
      </trkpt>
      <trkpt lat="55.90648387558758258819580078125" lon="23.86702428571879863739013671875">
        <ele>69.40000152587890625</ele>
        <time>2026-07-25T10:15:51.000Z</time>
        <extensions>
          <ns3:TrackPointExtension>
            <ns3:atemp>27.0</ns3:atemp>
            <ns3:hr>115</ns3:hr>
          </ns3:TrackPointExtension>
        </extensions>
      </trkpt>
      <trkpt lat="55.9065433032810688018798828125" lon="23.86702193878591060638427734375">
        <ele>69.40000152587890625</ele>
        <time>2026-07-25T10:15:57.000Z</time>
        <extensions>
          <ns3:TrackPointExtension>
            <ns3:atemp>27.0</ns3:atemp>
            <ns3:hr>115</ns3:hr>
          </ns3:TrackPointExtension>
        </extensions>
      </trkpt>
      <trkpt lat="55.90664916671812534332275390625" lon="23.8670299015939235687255859375">
        <ele>69.40000152587890625</ele>
        <time>2026-07-25T10:16:04.000Z</time>
        <extensions>
          <ns3:TrackPointExtension>
            <ns3:atemp>27.0</ns3:atemp>
            <ns3:hr>118</ns3:hr>
          </ns3:TrackPointExtension>
        </extensions>
      </trkpt>
      <trkpt lat="55.90666878037154674530029296875" lon="23.86702260933816432952880859375">
        <ele>69.40000152587890625</ele>
        <time>2026-07-25T10:16:05.000Z</time>
        <extensions>
          <ns3:TrackPointExtension>
            <ns3:atemp>27.0</ns3:atemp>
            <ns3:hr>118</ns3:hr>
          </ns3:TrackPointExtension>
        </extensions>
      </trkpt>
      <trkpt lat="55.90678612701594829559326171875" lon="23.86696167290210723876953125">
        <ele>70</ele>
        <time>2026-07-25T10:16:14.000Z</time>
        <extensions>
          <ns3:TrackPointExtension>
            <ns3:atemp>27.0</ns3:atemp>
            <ns3:hr>120</ns3:hr>
          </ns3:TrackPointExtension>
        </extensions>
      </trkpt>
      <trkpt lat="55.90681965462863445281982421875" lon="23.86682060547173023223876953125">
        <ele>69.8000030517578125</ele>
        <time>2026-07-25T10:16:21.000Z</time>
        <extensions>
          <ns3:TrackPointExtension>
            <ns3:atemp>27.0</ns3:atemp>
            <ns3:hr>118</ns3:hr>
          </ns3:TrackPointExtension>
        </extensions>
      </trkpt>
      <trkpt lat="55.90680129826068878173828125" lon="23.86672136373817920684814453125">
        <ele>69</ele>
        <time>2026-07-25T10:16:25.000Z</time>
        <extensions>
          <ns3:TrackPointExtension>
            <ns3:atemp>27.0</ns3:atemp>
            <ns3:hr>115</ns3:hr>
          </ns3:TrackPointExtension>
        </extensions>
      </trkpt>
      <trkpt lat="55.90678947977721691131591796875" lon="23.86665648780763149261474609375">
        <ele>68.59999847412109375</ele>
        <time>2026-07-25T10:16:28.000Z</time>
        <extensions>
          <ns3:TrackPointExtension>
            <ns3:atemp>27.0</ns3:atemp>
            <ns3:hr>114</ns3:hr>
          </ns3:TrackPointExtension>
        </extensions>
      </trkpt>
      <trkpt lat="55.90677455998957157135009765625" lon="23.86645414866507053375244140625">
        <ele>68.1999969482421875</ele>
        <time>2026-07-25T10:16:37.000Z</time>
        <extensions>
          <ns3:TrackPointExtension>
            <ns3:atemp>27.0</ns3:atemp>
            <ns3:hr>114</ns3:hr>
          </ns3:TrackPointExtension>
        </extensions>
      </trkpt>
      <trkpt lat="55.906724520027637481689453125" lon="23.8662810623645782470703125">
        <ele>68.1999969482421875</ele>
        <time>2026-07-25T10:16:44.000Z</time>
        <extensions>
          <ns3:TrackPointExtension>
            <ns3:atemp>27.0</ns3:atemp>
            <ns3:hr>113</ns3:hr>
          </ns3:TrackPointExtension>
        </extensions>
      </trkpt>
      <trkpt lat="55.9066800959408283233642578125" lon="23.866182155907154083251953125">
        <ele>68.59999847412109375</ele>
        <time>2026-07-25T10:16:50.000Z</time>
        <extensions>
          <ns3:TrackPointExtension>
            <ns3:atemp>27.0</ns3:atemp>
            <ns3:hr>111</ns3:hr>
          </ns3:TrackPointExtension>
        </extensions>
      </trkpt>
      <trkpt lat="55.90663827024400234222412109375" lon="23.865993060171604156494140625">
        <ele>69.59999847412109375</ele>
        <time>2026-07-25T10:16:59.000Z</time>
        <extensions>
          <ns3:TrackPointExtension>
            <ns3:atemp>27.0</ns3:atemp>
            <ns3:hr>112</ns3:hr>
          </ns3:TrackPointExtension>
        </extensions>
      </trkpt>
      <trkpt lat="55.90663307346403598785400390625" lon="23.8659538328647613525390625">
        <ele>69.59999847412109375</ele>
        <time>2026-07-25T10:17:00.000Z</time>
        <extensions>
          <ns3:TrackPointExtension>
            <ns3:atemp>27.0</ns3:atemp>
            <ns3:hr>112</ns3:hr>
          </ns3:TrackPointExtension>
        </extensions>
      </trkpt>
      <trkpt lat="55.90662418864667415618896484375" lon="23.86585216037929058074951171875">
        <ele>69.59999847412109375</ele>
        <time>2026-07-25T10:17:04.000Z</time>
        <extensions>
          <ns3:TrackPointExtension>
            <ns3:atemp>27.0</ns3:atemp>
            <ns3:hr>113</ns3:hr>
          </ns3:TrackPointExtension>
        </extensions>
      </trkpt>
      <trkpt lat="55.90659652836620807647705078125" lon="23.86566390283405780792236328125">
        <ele>69.59999847412109375</ele>
        <time>2026-07-25T10:17:12.000Z</time>
        <extensions>
          <ns3:TrackPointExtension>
            <ns3:atemp>27.0</ns3:atemp>
            <ns3:hr>115</ns3:hr>
          </ns3:TrackPointExtension>
        </extensions>
      </trkpt>
      <trkpt lat="55.9065942652523517608642578125" lon="23.8654708676040172576904296875">
        <ele>69.59999847412109375</ele>
        <time>2026-07-25T10:17:20.000Z</time>
        <extensions>
          <ns3:TrackPointExtension>
            <ns3:atemp>27.0</ns3:atemp>
            <ns3:hr>114</ns3:hr>
          </ns3:TrackPointExtension>
        </extensions>
      </trkpt>
      <trkpt lat="55.90662670321762561798095703125" lon="23.8652510941028594970703125">
        <ele>70</ele>
        <time>2026-07-25T10:17:29.000Z</time>
        <extensions>
          <ns3:TrackPointExtension>
            <ns3:atemp>27.0</ns3:atemp>
            <ns3:hr>111</ns3:hr>
          </ns3:TrackPointExtension>
        </extensions>
      </trkpt>
      <trkpt lat="55.90671907179057598114013671875" lon="23.86516937054693698883056640625">
        <ele>70.40000152587890625</ele>
        <time>2026-07-25T10:17:37.000Z</time>
        <extensions>
          <ns3:TrackPointExtension>
            <ns3:atemp>27.0</ns3:atemp>
            <ns3:hr>111</ns3:hr>
          </ns3:TrackPointExtension>
        </extensions>
      </trkpt>
      <trkpt lat="55.9068235941231250762939453125" lon="23.86512796394526958465576171875">
        <ele>70.40000152587890625</ele>
        <time>2026-07-25T10:17:44.000Z</time>
        <extensions>
          <ns3:TrackPointExtension>
            <ns3:atemp>27.0</ns3:atemp>
            <ns3:hr>110</ns3:hr>
          </ns3:TrackPointExtension>
        </extensions>
      </trkpt>
      <trkpt lat="55.90688453055918216705322265625" lon="23.865112625062465667724609375">
        <ele>70.40000152587890625</ele>
        <time>2026-07-25T10:17:49.000Z</time>
        <extensions>
          <ns3:TrackPointExtension>
            <ns3:atemp>27.0</ns3:atemp>
            <ns3:hr>114</ns3:hr>
          </ns3:TrackPointExtension>
        </extensions>
      </trkpt>
      <trkpt lat="55.906914956867694854736328125" lon="23.8651114515960216522216796875">
        <ele>70.40000152587890625</ele>
        <time>2026-07-25T10:17:52.000Z</time>
        <extensions>
          <ns3:TrackPointExtension>
            <ns3:atemp>27.0</ns3:atemp>
            <ns3:hr>116</ns3:hr>
          </ns3:TrackPointExtension>
        </extensions>
      </trkpt>
      <trkpt lat="55.90705216862261295318603515625" lon="23.86511958204209804534912109375">
        <ele>70.40000152587890625</ele>
        <time>2026-07-25T10:18:01.000Z</time>
        <extensions>
          <ns3:TrackPointExtension>
            <ns3:atemp>27.0</ns3:atemp>
            <ns3:hr>116</ns3:hr>
          </ns3:TrackPointExtension>
        </extensions>
      </trkpt>
      <trkpt lat="55.90716113336384296417236328125" lon="23.8650499284267425537109375">
        <ele>70.40000152587890625</ele>
        <time>2026-07-25T10:18:09.000Z</time>
        <extensions>
          <ns3:TrackPointExtension>
            <ns3:atemp>27.0</ns3:atemp>
            <ns3:hr>115</ns3:hr>
          </ns3:TrackPointExtension>
        </extensions>
      </trkpt>
      <trkpt lat="55.9071803279221057891845703125" lon="23.86502687819302082061767578125">
        <ele>70.59999847412109375</ele>
        <time>2026-07-25T10:18:11.000Z</time>
        <extensions>
          <ns3:TrackPointExtension>
            <ns3:atemp>27.0</ns3:atemp>
            <ns3:hr>116</ns3:hr>
          </ns3:TrackPointExtension>
        </extensions>
      </trkpt>
      <trkpt lat="55.90723891742527484893798828125" lon="23.86499821208417415618896484375">
        <ele>70.8000030517578125</ele>
        <time>2026-07-25T10:18:15.000Z</time>
        <extensions>
          <ns3:TrackPointExtension>
            <ns3:atemp>27.0</ns3:atemp>
            <ns3:hr>116</ns3:hr>
          </ns3:TrackPointExtension>
        </extensions>
      </trkpt>
      <trkpt lat="55.90734804980456829071044921875" lon="23.8649377785623073577880859375">
        <ele>70.59999847412109375</ele>
        <time>2026-07-25T10:18:23.000Z</time>
        <extensions>
          <ns3:TrackPointExtension>
            <ns3:atemp>27.0</ns3:atemp>
            <ns3:hr>118</ns3:hr>
          </ns3:TrackPointExtension>
        </extensions>
      </trkpt>
      <trkpt lat="55.9074475429952144622802734375" lon="23.86489712633192539215087890625">
        <ele>70.40000152587890625</ele>
        <time>2026-07-25T10:18:32.000Z</time>
        <extensions>
          <ns3:TrackPointExtension>
            <ns3:atemp>27.0</ns3:atemp>
            <ns3:hr>118</ns3:hr>
          </ns3:TrackPointExtension>
        </extensions>
      </trkpt>
      <trkpt lat="55.907571427524089813232421875" lon="23.86487315408885478973388671875">
        <ele>70.40000152587890625</ele>
        <time>2026-07-25T10:18:40.000Z</time>
        <extensions>
          <ns3:TrackPointExtension>
            <ns3:atemp>27.0</ns3:atemp>
            <ns3:hr>117</ns3:hr>
          </ns3:TrackPointExtension>
        </extensions>
      </trkpt>
      <trkpt lat="55.90765952132642269134521484375" lon="23.8648251257836818695068359375">
        <ele>71</ele>
        <time>2026-07-25T10:18:46.000Z</time>
        <extensions>
          <ns3:TrackPointExtension>
            <ns3:atemp>27.0</ns3:atemp>
            <ns3:hr>116</ns3:hr>
          </ns3:TrackPointExtension>
        </extensions>
      </trkpt>
      <trkpt lat="55.90775138698518276214599609375" lon="23.864778019487857818603515625">
        <ele>71</ele>
        <time>2026-07-25T10:18:53.000Z</time>
        <extensions>
          <ns3:TrackPointExtension>
            <ns3:atemp>27.0</ns3:atemp>
            <ns3:hr>119</ns3:hr>
          </ns3:TrackPointExtension>
        </extensions>
      </trkpt>
      <trkpt lat="55.9077663905918598175048828125" lon="23.86477005667984485626220703125">
        <ele>71.1999969482421875</ele>
        <time>2026-07-25T10:18:54.000Z</time>
        <extensions>
          <ns3:TrackPointExtension>
            <ns3:atemp>27.0</ns3:atemp>
            <ns3:hr>122</ns3:hr>
          </ns3:TrackPointExtension>
        </extensions>
      </trkpt>
      <trkpt lat="55.90784660540521144866943359375" lon="23.86474750936031341552734375">
        <ele>71</ele>
        <time>2026-07-25T10:19:00.000Z</time>
        <extensions>
          <ns3:TrackPointExtension>
            <ns3:atemp>27.0</ns3:atemp>
            <ns3:hr>122</ns3:hr>
          </ns3:TrackPointExtension>
        </extensions>
      </trkpt>
      <trkpt lat="55.9079357050359249114990234375" lon="23.864678107202053070068359375">
        <ele>71</ele>
        <time>2026-07-25T10:19:07.000Z</time>
        <extensions>
          <ns3:TrackPointExtension>
            <ns3:atemp>27.0</ns3:atemp>
            <ns3:hr>122</ns3:hr>
          </ns3:TrackPointExtension>
        </extensions>
      </trkpt>
      <trkpt lat="55.9080491960048675537109375" lon="23.86462622322142124176025390625">
        <ele>70.8000030517578125</ele>
        <time>2026-07-25T10:19:15.000Z</time>
        <extensions>
          <ns3:TrackPointExtension>
            <ns3:atemp>27.0</ns3:atemp>
            <ns3:hr>122</ns3:hr>
          </ns3:TrackPointExtension>
        </extensions>
      </trkpt>
      <trkpt lat="55.9081301651895046234130859375" lon="23.86458967812359333038330078125">
        <ele>70.59999847412109375</ele>
        <time>2026-07-25T10:19:23.000Z</time>
        <extensions>
          <ns3:TrackPointExtension>
            <ns3:atemp>27.0</ns3:atemp>
            <ns3:hr>122</ns3:hr>
          </ns3:TrackPointExtension>
        </extensions>
      </trkpt>
      <trkpt lat="55.9081358648836612701416015625" lon="23.86461314745247364044189453125">
        <ele>70.8000030517578125</ele>
        <time>2026-07-25T10:19:30.000Z</time>
        <extensions>
          <ns3:TrackPointExtension>
            <ns3:atemp>27.0</ns3:atemp>
            <ns3:hr>121</ns3:hr>
          </ns3:TrackPointExtension>
        </extensions>
      </trkpt>
      <trkpt lat="55.90813008137047290802001953125" lon="23.86462085880339145660400390625">
        <ele>70.8000030517578125</ele>
        <time>2026-07-25T10:19:34.000Z</time>
        <extensions>
          <ns3:TrackPointExtension>
            <ns3:atemp>27.0</ns3:atemp>
            <ns3:hr>117</ns3:hr>
          </ns3:TrackPointExtension>
        </extensions>
      </trkpt>
      <trkpt lat="55.9081358648836612701416015625" lon="23.864613734185695648193359375">
        <ele>71</ele>
        <time>2026-07-25T10:19:37.000Z</time>
        <extensions>
          <ns3:TrackPointExtension>
            <ns3:atemp>27.0</ns3:atemp>
            <ns3:hr>113</ns3:hr>
          </ns3:TrackPointExtension>
        </extensions>
      </trkpt>
      <trkpt lat="55.908138044178485870361328125" lon="23.86460929177701473236083984375">
        <ele>70.8000030517578125</ele>
        <time>2026-07-25T10:19:38.000Z</time>
        <extensions>
          <ns3:TrackPointExtension>
            <ns3:atemp>27.0</ns3:atemp>
            <ns3:hr>113</ns3:hr>
          </ns3:TrackPointExtension>
        </extensions>
      </trkpt>
      <trkpt lat="55.90822479687631130218505859375" lon="23.86455900035798549652099609375">
        <ele>69.8000030517578125</ele>
        <time>2026-07-25T10:19:44.000Z</time>
        <extensions>
          <ns3:TrackPointExtension>
            <ns3:atemp>27.0</ns3:atemp>
            <ns3:hr>112</ns3:hr>
          </ns3:TrackPointExtension>
        </extensions>
      </trkpt>
      <trkpt lat="55.90828933753073215484619140625" lon="23.86452890932559967041015625">
        <ele>69.59999847412109375</ele>
        <time>2026-07-25T10:19:49.000Z</time>
        <extensions>
          <ns3:TrackPointExtension>
            <ns3:atemp>28.0</ns3:atemp>
            <ns3:hr>112</ns3:hr>
          </ns3:TrackPointExtension>
        </extensions>
      </trkpt>
      <trkpt lat="55.908316075801849365234375" lon="23.86451843194663524627685546875">
        <ele>69.40000152587890625</ele>
        <time>2026-07-25T10:19:51.000Z</time>
        <extensions>
          <ns3:TrackPointExtension>
            <ns3:atemp>27.0</ns3:atemp>
            <ns3:hr>112</ns3:hr>
          </ns3:TrackPointExtension>
        </extensions>
      </trkpt>
      <trkpt lat="55.908355973660945892333984375" lon="23.86450233869254589080810546875">
        <ele>69.40000152587890625</ele>
        <time>2026-07-25T10:19:54.000Z</time>
        <extensions>
          <ns3:TrackPointExtension>
            <ns3:atemp>27.0</ns3:atemp>
            <ns3:hr>109</ns3:hr>
          </ns3:TrackPointExtension>
        </extensions>
      </trkpt>
      <trkpt lat="55.9084117971360683441162109375" lon="23.86446512304246425628662109375">
        <ele>69.1999969482421875</ele>
        <time>2026-07-25T10:19:58.000Z</time>
        <extensions>
          <ns3:TrackPointExtension>
            <ns3:atemp>27.0</ns3:atemp>
            <ns3:hr>107</ns3:hr>
          </ns3:TrackPointExtension>
        </extensions>
      </trkpt>
      <trkpt lat="55.90851665474474430084228515625" lon="23.8644110597670078277587890625">
        <ele>69.1999969482421875</ele>
        <time>2026-07-25T10:20:06.000Z</time>
        <extensions>
          <ns3:TrackPointExtension>
            <ns3:atemp>27.0</ns3:atemp>
            <ns3:hr>108</ns3:hr>
          </ns3:TrackPointExtension>
        </extensions>
      </trkpt>
      <trkpt lat="55.9086364321410655975341796875" lon="23.8643766939640045166015625">
        <ele>68.40000152587890625</ele>
        <time>2026-07-25T10:20:16.000Z</time>
        <extensions>
          <ns3:TrackPointExtension>
            <ns3:atemp>27.0</ns3:atemp>
            <ns3:hr>107</ns3:hr>
          </ns3:TrackPointExtension>
        </extensions>
      </trkpt>
      <trkpt lat="55.908651016652584075927734375" lon="23.8643795438110828399658203125">
        <ele>68.1999969482421875</ele>
        <time>2026-07-25T10:20:17.000Z</time>
        <extensions>
          <ns3:TrackPointExtension>
            <ns3:atemp>27.0</ns3:atemp>
            <ns3:hr>108</ns3:hr>
          </ns3:TrackPointExtension>
        </extensions>
      </trkpt>
      <trkpt lat="55.90870155952870845794677734375" lon="23.86440929956734180450439453125">
        <ele>68.59999847412109375</ele>
        <time>2026-07-25T10:20:23.000Z</time>
        <extensions>
          <ns3:TrackPointExtension>
            <ns3:atemp>27.0</ns3:atemp>
            <ns3:hr>109</ns3:hr>
          </ns3:TrackPointExtension>
        </extensions>
      </trkpt>
      <trkpt lat="55.90875805355608463287353515625" lon="23.86451910249888896942138671875">
        <ele>67.8000030517578125</ele>
        <time>2026-07-25T10:20:28.000Z</time>
        <extensions>
          <ns3:TrackPointExtension>
            <ns3:atemp>28.0</ns3:atemp>
            <ns3:hr>112</ns3:hr>
          </ns3:TrackPointExtension>
        </extensions>
      </trkpt>
      <trkpt lat="55.90877515263855457305908203125" lon="23.86456377804279327392578125">
        <ele>67.8000030517578125</ele>
        <time>2026-07-25T10:20:30.000Z</time>
        <extensions>
          <ns3:TrackPointExtension>
            <ns3:atemp>27.0</ns3:atemp>
            <ns3:hr>112</ns3:hr>
          </ns3:TrackPointExtension>
        </extensions>
      </trkpt>
      <trkpt lat="55.90882728807628154754638671875" lon="23.86475396342575550079345703125">
        <ele>68</ele>
        <time>2026-07-25T10:20:39.000Z</time>
        <extensions>
          <ns3:TrackPointExtension>
            <ns3:atemp>28.0</ns3:atemp>
            <ns3:hr>112</ns3:hr>
          </ns3:TrackPointExtension>
        </extensions>
      </trkpt>
      <trkpt lat="55.90888001024723052978515625" lon="23.864899389445781707763671875">
        <ele>68</ele>
        <time>2026-07-25T10:20:46.000Z</time>
        <extensions>
          <ns3:TrackPointExtension>
            <ns3:atemp>28.0</ns3:atemp>
            <ns3:hr>114</ns3:hr>
          </ns3:TrackPointExtension>
        </extensions>
      </trkpt>
      <trkpt lat="55.90898570604622364044189453125" lon="23.8650179095566272735595703125">
        <ele>67.8000030517578125</ele>
        <time>2026-07-25T10:20:54.000Z</time>
        <extensions>
          <ns3:TrackPointExtension>
            <ns3:atemp>28.0</ns3:atemp>
            <ns3:hr>112</ns3:hr>
          </ns3:TrackPointExtension>
        </extensions>
      </trkpt>
      <trkpt lat="55.9090706147253513336181640625" lon="23.865077085793018341064453125">
        <ele>68</ele>
        <time>2026-07-25T10:21:01.000Z</time>
        <extensions>
          <ns3:TrackPointExtension>
            <ns3:atemp>27.0</ns3:atemp>
            <ns3:hr>110</ns3:hr>
          </ns3:TrackPointExtension>
        </extensions>
      </trkpt>
      <trkpt lat="55.9091906435787677764892578125" lon="23.86512293480336666107177734375">
        <ele>68.40000152587890625</ele>
        <time>2026-07-25T10:21:10.000Z</time>
        <extensions>
          <ns3:TrackPointExtension>
            <ns3:atemp>28.0</ns3:atemp>
            <ns3:hr>111</ns3:hr>
          </ns3:TrackPointExtension>
        </extensions>
      </trkpt>
      <trkpt lat="55.90929198078811168670654296875" lon="23.86512058787047863006591796875">
        <ele>69.40000152587890625</ele>
        <time>2026-07-25T10:21:18.000Z</time>
        <extensions>
          <ns3:TrackPointExtension>
            <ns3:atemp>28.0</ns3:atemp>
            <ns3:hr>113</ns3:hr>
          </ns3:TrackPointExtension>
        </extensions>
      </trkpt>
      <trkpt lat="55.90933154337108135223388671875" lon="23.86509594507515430450439453125">
        <ele>69.1999969482421875</ele>
        <time>2026-07-25T10:21:22.000Z</time>
        <extensions>
          <ns3:TrackPointExtension>
            <ns3:atemp>28.0</ns3:atemp>
            <ns3:hr>116</ns3:hr>
          </ns3:TrackPointExtension>
        </extensions>
      </trkpt>
      <trkpt lat="55.90937546454370021820068359375" lon="23.86508069001138210296630859375">
        <ele>69.1999969482421875</ele>
        <time>2026-07-25T10:21:25.000Z</time>
        <extensions>
          <ns3:TrackPointExtension>
            <ns3:atemp>28.0</ns3:atemp>
            <ns3:hr>119</ns3:hr>
          </ns3:TrackPointExtension>
        </extensions>
      </trkpt>
      <trkpt lat="55.90938770212233066558837890625" lon="23.8650772534310817718505859375">
        <ele>69.1999969482421875</ele>
        <time>2026-07-25T10:21:26.000Z</time>
        <extensions>
          <ns3:TrackPointExtension>
            <ns3:atemp>28.0</ns3:atemp>
            <ns3:hr>120</ns3:hr>
          </ns3:TrackPointExtension>
        </extensions>
      </trkpt>
      <trkpt lat="55.90948677621781826019287109375" lon="23.86503643356263637542724609375">
        <ele>69.1999969482421875</ele>
        <time>2026-07-25T10:21:33.000Z</time>
        <extensions>
          <ns3:TrackPointExtension>
            <ns3:atemp>28.0</ns3:atemp>
            <ns3:hr>119</ns3:hr>
          </ns3:TrackPointExtension>
        </extensions>
      </trkpt>
      <trkpt lat="55.90956103987991809844970703125" lon="23.86498161591589450836181640625">
        <ele>69.1999969482421875</ele>
        <time>2026-07-25T10:21:40.000Z</time>
        <extensions>
          <ns3:TrackPointExtension>
            <ns3:atemp>28.0</ns3:atemp>
            <ns3:hr>118</ns3:hr>
          </ns3:TrackPointExtension>
        </extensions>
      </trkpt>
      <trkpt lat="55.9096798114478588104248046875" lon="23.864847756922245025634765625">
        <ele>69.40000152587890625</ele>
        <time>2026-07-25T10:21:49.000Z</time>
        <extensions>
          <ns3:TrackPointExtension>
            <ns3:atemp>28.0</ns3:atemp>
            <ns3:hr>118</ns3:hr>
          </ns3:TrackPointExtension>
        </extensions>
      </trkpt>
      <trkpt lat="55.90978148393332958221435546875" lon="23.86476754210889339447021484375">
        <ele>69.1999969482421875</ele>
        <time>2026-07-25T10:21:58.000Z</time>
        <extensions>
          <ns3:TrackPointExtension>
            <ns3:atemp>28.0</ns3:atemp>
            <ns3:hr>116</ns3:hr>
          </ns3:TrackPointExtension>
        </extensions>
      </trkpt>
      <trkpt lat="55.90988315641880035400390625" lon="23.8647178374230861663818359375">
        <ele>69.40000152587890625</ele>
        <time>2026-07-25T10:22:05.000Z</time>
        <extensions>
          <ns3:TrackPointExtension>
            <ns3:atemp>28.0</ns3:atemp>
            <ns3:hr>117</ns3:hr>
          </ns3:TrackPointExtension>
        </extensions>
      </trkpt>
      <trkpt lat="55.909896232187747955322265625" lon="23.8647205196321010589599609375">
        <ele>69.59999847412109375</ele>
        <time>2026-07-25T10:22:06.000Z</time>
        <extensions>
          <ns3:TrackPointExtension>
            <ns3:atemp>28.0</ns3:atemp>
            <ns3:hr>117</ns3:hr>
          </ns3:TrackPointExtension>
        </extensions>
      </trkpt>
      <trkpt lat="55.91000896878540515899658203125" lon="23.86473954655230045318603515625">
        <ele>69.59999847412109375</ele>
        <time>2026-07-25T10:22:14.000Z</time>
        <extensions>
          <ns3:TrackPointExtension>
            <ns3:atemp>28.0</ns3:atemp>
            <ns3:hr>117</ns3:hr>
          </ns3:TrackPointExtension>
        </extensions>
      </trkpt>
      <trkpt lat="55.910118855535984039306640625" lon="23.86473451741039752960205078125">
        <ele>69</ele>
        <time>2026-07-25T10:22:22.000Z</time>
        <extensions>
          <ns3:TrackPointExtension>
            <ns3:atemp>28.0</ns3:atemp>
            <ns3:hr>117</ns3:hr>
          </ns3:TrackPointExtension>
        </extensions>
      </trkpt>
      <trkpt lat="55.91023008339107036590576171875" lon="23.8646353594958782196044921875">
        <ele>69.40000152587890625</ele>
        <time>2026-07-25T10:22:30.000Z</time>
        <extensions>
          <ns3:TrackPointExtension>
            <ns3:atemp>28.0</ns3:atemp>
            <ns3:hr>117</ns3:hr>
          </ns3:TrackPointExtension>
        </extensions>
      </trkpt>
      <trkpt lat="55.91031038202345371246337890625" lon="23.8645954616367816925048828125">
        <ele>69.59999847412109375</ele>
        <time>2026-07-25T10:22:37.000Z</time>
        <extensions>
          <ns3:TrackPointExtension>
            <ns3:atemp>28.0</ns3:atemp>
            <ns3:hr>119</ns3:hr>
          </ns3:TrackPointExtension>
        </extensions>
      </trkpt>
      <trkpt lat="55.91038296930491924285888671875" lon="23.86451055295765399932861328125">
        <ele>70</ele>
        <time>2026-07-25T10:22:43.000Z</time>
        <extensions>
          <ns3:TrackPointExtension>
            <ns3:atemp>28.0</ns3:atemp>
            <ns3:hr>119</ns3:hr>
          </ns3:TrackPointExtension>
        </extensions>
      </trkpt>
      <trkpt lat="55.91051188297569751739501953125" lon="23.86436772532761096954345703125">
        <ele>70.1999969482421875</ele>
        <time>2026-07-25T10:22:53.000Z</time>
        <extensions>
          <ns3:TrackPointExtension>
            <ns3:atemp>28.0</ns3:atemp>
            <ns3:hr>121</ns3:hr>
          </ns3:TrackPointExtension>
        </extensions>
      </trkpt>
      <trkpt lat="55.9106160700321197509765625" lon="23.86433084495365619659423828125">
        <ele>69.59999847412109375</ele>
        <time>2026-07-25T10:23:01.000Z</time>
        <extensions>
          <ns3:TrackPointExtension>
            <ns3:atemp>28.0</ns3:atemp>
            <ns3:hr>122</ns3:hr>
          </ns3:TrackPointExtension>
        </extensions>
      </trkpt>
      <trkpt lat="55.91073869727551937103271484375" lon="23.86437409557402133941650390625">
        <ele>69.40000152587890625</ele>
        <time>2026-07-25T10:23:10.000Z</time>
        <extensions>
          <ns3:TrackPointExtension>
            <ns3:atemp>28.0</ns3:atemp>
            <ns3:hr>119</ns3:hr>
          </ns3:TrackPointExtension>
        </extensions>
      </trkpt>
      <trkpt lat="55.91081866063177585601806640625" lon="23.86435766704380512237548828125">
        <ele>69.59999847412109375</ele>
        <time>2026-07-25T10:23:16.000Z</time>
        <extensions>
          <ns3:TrackPointExtension>
            <ns3:atemp>28.0</ns3:atemp>
            <ns3:hr>118</ns3:hr>
          </ns3:TrackPointExtension>
        </extensions>
      </trkpt>
      <trkpt lat="55.9109012223780155181884765625" lon="23.86431408114731311798095703125">
        <ele>69.8000030517578125</ele>
        <time>2026-07-25T10:23:23.000Z</time>
        <extensions>
          <ns3:TrackPointExtension>
            <ns3:atemp>28.0</ns3:atemp>
            <ns3:hr>117</ns3:hr>
          </ns3:TrackPointExtension>
        </extensions>
      </trkpt>
      <trkpt lat="55.9110242687165737152099609375" lon="23.8642752729356288909912109375">
        <ele>69.8000030517578125</ele>
        <time>2026-07-25T10:23:31.000Z</time>
        <extensions>
          <ns3:TrackPointExtension>
            <ns3:atemp>28.0</ns3:atemp>
            <ns3:hr>116</ns3:hr>
          </ns3:TrackPointExtension>
        </extensions>
      </trkpt>
      <trkpt lat="55.9111337363719940185546875" lon="23.86427342891693115234375">
        <ele>70.40000152587890625</ele>
        <time>2026-07-25T10:23:39.000Z</time>
        <extensions>
          <ns3:TrackPointExtension>
            <ns3:atemp>28.0</ns3:atemp>
            <ns3:hr>118</ns3:hr>
          </ns3:TrackPointExtension>
        </extensions>
      </trkpt>
      <trkpt lat="55.91120188124477863311767578125" lon="23.86424124240875244140625">
        <ele>70.40000152587890625</ele>
        <time>2026-07-25T10:23:45.000Z</time>
        <extensions>
          <ns3:TrackPointExtension>
            <ns3:atemp>27.0</ns3:atemp>
            <ns3:hr>120</ns3:hr>
          </ns3:TrackPointExtension>
        </extensions>
      </trkpt>
      <trkpt lat="55.9112432040274143218994140625" lon="23.864228837192058563232421875">
        <ele>70.8000030517578125</ele>
        <time>2026-07-25T10:23:48.000Z</time>
        <extensions>
          <ns3:TrackPointExtension>
            <ns3:atemp>27.0</ns3:atemp>
            <ns3:hr>120</ns3:hr>
          </ns3:TrackPointExtension>
        </extensions>
      </trkpt>
      <trkpt lat="55.9113461337983608245849609375" lon="23.86425104923546314239501953125">
        <ele>70.8000030517578125</ele>
        <time>2026-07-25T10:23:56.000Z</time>
        <extensions>
          <ns3:TrackPointExtension>
            <ns3:atemp>27.0</ns3:atemp>
            <ns3:hr>117</ns3:hr>
          </ns3:TrackPointExtension>
        </extensions>
      </trkpt>
      <trkpt lat="55.91145987622439861297607421875" lon="23.8642819784581661224365234375">
        <ele>70.8000030517578125</ele>
        <time>2026-07-25T10:24:04.000Z</time>
        <extensions>
          <ns3:TrackPointExtension>
            <ns3:atemp>27.0</ns3:atemp>
            <ns3:hr>117</ns3:hr>
          </ns3:TrackPointExtension>
        </extensions>
      </trkpt>
      <trkpt lat="55.9115600399672985076904296875" lon="23.8642801344394683837890625">
        <ele>70.8000030517578125</ele>
        <time>2026-07-25T10:24:11.000Z</time>
        <extensions>
          <ns3:TrackPointExtension>
            <ns3:atemp>27.0</ns3:atemp>
            <ns3:hr>115</ns3:hr>
          </ns3:TrackPointExtension>
        </extensions>
      </trkpt>
      <trkpt lat="55.9116790629923343658447265625" lon="23.8642635382711887359619140625">
        <ele>70.59999847412109375</ele>
        <time>2026-07-25T10:24:20.000Z</time>
        <extensions>
          <ns3:TrackPointExtension>
            <ns3:atemp>27.0</ns3:atemp>
            <ns3:hr>114</ns3:hr>
          </ns3:TrackPointExtension>
        </extensions>
      </trkpt>
      <trkpt lat="55.9118000976741313934326171875" lon="23.8642417453229427337646484375">
        <ele>71.1999969482421875</ele>
        <time>2026-07-25T10:24:28.000Z</time>
        <extensions>
          <ns3:TrackPointExtension>
            <ns3:atemp>27.0</ns3:atemp>
            <ns3:hr>113</ns3:hr>
          </ns3:TrackPointExtension>
        </extensions>
      </trkpt>
      <trkpt lat="55.911867320537567138671875" lon="23.86423529125750064849853515625">
        <ele>71.40000152587890625</ele>
        <time>2026-07-25T10:24:34.000Z</time>
        <extensions>
          <ns3:TrackPointExtension>
            <ns3:atemp>27.0</ns3:atemp>
            <ns3:hr>114</ns3:hr>
          </ns3:TrackPointExtension>
        </extensions>
      </trkpt>
      <trkpt lat="55.91188182123005390167236328125" lon="23.864234201610088348388671875">
        <ele>71.40000152587890625</ele>
        <time>2026-07-25T10:24:35.000Z</time>
        <extensions>
          <ns3:TrackPointExtension>
            <ns3:atemp>27.0</ns3:atemp>
            <ns3:hr>114</ns3:hr>
          </ns3:TrackPointExtension>
        </extensions>
      </trkpt>
      <trkpt lat="55.912002436816692352294921875" lon="23.86423294432461261749267578125">
        <ele>71</ele>
        <time>2026-07-25T10:24:44.000Z</time>
        <extensions>
          <ns3:TrackPointExtension>
            <ns3:atemp>27.0</ns3:atemp>
            <ns3:hr>114</ns3:hr>
          </ns3:TrackPointExtension>
        </extensions>
      </trkpt>
      <trkpt lat="55.9121202863752841949462890625" lon="23.86427099816501140594482421875">
        <ele>71.1999969482421875</ele>
        <time>2026-07-25T10:24:53.000Z</time>
        <extensions>
          <ns3:TrackPointExtension>
            <ns3:atemp>27.0</ns3:atemp>
            <ns3:hr>115</ns3:hr>
          </ns3:TrackPointExtension>
        </extensions>
      </trkpt>
      <trkpt lat="55.91223520226776599884033203125" lon="23.86421911418437957763671875">
        <ele>71</ele>
        <time>2026-07-25T10:25:01.000Z</time>
        <extensions>
          <ns3:TrackPointExtension>
            <ns3:atemp>27.0</ns3:atemp>
            <ns3:hr>114</ns3:hr>
          </ns3:TrackPointExtension>
        </extensions>
      </trkpt>
      <trkpt lat="55.912348441779613494873046875" lon="23.86413319967687129974365234375">
        <ele>70.8000030517578125</ele>
        <time>2026-07-25T10:25:09.000Z</time>
        <extensions>
          <ns3:TrackPointExtension>
            <ns3:atemp>27.0</ns3:atemp>
            <ns3:hr>114</ns3:hr>
          </ns3:TrackPointExtension>
        </extensions>
      </trkpt>
      <trkpt lat="55.91242513619363307952880859375" lon="23.86410051025450229644775390625">
        <ele>70.40000152587890625</ele>
        <time>2026-07-25T10:25:16.000Z</time>
        <extensions>
          <ns3:TrackPointExtension>
            <ns3:atemp>27.0</ns3:atemp>
            <ns3:hr>114</ns3:hr>
          </ns3:TrackPointExtension>
        </extensions>
      </trkpt>
      <trkpt lat="55.9125350229442119598388671875" lon="23.86407972313463687896728515625">
        <ele>70</ele>
        <time>2026-07-25T10:25:24.000Z</time>
        <extensions>
          <ns3:TrackPointExtension>
            <ns3:atemp>27.0</ns3:atemp>
            <ns3:hr>112</ns3:hr>
          </ns3:TrackPointExtension>
        </extensions>
      </trkpt>
      <trkpt lat="55.91260400600731372833251953125" lon="23.8640452735126018524169921875">
        <ele>70.1999969482421875</ele>
        <time>2026-07-25T10:25:29.000Z</time>
        <extensions>
          <ns3:TrackPointExtension>
            <ns3:atemp>27.0</ns3:atemp>
            <ns3:hr>109</ns3:hr>
          </ns3:TrackPointExtension>
        </extensions>
      </trkpt>
      <trkpt lat="55.9126325882971286773681640625" lon="23.86404116638004779815673828125">
        <ele>70.1999969482421875</ele>
        <time>2026-07-25T10:25:31.000Z</time>
        <extensions>
          <ns3:TrackPointExtension>
            <ns3:atemp>27.0</ns3:atemp>
            <ns3:hr>110</ns3:hr>
          </ns3:TrackPointExtension>
        </extensions>
      </trkpt>
      <trkpt lat="55.91271221637725830078125" lon="23.86407603509724140167236328125">
        <ele>70</ele>
        <time>2026-07-25T10:25:37.000Z</time>
        <extensions>
          <ns3:TrackPointExtension>
            <ns3:atemp>27.0</ns3:atemp>
            <ns3:hr>110</ns3:hr>
          </ns3:TrackPointExtension>
        </extensions>
      </trkpt>
      <trkpt lat="55.9127415530383586883544921875" lon="23.8640774600207805633544921875">
        <ele>69.8000030517578125</ele>
        <time>2026-07-25T10:25:39.000Z</time>
        <extensions>
          <ns3:TrackPointExtension>
            <ns3:atemp>27.0</ns3:atemp>
            <ns3:hr>111</ns3:hr>
          </ns3:TrackPointExtension>
        </extensions>
      </trkpt>
      <trkpt lat="55.91283434070646762847900390625" lon="23.86406958103179931640625">
        <ele>69.40000152587890625</ele>
        <time>2026-07-25T10:25:45.000Z</time>
        <extensions>
          <ns3:TrackPointExtension>
            <ns3:atemp>27.0</ns3:atemp>
            <ns3:hr>111</ns3:hr>
          </ns3:TrackPointExtension>
        </extensions>
      </trkpt>
      <trkpt lat="55.912861414253711700439453125" lon="23.8640727661550045013427734375">
        <ele>69.1999969482421875</ele>
        <time>2026-07-25T10:25:47.000Z</time>
        <extensions>
          <ns3:TrackPointExtension>
            <ns3:atemp>27.0</ns3:atemp>
            <ns3:hr>111</ns3:hr>
          </ns3:TrackPointExtension>
        </extensions>
      </trkpt>
      <trkpt lat="55.91290206648409366607666015625" lon="23.86418751440942287445068359375">
        <ele>68.8000030517578125</ele>
        <time>2026-07-25T10:25:53.000Z</time>
        <extensions>
          <ns3:TrackPointExtension>
            <ns3:atemp>27.0</ns3:atemp>
            <ns3:hr>112</ns3:hr>
          </ns3:TrackPointExtension>
        </extensions>
      </trkpt>
      <trkpt lat="55.91290944255888462066650390625" lon="23.86428290046751499176025390625">
        <ele>68.40000152587890625</ele>
        <time>2026-07-25T10:25:57.000Z</time>
        <extensions>
          <ns3:TrackPointExtension>
            <ns3:atemp>27.0</ns3:atemp>
            <ns3:hr>111</ns3:hr>
          </ns3:TrackPointExtension>
        </extensions>
      </trkpt>
      <trkpt lat="55.912931822240352630615234375" lon="23.86441449634730815887451171875">
        <ele>68.1999969482421875</ele>
        <time>2026-07-25T10:26:02.000Z</time>
        <extensions>
          <ns3:TrackPointExtension>
            <ns3:atemp>27.0</ns3:atemp>
            <ns3:hr>110</ns3:hr>
          </ns3:TrackPointExtension>
        </extensions>
      </trkpt>
      <trkpt lat="55.91294464655220508575439453125" lon="23.8646299950778484344482421875">
        <ele>68.59999847412109375</ele>
        <time>2026-07-25T10:26:10.000Z</time>
        <extensions>
          <ns3:TrackPointExtension>
            <ns3:atemp>27.0</ns3:atemp>
            <ns3:hr>110</ns3:hr>
          </ns3:TrackPointExtension>
        </extensions>
      </trkpt>
      <trkpt lat="55.91293810866773128509521484375" lon="23.8648469187319278717041015625">
        <ele>68.8000030517578125</ele>
        <time>2026-07-25T10:26:19.000Z</time>
        <extensions>
          <ns3:TrackPointExtension>
            <ns3:atemp>27.0</ns3:atemp>
            <ns3:hr>110</ns3:hr>
          </ns3:TrackPointExtension>
        </extensions>
      </trkpt>
      <trkpt lat="55.91296493075788021087646484375" lon="23.86504347436130046844482421875">
        <ele>69</ele>
        <time>2026-07-25T10:26:28.000Z</time>
        <extensions>
          <ns3:TrackPointExtension>
            <ns3:atemp>27.0</ns3:atemp>
            <ns3:hr>110</ns3:hr>
          </ns3:TrackPointExtension>
        </extensions>
      </trkpt>
      <trkpt lat="55.91301203705370426177978515625" lon="23.86521287262439727783203125">
        <ele>69</ele>
        <time>2026-07-25T10:26:35.000Z</time>
        <extensions>
          <ns3:TrackPointExtension>
            <ns3:atemp>27.0</ns3:atemp>
            <ns3:hr>112</ns3:hr>
          </ns3:TrackPointExtension>
        </extensions>
      </trkpt>
      <trkpt lat="55.91308395378291606903076171875" lon="23.86537506245076656341552734375">
        <ele>69</ele>
        <time>2026-07-25T10:26:43.000Z</time>
        <extensions>
          <ns3:TrackPointExtension>
            <ns3:atemp>27.0</ns3:atemp>
            <ns3:hr>115</ns3:hr>
          </ns3:TrackPointExtension>
        </extensions>
      </trkpt>
      <trkpt lat="55.91314178891479969024658203125" lon="23.86550749652087688446044921875">
        <ele>69</ele>
        <time>2026-07-25T10:26:50.000Z</time>
        <extensions>
          <ns3:TrackPointExtension>
            <ns3:atemp>27.0</ns3:atemp>
            <ns3:hr>117</ns3:hr>
          </ns3:TrackPointExtension>
        </extensions>
      </trkpt>
      <trkpt lat="55.91324270702898502349853515625" lon="23.8656921498477458953857421875">
        <ele>68.40000152587890625</ele>
        <time>2026-07-25T10:26:58.000Z</time>
        <extensions>
          <ns3:TrackPointExtension>
            <ns3:atemp>27.0</ns3:atemp>
            <ns3:hr>117</ns3:hr>
          </ns3:TrackPointExtension>
        </extensions>
      </trkpt>
      <trkpt lat="55.91329534538090229034423828125" lon="23.86582148261368274688720703125">
        <ele>68.1999969482421875</ele>
        <time>2026-07-25T10:27:05.000Z</time>
        <extensions>
          <ns3:TrackPointExtension>
            <ns3:atemp>27.0</ns3:atemp>
            <ns3:hr>118</ns3:hr>
          </ns3:TrackPointExtension>
        </extensions>
      </trkpt>
      <trkpt lat="55.9133785776793956756591796875" lon="23.86592223308980464935302734375">
        <ele>68.59999847412109375</ele>
        <time>2026-07-25T10:27:12.000Z</time>
        <extensions>
          <ns3:TrackPointExtension>
            <ns3:atemp>27.0</ns3:atemp>
            <ns3:hr>117</ns3:hr>
          </ns3:TrackPointExtension>
        </extensions>
      </trkpt>
      <trkpt lat="55.913466922938823699951171875" lon="23.86604561470448970794677734375">
        <ele>68.8000030517578125</ele>
        <time>2026-07-25T10:27:20.000Z</time>
        <extensions>
          <ns3:TrackPointExtension>
            <ns3:atemp>27.0</ns3:atemp>
            <ns3:hr>117</ns3:hr>
          </ns3:TrackPointExtension>
        </extensions>
      </trkpt>
      <trkpt lat="55.91355518437922000885009765625" lon="23.866148628294467926025390625">
        <ele>68.8000030517578125</ele>
        <time>2026-07-25T10:27:28.000Z</time>
        <extensions>
          <ns3:TrackPointExtension>
            <ns3:atemp>27.0</ns3:atemp>
            <ns3:hr>115</ns3:hr>
          </ns3:TrackPointExtension>
        </extensions>
      </trkpt>
      <trkpt lat="55.91366213746368885040283203125" lon="23.86629489250481128692626953125">
        <ele>68.1999969482421875</ele>
        <time>2026-07-25T10:27:37.000Z</time>
        <extensions>
          <ns3:TrackPointExtension>
            <ns3:atemp>27.0</ns3:atemp>
            <ns3:hr>115</ns3:hr>
          </ns3:TrackPointExtension>
        </extensions>
      </trkpt>
      <trkpt lat="55.913727767765522003173828125" lon="23.86646638624370098114013671875">
        <ele>68.40000152587890625</ele>
        <time>2026-07-25T10:27:45.000Z</time>
        <extensions>
          <ns3:TrackPointExtension>
            <ns3:atemp>27.0</ns3:atemp>
            <ns3:hr>114</ns3:hr>
          </ns3:TrackPointExtension>
        </extensions>
      </trkpt>
      <trkpt lat="55.9138154424726963043212890625" lon="23.86656579561531543731689453125">
        <ele>68.1999969482421875</ele>
        <time>2026-07-25T10:27:52.000Z</time>
        <extensions>
          <ns3:TrackPointExtension>
            <ns3:atemp>27.0</ns3:atemp>
            <ns3:hr>114</ns3:hr>
          </ns3:TrackPointExtension>
        </extensions>
      </trkpt>
      <trkpt lat="55.9139205515384674072265625" lon="23.86671851389110088348388671875">
        <ele>68.1999969482421875</ele>
        <time>2026-07-25T10:28:01.000Z</time>
        <extensions>
          <ns3:TrackPointExtension>
            <ns3:atemp>27.0</ns3:atemp>
            <ns3:hr>114</ns3:hr>
          </ns3:TrackPointExtension>
        </extensions>
      </trkpt>
      <trkpt lat="55.91398986987769603729248046875" lon="23.86685907840728759765625">
        <ele>68.1999969482421875</ele>
        <time>2026-07-25T10:28:08.000Z</time>
        <extensions>
          <ns3:TrackPointExtension>
            <ns3:atemp>27.0</ns3:atemp>
            <ns3:hr>114</ns3:hr>
          </ns3:TrackPointExtension>
        </extensions>
      </trkpt>
      <trkpt lat="55.9140270017087459564208984375" lon="23.8670952804386615753173828125">
        <ele>68</ele>
        <time>2026-07-25T10:28:18.000Z</time>
        <extensions>
          <ns3:TrackPointExtension>
            <ns3:atemp>27.0</ns3:atemp>
            <ns3:hr>114</ns3:hr>
          </ns3:TrackPointExtension>
        </extensions>
      </trkpt>
      <trkpt lat="55.91405390761792659759521484375" lon="23.8673571310937404632568359375">
        <ele>68.40000152587890625</ele>
        <time>2026-07-25T10:28:28.000Z</time>
        <extensions>
          <ns3:TrackPointExtension>
            <ns3:atemp>27.0</ns3:atemp>
            <ns3:hr>114</ns3:hr>
          </ns3:TrackPointExtension>
        </extensions>
      </trkpt>
      <trkpt lat="55.9141232259571552276611328125" lon="23.8674808479845523834228515625">
        <ele>68.8000030517578125</ele>
        <time>2026-07-25T10:28:35.000Z</time>
        <extensions>
          <ns3:TrackPointExtension>
            <ns3:atemp>27.0</ns3:atemp>
            <ns3:hr>113</ns3:hr>
          </ns3:TrackPointExtension>
        </extensions>
      </trkpt>
      <trkpt lat="55.914219282567501068115234375" lon="23.86756022460758686065673828125">
        <ele>68.8000030517578125</ele>
        <time>2026-07-25T10:28:43.000Z</time>
        <extensions>
          <ns3:TrackPointExtension>
            <ns3:atemp>27.0</ns3:atemp>
            <ns3:hr>111</ns3:hr>
          </ns3:TrackPointExtension>
        </extensions>
      </trkpt>
      <trkpt lat="55.91430477797985076904296875" lon="23.8676028884947299957275390625">
        <ele>68.8000030517578125</ele>
        <time>2026-07-25T10:28:50.000Z</time>
        <extensions>
          <ns3:TrackPointExtension>
            <ns3:atemp>27.0</ns3:atemp>
            <ns3:hr>111</ns3:hr>
          </ns3:TrackPointExtension>
        </extensions>
      </trkpt>
      <trkpt lat="55.9144127368927001953125" lon="23.86762644164264202117919921875">
        <ele>68.59999847412109375</ele>
        <time>2026-07-25T10:28:57.000Z</time>
        <extensions>
          <ns3:TrackPointExtension>
            <ns3:atemp>27.0</ns3:atemp>
            <ns3:hr>112</ns3:hr>
          </ns3:TrackPointExtension>
        </extensions>
      </trkpt>
      <trkpt lat="55.91453603468835353851318359375" lon="23.86761168949306011199951171875">
        <ele>68.1999969482421875</ele>
        <time>2026-07-25T10:29:06.000Z</time>
        <extensions>
          <ns3:TrackPointExtension>
            <ns3:atemp>27.0</ns3:atemp>
            <ns3:hr>112</ns3:hr>
          </ns3:TrackPointExtension>
        </extensions>
      </trkpt>
      <trkpt lat="55.91466880403459072113037109375" lon="23.86763784103095531463623046875">
        <ele>68.1999969482421875</ele>
        <time>2026-07-25T10:29:15.000Z</time>
        <extensions>
          <ns3:TrackPointExtension>
            <ns3:atemp>27.0</ns3:atemp>
            <ns3:hr>111</ns3:hr>
          </ns3:TrackPointExtension>
        </extensions>
      </trkpt>
      <trkpt lat="55.9147708117961883544921875" lon="23.8676779903471469879150390625">
        <ele>68</ele>
        <time>2026-07-25T10:29:22.000Z</time>
        <extensions>
          <ns3:TrackPointExtension>
            <ns3:atemp>27.0</ns3:atemp>
            <ns3:hr>114</ns3:hr>
          </ns3:TrackPointExtension>
        </extensions>
      </trkpt>
      <trkpt lat="55.91479721479117870330810546875" lon="23.8676803372800350189208984375">
        <ele>68</ele>
        <time>2026-07-25T10:29:24.000Z</time>
        <extensions>
          <ns3:TrackPointExtension>
            <ns3:atemp>27.0</ns3:atemp>
            <ns3:hr>114</ns3:hr>
          </ns3:TrackPointExtension>
        </extensions>
      </trkpt>
      <trkpt lat="55.91490064747631549835205078125" lon="23.86761554516851902008056640625">
        <ele>67.59999847412109375</ele>
        <time>2026-07-25T10:29:33.000Z</time>
        <extensions>
          <ns3:TrackPointExtension>
            <ns3:atemp>27.0</ns3:atemp>
            <ns3:hr>113</ns3:hr>
          </ns3:TrackPointExtension>
        </extensions>
      </trkpt>
      <trkpt lat="55.91501631774008274078369140625" lon="23.867580927908420562744140625">
        <ele>68</ele>
        <time>2026-07-25T10:29:41.000Z</time>
        <extensions>
          <ns3:TrackPointExtension>
            <ns3:atemp>27.0</ns3:atemp>
            <ns3:hr>112</ns3:hr>
          </ns3:TrackPointExtension>
        </extensions>
      </trkpt>
      <trkpt lat="55.9151246957480907440185546875" lon="23.8676592148840427398681640625">
        <ele>68.8000030517578125</ele>
        <time>2026-07-25T10:29:49.000Z</time>
        <extensions>
          <ns3:TrackPointExtension>
            <ns3:atemp>27.0</ns3:atemp>
            <ns3:hr>114</ns3:hr>
          </ns3:TrackPointExtension>
        </extensions>
      </trkpt>
      <trkpt lat="55.91515730135142803192138671875" lon="23.86768586933612823486328125">
        <ele>68.8000030517578125</ele>
        <time>2026-07-25T10:29:52.000Z</time>
        <extensions>
          <ns3:TrackPointExtension>
            <ns3:atemp>27.0</ns3:atemp>
            <ns3:hr>117</ns3:hr>
          </ns3:TrackPointExtension>
        </extensions>
      </trkpt>
      <trkpt lat="55.91524749062955379486083984375" lon="23.86774244718253612518310546875">
        <ele>68.40000152587890625</ele>
        <time>2026-07-25T10:29:59.000Z</time>
        <extensions>
          <ns3:TrackPointExtension>
            <ns3:atemp>27.0</ns3:atemp>
            <ns3:hr>119</ns3:hr>
          </ns3:TrackPointExtension>
        </extensions>
      </trkpt>
      <trkpt lat="55.9153218381106853485107421875" lon="23.8679146952927112579345703125">
        <ele>68.1999969482421875</ele>
        <time>2026-07-25T10:30:06.000Z</time>
        <extensions>
          <ns3:TrackPointExtension>
            <ns3:atemp>27.0</ns3:atemp>
            <ns3:hr>117</ns3:hr>
          </ns3:TrackPointExtension>
        </extensions>
      </trkpt>
      <trkpt lat="55.91538428328931331634521484375" lon="23.8680726103484630584716796875">
        <ele>69</ele>
        <time>2026-07-25T10:30:13.000Z</time>
        <extensions>
          <ns3:TrackPointExtension>
            <ns3:atemp>27.0</ns3:atemp>
            <ns3:hr>118</ns3:hr>
          </ns3:TrackPointExtension>
        </extensions>
      </trkpt>
      <trkpt lat="55.9154589660465717315673828125" lon="23.86809515766799449920654296875">
        <ele>69.40000152587890625</ele>
        <time>2026-07-25T10:30:20.000Z</time>
        <extensions>
          <ns3:TrackPointExtension>
            <ns3:atemp>27.0</ns3:atemp>
            <ns3:hr>121</ns3:hr>
          </ns3:TrackPointExtension>
        </extensions>
      </trkpt>
      <trkpt lat="55.91554806567728519439697265625" lon="23.868171013891696929931640625">
        <ele>68.59999847412109375</ele>
        <time>2026-07-25T10:30:28.000Z</time>
        <extensions>
          <ns3:TrackPointExtension>
            <ns3:atemp>27.0</ns3:atemp>
            <ns3:hr>123</ns3:hr>
          </ns3:TrackPointExtension>
        </extensions>
      </trkpt>
      <trkpt lat="55.9156235866248607635498046875" lon="23.86835617013275623321533203125">
        <ele>68.59999847412109375</ele>
        <time>2026-07-25T10:30:36.000Z</time>
        <extensions>
          <ns3:TrackPointExtension>
            <ns3:atemp>27.0</ns3:atemp>
            <ns3:hr>120</ns3:hr>
          </ns3:TrackPointExtension>
        </extensions>
      </trkpt>
      <trkpt lat="55.91563322581350803375244140625" lon="23.86837519705295562744140625">
        <ele>68.59999847412109375</ele>
        <time>2026-07-25T10:30:37.000Z</time>
        <extensions>
          <ns3:TrackPointExtension>
            <ns3:atemp>27.0</ns3:atemp>
            <ns3:hr>120</ns3:hr>
          </ns3:TrackPointExtension>
        </extensions>
      </trkpt>
      <trkpt lat="55.91570950113236904144287109375" lon="23.8684823177754878997802734375">
        <ele>68.40000152587890625</ele>
        <time>2026-07-25T10:30:44.000Z</time>
        <extensions>
          <ns3:TrackPointExtension>
            <ns3:atemp>27.0</ns3:atemp>
            <ns3:hr>120</ns3:hr>
          </ns3:TrackPointExtension>
        </extensions>
      </trkpt>
      <trkpt lat="55.915799438953399658203125" lon="23.868534453213214874267578125">
        <ele>68.40000152587890625</ele>
        <time>2026-07-25T10:30:51.000Z</time>
        <extensions>
          <ns3:TrackPointExtension>
            <ns3:atemp>27.0</ns3:atemp>
            <ns3:hr>119</ns3:hr>
          </ns3:TrackPointExtension>
        </extensions>
      </trkpt>
      <trkpt lat="55.9159139357507228851318359375" lon="23.86858516372740268707275390625">
        <ele>68</ele>
        <time>2026-07-25T10:30:59.000Z</time>
        <extensions>
          <ns3:TrackPointExtension>
            <ns3:atemp>27.0</ns3:atemp>
            <ns3:hr>118</ns3:hr>
          </ns3:TrackPointExtension>
        </extensions>
      </trkpt>
      <trkpt lat="55.9160440228879451751708984375" lon="23.86863780207931995391845703125">
        <ele>68</ele>
        <time>2026-07-25T10:31:08.000Z</time>
        <extensions>
          <ns3:TrackPointExtension>
            <ns3:atemp>27.0</ns3:atemp>
            <ns3:hr>118</ns3:hr>
          </ns3:TrackPointExtension>
        </extensions>
      </trkpt>
      <trkpt lat="55.91612809337675571441650390625" lon="23.8687186874449253082275390625">
        <ele>68.1999969482421875</ele>
        <time>2026-07-25T10:31:15.000Z</time>
        <extensions>
          <ns3:TrackPointExtension>
            <ns3:atemp>27.0</ns3:atemp>
            <ns3:hr>117</ns3:hr>
          </ns3:TrackPointExtension>
        </extensions>
      </trkpt>
      <trkpt lat="55.91621811501681804656982421875" lon="23.86883519589900970458984375">
        <ele>68.40000152587890625</ele>
        <time>2026-07-25T10:31:22.000Z</time>
        <extensions>
          <ns3:TrackPointExtension>
            <ns3:atemp>27.0</ns3:atemp>
            <ns3:hr>117</ns3:hr>
          </ns3:TrackPointExtension>
        </extensions>
      </trkpt>
      <trkpt lat="55.9163142554461956024169921875" lon="23.86892295442521572113037109375">
        <ele>68.40000152587890625</ele>
        <time>2026-07-25T10:31:30.000Z</time>
        <extensions>
          <ns3:TrackPointExtension>
            <ns3:atemp>27.0</ns3:atemp>
            <ns3:hr>117</ns3:hr>
          </ns3:TrackPointExtension>
        </extensions>
      </trkpt>
      <trkpt lat="55.91640092432498931884765625" lon="23.86902219615876674652099609375">
        <ele>68.1999969482421875</ele>
        <time>2026-07-25T10:31:38.000Z</time>
        <extensions>
          <ns3:TrackPointExtension>
            <ns3:atemp>27.0</ns3:atemp>
            <ns3:hr>114</ns3:hr>
          </ns3:TrackPointExtension>
        </extensions>
      </trkpt>
      <trkpt lat="55.9164560772478580474853515625" lon="23.869190253317356109619140625">
        <ele>69.8000030517578125</ele>
        <time>2026-07-25T10:31:46.000Z</time>
        <extensions>
          <ns3:TrackPointExtension>
            <ns3:atemp>27.0</ns3:atemp>
            <ns3:hr>113</ns3:hr>
          </ns3:TrackPointExtension>
        </extensions>
      </trkpt>
      <trkpt lat="55.91648382134735584259033203125" lon="23.86926434934139251708984375">
        <ele>70.8000030517578125</ele>
        <time>2026-07-25T10:31:50.000Z</time>
        <extensions>
          <ns3:TrackPointExtension>
            <ns3:atemp>27.0</ns3:atemp>
            <ns3:hr>114</ns3:hr>
          </ns3:TrackPointExtension>
        </extensions>
      </trkpt>
      <trkpt lat="55.916506536304950714111328125" lon="23.86932897381484508514404296875">
        <ele>71.1999969482421875</ele>
        <time>2026-07-25T10:31:53.000Z</time>
        <extensions>
          <ns3:TrackPointExtension>
            <ns3:atemp>27.0</ns3:atemp>
            <ns3:hr>118</ns3:hr>
          </ns3:TrackPointExtension>
        </extensions>
      </trkpt>
      <trkpt lat="55.9165144152939319610595703125" lon="23.86934791691601276397705078125">
        <ele>71.40000152587890625</ele>
        <time>2026-07-25T10:31:54.000Z</time>
        <extensions>
          <ns3:TrackPointExtension>
            <ns3:atemp>27.0</ns3:atemp>
            <ns3:hr>119</ns3:hr>
          </ns3:TrackPointExtension>
        </extensions>
      </trkpt>
      <trkpt lat="55.91652891598641872406005859375" lon="23.8693872280418872833251953125">
        <ele>71.40000152587890625</ele>
        <time>2026-07-25T10:31:56.000Z</time>
        <extensions>
          <ns3:TrackPointExtension>
            <ns3:atemp>27.0</ns3:atemp>
            <ns3:hr>123</ns3:hr>
          </ns3:TrackPointExtension>
        </extensions>
      </trkpt>
      <trkpt lat="55.91654668562114238739013671875" lon="23.8694224320352077484130859375">
        <ele>71.40000152587890625</ele>
        <time>2026-07-25T10:31:58.000Z</time>
        <extensions>
          <ns3:TrackPointExtension>
            <ns3:atemp>27.0</ns3:atemp>
            <ns3:hr>126</ns3:hr>
          </ns3:TrackPointExtension>
        </extensions>
      </trkpt>
      <trkpt lat="55.9165704064071178436279296875" lon="23.86945352889597415924072265625">
        <ele>71.40000152587890625</ele>
        <time>2026-07-25T10:32:00.000Z</time>
        <extensions>
          <ns3:TrackPointExtension>
            <ns3:atemp>27.0</ns3:atemp>
            <ns3:hr>129</ns3:hr>
          </ns3:TrackPointExtension>
        </extensions>
      </trkpt>
      <trkpt lat="55.9165821410715579986572265625" lon="23.869459144771099090576171875">
        <ele>71.40000152587890625</ele>
        <time>2026-07-25T10:32:01.000Z</time>
        <extensions>
          <ns3:TrackPointExtension>
            <ns3:atemp>27.0</ns3:atemp>
            <ns3:hr>130</ns3:hr>
          </ns3:TrackPointExtension>
        </extensions>
      </trkpt>
      <trkpt lat="55.9166495315730571746826171875" lon="23.86948755942285060882568359375">
        <ele>71</ele>
        <time>2026-07-25T10:32:06.000Z</time>
        <extensions>
          <ns3:TrackPointExtension>
            <ns3:atemp>27.0</ns3:atemp>
            <ns3:hr>127</ns3:hr>
          </ns3:TrackPointExtension>
        </extensions>
      </trkpt>
      <trkpt lat="55.9166740067303180694580078125" lon="23.869494684040546417236328125">
        <ele>70.8000030517578125</ele>
        <time>2026-07-25T10:32:08.000Z</time>
        <extensions>
          <ns3:TrackPointExtension>
            <ns3:atemp>27.0</ns3:atemp>
            <ns3:hr>126</ns3:hr>
          </ns3:TrackPointExtension>
        </extensions>
      </trkpt>
      <trkpt lat="55.91676838696002960205078125" lon="23.869505412876605987548828125">
        <ele>71.1999969482421875</ele>
        <time>2026-07-25T10:32:16.000Z</time>
        <extensions>
          <ns3:TrackPointExtension>
            <ns3:atemp>27.0</ns3:atemp>
            <ns3:hr>125</ns3:hr>
          </ns3:TrackPointExtension>
        </extensions>
      </trkpt>
      <trkpt lat="55.9168909303843975067138671875" lon="23.8694891519844532012939453125">
        <ele>71.1999969482421875</ele>
        <time>2026-07-25T10:32:24.000Z</time>
        <extensions>
          <ns3:TrackPointExtension>
            <ns3:atemp>27.0</ns3:atemp>
            <ns3:hr>124</ns3:hr>
          </ns3:TrackPointExtension>
        </extensions>
      </trkpt>
      <trkpt lat="55.91700978577136993408203125" lon="23.86944464407861232757568359375">
        <ele>70.8000030517578125</ele>
        <time>2026-07-25T10:32:33.000Z</time>
        <extensions>
          <ns3:TrackPointExtension>
            <ns3:atemp>27.0</ns3:atemp>
            <ns3:hr>123</ns3:hr>
          </ns3:TrackPointExtension>
        </extensions>
      </trkpt>
      <trkpt lat="55.91710793785750865936279296875" lon="23.86945478618144989013671875">
        <ele>70.59999847412109375</ele>
        <time>2026-07-25T10:32:40.000Z</time>
        <extensions>
          <ns3:TrackPointExtension>
            <ns3:atemp>27.0</ns3:atemp>
            <ns3:hr>120</ns3:hr>
          </ns3:TrackPointExtension>
        </extensions>
      </trkpt>
      <trkpt lat="55.9171383641660213470458984375" lon="23.86950180865824222564697265625">
        <ele>70.40000152587890625</ele>
        <time>2026-07-25T10:32:43.000Z</time>
        <extensions>
          <ns3:TrackPointExtension>
            <ns3:atemp>27.0</ns3:atemp>
            <ns3:hr>120</ns3:hr>
          </ns3:TrackPointExtension>
        </extensions>
      </trkpt>
      <trkpt lat="55.91716560535132884979248046875" lon="23.86957623995840549468994140625">
        <ele>69.59999847412109375</ele>
        <time>2026-07-25T10:32:47.000Z</time>
        <extensions>
          <ns3:TrackPointExtension>
            <ns3:atemp>27.0</ns3:atemp>
            <ns3:hr>119</ns3:hr>
          </ns3:TrackPointExtension>
        </extensions>
      </trkpt>
      <trkpt lat="55.9172116219997406005859375" lon="23.86967011727392673492431640625">
        <ele>69.8000030517578125</ele>
        <time>2026-07-25T10:32:52.000Z</time>
        <extensions>
          <ns3:TrackPointExtension>
            <ns3:atemp>27.0</ns3:atemp>
            <ns3:hr>119</ns3:hr>
          </ns3:TrackPointExtension>
        </extensions>
      </trkpt>
      <trkpt lat="55.9173217602074146270751953125" lon="23.86983725242316722869873046875">
        <ele>70.59999847412109375</ele>
        <time>2026-07-25T10:33:01.000Z</time>
        <extensions>
          <ns3:TrackPointExtension>
            <ns3:atemp>27.0</ns3:atemp>
            <ns3:hr>118</ns3:hr>
          </ns3:TrackPointExtension>
        </extensions>
      </trkpt>
      <trkpt lat="55.9173338301479816436767578125" lon="23.86985041201114654541015625">
        <ele>70.59999847412109375</ele>
        <time>2026-07-25T10:33:02.000Z</time>
        <extensions>
          <ns3:TrackPointExtension>
            <ns3:atemp>27.0</ns3:atemp>
            <ns3:hr>118</ns3:hr>
          </ns3:TrackPointExtension>
        </extensions>
      </trkpt>
      <trkpt lat="55.9174168109893798828125" lon="23.8699635677039623260498046875">
        <ele>70</ele>
        <time>2026-07-25T10:33:11.000Z</time>
        <extensions>
          <ns3:TrackPointExtension>
            <ns3:atemp>27.0</ns3:atemp>
            <ns3:hr>117</ns3:hr>
          </ns3:TrackPointExtension>
        </extensions>
      </trkpt>
      <trkpt lat="55.91753055341541767120361328125" lon="23.87011469341814517974853515625">
        <ele>69.8000030517578125</ele>
        <time>2026-07-25T10:33:20.000Z</time>
        <extensions>
          <ns3:TrackPointExtension>
            <ns3:atemp>27.0</ns3:atemp>
            <ns3:hr>118</ns3:hr>
          </ns3:TrackPointExtension>
        </extensions>
      </trkpt>
      <trkpt lat="55.91763733886182308197021484375" lon="23.87027763761579990386962890625">
        <ele>70</ele>
        <time>2026-07-25T10:33:30.000Z</time>
        <extensions>
          <ns3:TrackPointExtension>
            <ns3:atemp>27.0</ns3:atemp>
            <ns3:hr>117</ns3:hr>
          </ns3:TrackPointExtension>
        </extensions>
      </trkpt>
      <trkpt lat="55.9177217446267604827880859375" lon="23.87043789960443973541259765625">
        <ele>70.40000152587890625</ele>
        <time>2026-07-25T10:33:39.000Z</time>
        <extensions>
          <ns3:TrackPointExtension>
            <ns3:atemp>27.0</ns3:atemp>
            <ns3:hr>119</ns3:hr>
          </ns3:TrackPointExtension>
        </extensions>
      </trkpt>
      <trkpt lat="55.9177998639643192291259765625" lon="23.8705519773066043853759765625">
        <ele>70.8000030517578125</ele>
        <time>2026-07-25T10:33:46.000Z</time>
        <extensions>
          <ns3:TrackPointExtension>
            <ns3:atemp>27.0</ns3:atemp>
            <ns3:hr>120</ns3:hr>
          </ns3:TrackPointExtension>
        </extensions>
      </trkpt>
      <trkpt lat="55.917918719351291656494140625" lon="23.87070930562913417816162109375">
        <ele>70.59999847412109375</ele>
        <time>2026-07-25T10:33:56.000Z</time>
        <extensions>
          <ns3:TrackPointExtension>
            <ns3:atemp>27.0</ns3:atemp>
            <ns3:hr>120</ns3:hr>
          </ns3:TrackPointExtension>
        </extensions>
      </trkpt>
      <trkpt lat="55.91794143430888652801513671875" lon="23.870716430246829986572265625">
        <ele>70.59999847412109375</ele>
        <time>2026-07-25T10:33:57.000Z</time>
        <extensions>
          <ns3:TrackPointExtension>
            <ns3:atemp>27.0</ns3:atemp>
            <ns3:hr>120</ns3:hr>
          </ns3:TrackPointExtension>
        </extensions>
      </trkpt>
      <trkpt lat="55.9180070646107196807861328125" lon="23.8707145862281322479248046875">
        <ele>70.59999847412109375</ele>
        <time>2026-07-25T10:34:02.000Z</time>
        <extensions>
          <ns3:TrackPointExtension>
            <ns3:atemp>27.0</ns3:atemp>
            <ns3:hr>120</ns3:hr>
          </ns3:TrackPointExtension>
        </extensions>
      </trkpt>
      <trkpt lat="55.91813656501471996307373046875" lon="23.8706901110708713531494140625">
        <ele>70.1999969482421875</ele>
        <time>2026-07-25T10:34:11.000Z</time>
        <extensions>
          <ns3:TrackPointExtension>
            <ns3:atemp>27.0</ns3:atemp>
            <ns3:hr>120</ns3:hr>
          </ns3:TrackPointExtension>
        </extensions>
      </trkpt>
      <trkpt lat="55.91825810261070728302001953125" lon="23.87064241804182529449462890625">
        <ele>70</ele>
        <time>2026-07-25T10:34:20.000Z</time>
        <extensions>
          <ns3:TrackPointExtension>
            <ns3:atemp>27.0</ns3:atemp>
            <ns3:hr>120</ns3:hr>
          </ns3:TrackPointExtension>
        </extensions>
      </trkpt>
      <trkpt lat="55.91837964020669460296630859375" lon="23.8705989159643650054931640625">
        <ele>69.8000030517578125</ele>
        <time>2026-07-25T10:34:28.000Z</time>
        <extensions>
          <ns3:TrackPointExtension>
            <ns3:atemp>27.0</ns3:atemp>
            <ns3:hr>120</ns3:hr>
          </ns3:TrackPointExtension>
        </extensions>
      </trkpt>
      <trkpt lat="55.9184811450541019439697265625" lon="23.870583660900592803955078125">
        <ele>70.1999969482421875</ele>
        <time>2026-07-25T10:34:36.000Z</time>
        <extensions>
          <ns3:TrackPointExtension>
            <ns3:atemp>27.0</ns3:atemp>
            <ns3:hr>119</ns3:hr>
          </ns3:TrackPointExtension>
        </extensions>
      </trkpt>
      <trkpt lat="55.91857845894992351531982421875" lon="23.87057402171194553375244140625">
        <ele>70.1999969482421875</ele>
        <time>2026-07-25T10:34:43.000Z</time>
        <extensions>
          <ns3:TrackPointExtension>
            <ns3:atemp>27.0</ns3:atemp>
            <ns3:hr>118</ns3:hr>
          </ns3:TrackPointExtension>
        </extensions>
      </trkpt>
      <trkpt lat="55.9186990745365619659423828125" lon="23.87051417492330074310302734375">
        <ele>70.1999969482421875</ele>
        <time>2026-07-25T10:34:51.000Z</time>
        <extensions>
          <ns3:TrackPointExtension>
            <ns3:atemp>27.0</ns3:atemp>
            <ns3:hr>118</ns3:hr>
          </ns3:TrackPointExtension>
        </extensions>
      </trkpt>
      <trkpt lat="55.9188174270093441009521484375" lon="23.8705216348171234130859375">
        <ele>69.8000030517578125</ele>
        <time>2026-07-25T10:34:59.000Z</time>
        <extensions>
          <ns3:TrackPointExtension>
            <ns3:atemp>27.0</ns3:atemp>
            <ns3:hr>119</ns3:hr>
          </ns3:TrackPointExtension>
        </extensions>
      </trkpt>
      <trkpt lat="55.9189042635262012481689453125" lon="23.87058575637638568878173828125">
        <ele>69.59999847412109375</ele>
        <time>2026-07-25T10:35:07.000Z</time>
        <extensions>
          <ns3:TrackPointExtension>
            <ns3:atemp>27.0</ns3:atemp>
            <ns3:hr>118</ns3:hr>
          </ns3:TrackPointExtension>
        </extensions>
      </trkpt>
      <trkpt lat="55.91894608922302722930908203125" lon="23.87061224319040775299072265625">
        <ele>69.59999847412109375</ele>
        <time>2026-07-25T10:35:10.000Z</time>
        <extensions>
          <ns3:TrackPointExtension>
            <ns3:atemp>27.0</ns3:atemp>
            <ns3:hr>119</ns3:hr>
          </ns3:TrackPointExtension>
        </extensions>
      </trkpt>
      <trkpt lat="55.91904616914689540863037109375" lon="23.8706056214869022369384765625">
        <ele>69</ele>
        <time>2026-07-25T10:35:19.000Z</time>
        <extensions>
          <ns3:TrackPointExtension>
            <ns3:atemp>27.0</ns3:atemp>
            <ns3:hr>118</ns3:hr>
          </ns3:TrackPointExtension>
        </extensions>
      </trkpt>
      <trkpt lat="55.919110290706157684326171875" lon="23.8705563358962535858154296875">
        <ele>68.59999847412109375</ele>
        <time>2026-07-25T10:35:23.000Z</time>
        <extensions>
          <ns3:TrackPointExtension>
            <ns3:atemp>27.0</ns3:atemp>
            <ns3:hr>118</ns3:hr>
          </ns3:TrackPointExtension>
        </extensions>
      </trkpt>
      <trkpt lat="55.919170640408992767333984375" lon="23.87047980912029743194580078125">
        <ele>68.1999969482421875</ele>
        <time>2026-07-25T10:35:28.000Z</time>
        <extensions>
          <ns3:TrackPointExtension>
            <ns3:atemp>27.0</ns3:atemp>
            <ns3:hr>118</ns3:hr>
          </ns3:TrackPointExtension>
        </extensions>
      </trkpt>
      <trkpt lat="55.91926041059195995330810546875" lon="23.870505206286907196044921875">
        <ele>68.1999969482421875</ele>
        <time>2026-07-25T10:35:34.000Z</time>
        <extensions>
          <ns3:TrackPointExtension>
            <ns3:atemp>27.0</ns3:atemp>
            <ns3:hr>116</ns3:hr>
          </ns3:TrackPointExtension>
        </extensions>
      </trkpt>
      <trkpt lat="55.91927885077893733978271484375" lon="23.8705162703990936279296875">
        <ele>68.59999847412109375</ele>
        <time>2026-07-25T10:35:36.000Z</time>
        <extensions>
          <ns3:TrackPointExtension>
            <ns3:atemp>27.0</ns3:atemp>
            <ns3:hr>115</ns3:hr>
          </ns3:TrackPointExtension>
        </extensions>
      </trkpt>
      <trkpt lat="55.91935764066874980926513671875" lon="23.8705278374254703521728515625">
        <ele>68</ele>
        <time>2026-07-25T10:35:41.000Z</time>
        <extensions>
          <ns3:TrackPointExtension>
            <ns3:atemp>27.0</ns3:atemp>
            <ns3:hr>118</ns3:hr>
          </ns3:TrackPointExtension>
        </extensions>
      </trkpt>
      <trkpt lat="55.91937406919896602630615234375" lon="23.87052875943481922149658203125">
        <ele>68</ele>
        <time>2026-07-25T10:35:42.000Z</time>
        <extensions>
          <ns3:TrackPointExtension>
            <ns3:atemp>27.0</ns3:atemp>
            <ns3:hr>118</ns3:hr>
          </ns3:TrackPointExtension>
        </extensions>
      </trkpt>
      <trkpt lat="55.919418074190616607666015625" lon="23.8705288432538509368896484375">
        <ele>67.59999847412109375</ele>
        <time>2026-07-25T10:35:45.000Z</time>
        <extensions>
          <ns3:TrackPointExtension>
            <ns3:atemp>27.0</ns3:atemp>
            <ns3:hr>118</ns3:hr>
          </ns3:TrackPointExtension>
        </extensions>
      </trkpt>
      <trkpt lat="55.91947699896991252899169921875" lon="23.87054082937538623809814453125">
        <ele>67.1999969482421875</ele>
        <time>2026-07-25T10:35:49.000Z</time>
        <extensions>
          <ns3:TrackPointExtension>
            <ns3:atemp>27.0</ns3:atemp>
            <ns3:hr>117</ns3:hr>
          </ns3:TrackPointExtension>
        </extensions>
      </trkpt>
      <trkpt lat="55.9195691160857677459716796875" lon="23.8705860078334808349609375">
        <ele>67.40000152587890625</ele>
        <time>2026-07-25T10:35:57.000Z</time>
        <extensions>
          <ns3:TrackPointExtension>
            <ns3:atemp>27.0</ns3:atemp>
            <ns3:hr>118</ns3:hr>
          </ns3:TrackPointExtension>
        </extensions>
      </trkpt>
      <trkpt lat="55.9196552820503711700439453125" lon="23.8705684058368206024169921875">
        <ele>66.8000030517578125</ele>
        <time>2026-07-25T10:36:05.000Z</time>
        <extensions>
          <ns3:TrackPointExtension>
            <ns3:atemp>27.0</ns3:atemp>
            <ns3:hr>120</ns3:hr>
          </ns3:TrackPointExtension>
        </extensions>
      </trkpt>
      <trkpt lat="55.91969761066138744354248046875" lon="23.8705254904925823211669921875">
        <ele>66.59999847412109375</ele>
        <time>2026-07-25T10:36:09.000Z</time>
        <extensions>
          <ns3:TrackPointExtension>
            <ns3:atemp>27.0</ns3:atemp>
            <ns3:hr>119</ns3:hr>
          </ns3:TrackPointExtension>
        </extensions>
      </trkpt>
      <trkpt lat="55.9197132848203182220458984375" lon="23.8704907894134521484375">
        <ele>66.1999969482421875</ele>
        <time>2026-07-25T10:36:13.000Z</time>
        <extensions>
          <ns3:TrackPointExtension>
            <ns3:atemp>27.0</ns3:atemp>
            <ns3:hr>119</ns3:hr>
          </ns3:TrackPointExtension>
        </extensions>
      </trkpt>
      <trkpt lat="55.91972979716956615447998046875" lon="23.87045214883983135223388671875">
        <ele>66</ele>
        <time>2026-07-25T10:36:16.000Z</time>
        <extensions>
          <ns3:TrackPointExtension>
            <ns3:atemp>27.0</ns3:atemp>
            <ns3:hr>124</ns3:hr>
          </ns3:TrackPointExtension>
        </extensions>
      </trkpt>
      <trkpt lat="55.91975142247974872589111328125" lon="23.870407305657863616943359375">
        <ele>66.59999847412109375</ele>
        <time>2026-07-25T10:36:20.000Z</time>
        <extensions>
          <ns3:TrackPointExtension>
            <ns3:atemp>27.0</ns3:atemp>
            <ns3:hr>126</ns3:hr>
          </ns3:TrackPointExtension>
        </extensions>
      </trkpt>
      <trkpt lat="55.91976818628609180450439453125" lon="23.8703829981386661529541015625">
        <ele>66.40000152587890625</ele>
        <time>2026-07-25T10:36:27.000Z</time>
        <extensions>
          <ns3:TrackPointExtension>
            <ns3:atemp>28.0</ns3:atemp>
            <ns3:hr>123</ns3:hr>
          </ns3:TrackPointExtension>
        </extensions>
      </trkpt>
      <trkpt lat="55.9197649173438549041748046875" lon="23.870385177433490753173828125">
        <ele>66.40000152587890625</ele>
        <time>2026-07-25T10:36:28.000Z</time>
        <extensions>
          <ns3:TrackPointExtension>
            <ns3:atemp>28.0</ns3:atemp>
            <ns3:hr>123</ns3:hr>
          </ns3:TrackPointExtension>
        </extensions>
      </trkpt>
      <trkpt lat="55.91976265422999858856201171875" lon="23.87041635811328887939453125">
        <ele>65.8000030517578125</ele>
        <time>2026-07-25T10:36:36.000Z</time>
        <extensions>
          <ns3:TrackPointExtension>
            <ns3:atemp>28.0</ns3:atemp>
            <ns3:hr>127</ns3:hr>
          </ns3:TrackPointExtension>
        </extensions>
      </trkpt>
      <trkpt lat="55.91975561343133449554443359375" lon="23.8704312779009342193603515625">
        <ele>65.8000030517578125</ele>
        <time>2026-07-25T10:36:37.000Z</time>
        <extensions>
          <ns3:TrackPointExtension>
            <ns3:atemp>28.0</ns3:atemp>
            <ns3:hr>129</ns3:hr>
          </ns3:TrackPointExtension>
        </extensions>
      </trkpt>
      <trkpt lat="55.919721834361553192138671875" lon="23.8704916276037693023681640625">
        <ele>65.8000030517578125</ele>
        <time>2026-07-25T10:36:41.000Z</time>
        <extensions>
          <ns3:TrackPointExtension>
            <ns3:atemp>28.0</ns3:atemp>
            <ns3:hr>128</ns3:hr>
          </ns3:TrackPointExtension>
        </extensions>
      </trkpt>
      <trkpt lat="55.91968202032148838043212890625" lon="23.870544768869876861572265625">
        <ele>65.8000030517578125</ele>
        <time>2026-07-25T10:36:46.000Z</time>
        <extensions>
          <ns3:TrackPointExtension>
            <ns3:atemp>28.0</ns3:atemp>
            <ns3:hr>127</ns3:hr>
          </ns3:TrackPointExtension>
        </extensions>
      </trkpt>
      <trkpt lat="55.9196619875729084014892578125" lon="23.87058257125318050384521484375">
        <ele>66</ele>
        <time>2026-07-25T10:36:48.000Z</time>
        <extensions>
          <ns3:TrackPointExtension>
            <ns3:atemp>28.0</ns3:atemp>
            <ns3:hr>124</ns3:hr>
          </ns3:TrackPointExtension>
        </extensions>
      </trkpt>
      <trkpt lat="55.9196056611835956573486328125" lon="23.8706039451062679290771484375">
        <ele>66.1999969482421875</ele>
        <time>2026-07-25T10:36:52.000Z</time>
        <extensions>
          <ns3:TrackPointExtension>
            <ns3:atemp>28.0</ns3:atemp>
            <ns3:hr>123</ns3:hr>
          </ns3:TrackPointExtension>
        </extensions>
      </trkpt>
      <trkpt lat="55.919520668685436248779296875" lon="23.87058131396770477294921875">
        <ele>66.8000030517578125</ele>
        <time>2026-07-25T10:36:59.000Z</time>
        <extensions>
          <ns3:TrackPointExtension>
            <ns3:atemp>28.0</ns3:atemp>
            <ns3:hr>126</ns3:hr>
          </ns3:TrackPointExtension>
        </extensions>
      </trkpt>
      <trkpt lat="55.9194888174533843994140625" lon="23.8705643825232982635498046875">
        <ele>67</ele>
        <time>2026-07-25T10:37:01.000Z</time>
        <extensions>
          <ns3:TrackPointExtension>
            <ns3:atemp>28.0</ns3:atemp>
            <ns3:hr>128</ns3:hr>
          </ns3:TrackPointExtension>
        </extensions>
      </trkpt>
      <trkpt lat="55.91938144527375698089599609375" lon="23.870540075004100799560546875">
        <ele>66.8000030517578125</ele>
        <time>2026-07-25T10:37:09.000Z</time>
        <extensions>
          <ns3:TrackPointExtension>
            <ns3:atemp>28.0</ns3:atemp>
            <ns3:hr>126</ns3:hr>
          </ns3:TrackPointExtension>
        </extensions>
      </trkpt>
      <trkpt lat="55.91932260431349277496337890625" lon="23.8705358840525150299072265625">
        <ele>67.1999969482421875</ele>
        <time>2026-07-25T10:37:13.000Z</time>
        <extensions>
          <ns3:TrackPointExtension>
            <ns3:atemp>28.0</ns3:atemp>
            <ns3:hr>126</ns3:hr>
          </ns3:TrackPointExtension>
        </extensions>
      </trkpt>
      <trkpt lat="55.91926996596157550811767578125" lon="23.8705144263803958892822265625">
        <ele>67.40000152587890625</ele>
        <time>2026-07-25T10:37:17.000Z</time>
        <extensions>
          <ns3:TrackPointExtension>
            <ns3:atemp>28.0</ns3:atemp>
            <ns3:hr>127</ns3:hr>
          </ns3:TrackPointExtension>
        </extensions>
      </trkpt>
      <trkpt lat="55.9191657789051532745361328125" lon="23.8705435954034328460693359375">
        <ele>67.1999969482421875</ele>
        <time>2026-07-25T10:37:26.000Z</time>
        <extensions>
          <ns3:TrackPointExtension>
            <ns3:atemp>28.0</ns3:atemp>
            <ns3:hr>127</ns3:hr>
          </ns3:TrackPointExtension>
        </extensions>
      </trkpt>
      <trkpt lat="55.9191188402473926544189453125" lon="23.87062028981745243072509765625">
        <ele>67.59999847412109375</ele>
        <time>2026-07-25T10:37:31.000Z</time>
        <extensions>
          <ns3:TrackPointExtension>
            <ns3:atemp>28.0</ns3:atemp>
            <ns3:hr>127</ns3:hr>
          </ns3:TrackPointExtension>
        </extensions>
      </trkpt>
      <trkpt lat="55.9190782718360424041748046875" lon="23.87064660899341106414794921875">
        <ele>67.8000030517578125</ele>
        <time>2026-07-25T10:37:34.000Z</time>
        <extensions>
          <ns3:TrackPointExtension>
            <ns3:atemp>28.0</ns3:atemp>
            <ns3:hr>124</ns3:hr>
          </ns3:TrackPointExtension>
        </extensions>
      </trkpt>
      <trkpt lat="55.91900266706943511962890625" lon="23.87075792066752910614013671875">
        <ele>68</ele>
        <time>2026-07-25T10:37:43.000Z</time>
        <extensions>
          <ns3:TrackPointExtension>
            <ns3:atemp>29.0</ns3:atemp>
            <ns3:hr>126</ns3:hr>
          </ns3:TrackPointExtension>
        </extensions>
      </trkpt>
      <trkpt lat="55.91896821744740009307861328125" lon="23.87094567529857158660888671875">
        <ele>68.1999969482421875</ele>
        <time>2026-07-25T10:37:51.000Z</time>
        <extensions>
          <ns3:TrackPointExtension>
            <ns3:atemp>29.0</ns3:atemp>
            <ns3:hr>126</ns3:hr>
          </ns3:TrackPointExtension>
        </extensions>
      </trkpt>
      <trkpt lat="55.9189528785645961761474609375" lon="23.87111415155231952667236328125">
        <ele>68.1999969482421875</ele>
        <time>2026-07-25T10:37:59.000Z</time>
        <extensions>
          <ns3:TrackPointExtension>
            <ns3:atemp>29.0</ns3:atemp>
            <ns3:hr>127</ns3:hr>
          </ns3:TrackPointExtension>
        </extensions>
      </trkpt>
    </trkseg>
  </trk>
</gpx>
